[[{"header":{"parameterUnit":"m.s-1","parameterCategory":1,"la1":31.0,"la2":29.5877,"lo1":-88.7671,"lo2":-86.6584,"dy":0.0162,"dx":0.0185,"nx":115,"ny":88,"refTime":"2026-03-31T12:00:00:Z","depth":0,"parameterNumber":2,"parameterNumberName":"U-component_of_WINDS"},"data":[0.0,0.0,0.0,0.0,0.0,0.0,0.0,0.0,0.0,0.0,0.0,0.0,0.0,0.0,0.0,0.0,0.0,0.0,0.0,0.0,0.0,0.0,0.0,0.0,0.0,0.0,0.0,0.0,0.0,0.0,0.0,0.0,0.0,0.0,0.0,0.0,0.0,0.0,0.0,0.0,0.0,0.0,0.0,0.0,0.0,0.0,0.0,0.0,0.0,0.0,0.0,0.0,0.0,0.0,0.0,0.0,0.0,0.0,0.0,0.0,0.0,0.0,0.0,0.0,0.0,0.0,0.0,0.0,0.0,0.0,0.0,0.0,0.0,0.0,0.0,0.0,0.0,0.0,0.0,0.0,0.0,0.0,0.0,0.0,0.0,0.0,0.0,0.0,0.0,0.0,0.0,0.0,0.0,0.0,0.0,0.0,0.0,0.0,0.0,0.0,0.0,0.0,0.0,0.0,0.0,0.0,0.0,0.0,0.0,0.0,0.0,0.0,0.0,0.0,0.0,0.0,0.0,0.0,0.0,0.0,0.0,0.0,0.0,0.0,0.0,0.0,0.0,0.0,0.0,0.0,0.0,0.0,0.0,0.0,0.0,0.0,0.0,0.0,0.0,0.0,0.0,0.0,0.0,0.0,0.0,0.0,0.0,0.0,0.0,0.0,0.0,0.0,0.0,0.0,0.0,0.0,0.0,0.0,0.0,0.0,0.0,0.0,0.0,0.0,0.0,0.0,0.0,0.0,0.0,0.0,0.0,0.0,0.0,0.0,0.0,0.0,0.0,0.0,0.0,0.0,0.0,0.0,0.0,0.0,0.0,0.0,0.0,0.0,0.0,0.0,0.0,0.0,0.0,0.0,0.0,0.0,0.0,0.0,0.0,0.0,0.0,0.0,0.0,0.0,0.0,0.0,0.0,0.0,0.0,0.0,0.0,0.0,0.0,0.0,0.0,0.0,0.0,0.0,0.0,0.0,0.0,0.0,0.0,0.0,0.0,0.0,0.0,0.0,0.0,0.0,0.0,0.0,0.0,0.0,0.0,0.0,0.0,0.0,0.0,0.0,0.0,0.0,0.0,0.0,0.0,0.0,0.0,0.0,0.0,0.0,0.0,0.0,0.0,0.0,0.0,0.0,0.0,0.0,0.0,0.0,0.0,0.0,0.0,0.0,0.0,0.0,0.0,0.0,0.0,0.0,0.0,0.0,0.0,0.0,0.0,0.0,0.0,0.0,0.0,0.0,0.0,0.0,0.0,0.0,0.0,0.0,0.0,0.0,0.0,0.0,0.0,0.0,0.0,0.0,0.0,0.0,0.0,0.0,0.0,0.0,0.0,0.0,0.0,0.0,0.0,0.0,0.0,0.0,0.0,0.0,0.0,0.0,0.0,0.0,0.0,0.0,0.0,0.0,0.0,0.0,0.0,0.0,0.0,0.0,0.0,0.0,0.0,0.0,0.0,0.0,0.0,0.0,0.0,0.0,0.0,0.0,0.0,0.0,0.0,0.0,0.0,0.0,0.0,0.0,0.0,0.0,0.0,0.0,0.0,0.0,0.0,0.0,0.0,0.0,0.0,0.0,0.0,0.0,0.0,0.0,0.0,0.0,0.0,0.0,0.0,0.0,0.0,0.0,0.0,0.0,0.0,0.0,0.0,0.0,0.0,0.0,0.0,0.0,0.0,0.0,0.0,0.0,0.0,0.0,0.0,0.0,0.0,0.0,0.0,0.0,0.0,0.0,0.0,0.0,0.0,0.0,0.0,0.0,0.0,0.0,0.0,0.0,0.0,0.0,0.0,0.0,0.0,0.0,0.0,0.0,0.0,0.0,0.0,0.0,0.0,0.0,0.0,0.0,0.0,0.0,0.0,0.0,0.0,0.0,0.0,0.0,0.0,0.0,0.0,0.0,0.0,0.0,0.0,0.0,0.0,0.0,0.0,0.0,0.0,0.0,0.0,0.0,0.0,0.0,0.0,0.0,0.0,0.0,0.0,0.0,0.0,0.0,0.0,0.0,0.0,0.0,0.0,0.0,0.0,0.0,0.0,0.0,0.0,0.0,0.0,0.0,0.0,0.0,0.0,0.0,0.0,0.0,0.0,0.0,0.0,0.0,0.0,0.0,0.0,0.0,0.0,0.0,0.0,0.0,0.0,0.0,0.0,0.0,0.0,0.0,0.0,0.0,0.0,0.0,0.0,0.0,0.0,0.0,0.0,0.0,0.0,0.0,0.0,0.0,0.0,0.0,0.0,0.0,0.0,0.0,0.0,0.0,0.0,0.0,0.0,0.0,0.0,0.0,0.0,0.0,0.0,0.0,0.0,0.0,0.0,0.0,0.0,0.0,0.0,0.0,0.0,0.0,0.0,0.0,0.0,0.0,0.0,0.0,0.0,0.0,0.0,0.0,0.0,0.0,0.0,0.0,0.0,0.0,0.0,0.0,0.0,0.0,0.0,0.0,0.0,0.0,0.0,0.0,0.0,0.0,0.0,0.0,0.0,0.0,0.0,0.0,0.0,0.0,0.0,0.0,0.0,0.0,0.0,0.0,0.0,0.0,0.0,0.0,0.0,0.0,0.0,0.0,0.0,0.0,0.0,0.0,0.0,0.0,0.0,0.0,0.0,0.0,0.0,0.0,0.0,0.0,0.0,0.0,0.0,0.0,0.0,0.0,0.0,0.0,0.0,0.0,0.0,0.0,0.0,0.0,0.0,0.0,0.0,0.0,0.0,0.0,0.0,0.0,0.0,0.0,0.0,0.0,0.0,0.0,0.0,0.0,0.0,0.0,0.0,0.0,0.0,0.0,0.0,0.0,0.0,0.0,0.0,0.0,0.0,0.0,0.0,0.0,0.0,0.0,0.0,0.0,0.0,0.0,0.0,0.0,0.0,0.0,0.0,0.0,0.0,0.0,0.0,0.0,0.0,0.0,0.0,0.0,0.0,0.0,0.0,0.0,0.0,0.0,0.0,0.0,0.0,0.0,0.0,0.0,0.0,0.0,0.0,0.0,0.0,0.0,0.0,0.0,0.0,0.0,0.0,0.0,0.0,0.0,0.0,0.0,0.0,0.0,0.0,0.0,0.0,0.0,0.0,0.0,0.0,0.0,0.0,0.0,0.0,0.0,0.0,0.0,0.0,0.0,0.0,0.0,0.0,0.0,0.0,0.0,0.0,0.0,0.0,0.0,0.0,0.0,0.0,0.0,0.0,0.0,0.0,0.0,0.0,0.0,0.0,0.0,0.0,0.0,0.0,0.0,0.0,0.0,0.0,0.0,0.0,0.0,0.0,0.0,0.0,0.0,0.0,0.0,0.0,0.0,0.0,0.0,0.0,0.0,0.0,0.0,0.0,0.0,0.0,0.0,0.0,0.0,0.0,0.0,0.0,0.0,0.0,0.0,0.0,0.0,0.0,0.0,0.0,0.0,0.0,0.0,0.0,0.0,0.0,0.0,0.0,0.0,0.0,0.0,0.0,0.0,0.0,0.0,0.0,0.0,0.0,0.0,0.0,0.0,0.0,0.0,0.0,0.0,0.0,0.0,0.0,0.0,0.0,0.0,0.0,0.0,0.0,0.0,0.0,0.0,0.0,0.0,0.0,0.0,0.0,0.0,0.0,0.0,0.0,0.0,0.0,0.0,0.0,0.0,0.0,0.0,0.0,0.0,0.0,0.0,0.0,0.0,0.0,0.0,0.0,0.0,0.0,0.0,0.0,0.0,0.0,0.0,0.0,0.0,0.0,0.0,0.0,0.0,0.0,0.0,0.0,0.0,0.0,0.0,0.0,0.0,0.0,0.0,0.0,0.0,0.0,0.0,0.0,0.0,0.0,0.0,0.0,0.0,0.0,0.0,0.0,0.0,0.0,0.0,0.0,0.0,0.0,0.0,0.0,0.0,0.0,0.0,0.0,0.0,0.0,0.0,0.0,0.0,0.0,0.0,0.0,0.0,0.0,0.0,0.0,0.0,0.0,0.0,0.0,0.0,0.0,0.0,0.0,0.0,0.0,0.0,0.0,0.0,0.0,0.0,0.0,0.0,0.0,0.0,0.0,0.0,0.0,0.0,0.0,0.0,0.0,0.0,0.0,0.0,0.0,0.0,0.0,0.0,0.0,0.0,0.0,0.0,0.0,0.0,0.0,0.0,0.0,0.0,0.0,0.0,0.0,0.0,0.0,0.0,0.0,0.0,0.0,0.0,0.0,0.0,0.0,0.0,0.0,0.0,0.0,0.0,0.0,0.0,0.0,0.0,0.0,0.0,0.0,0.0,0.0,0.0,0.0,0.0,-1.032,0.0,0.0,0.0,0.0,0.0,0.0,0.0,0.0,0.0,0.0,0.0,0.0,0.0,0.0,0.0,0.0,0.0,0.0,0.0,0.0,0.0,0.0,0.0,0.0,0.0,0.0,0.0,0.0,0.0,0.0,0.0,0.0,0.0,0.0,0.0,0.0,0.0,0.0,0.0,0.0,0.0,0.0,0.0,0.0,0.0,0.0,0.0,0.0,0.0,0.0,0.0,0.0,0.0,0.0,0.0,0.0,0.0,0.0,0.0,0.0,0.0,0.0,0.0,0.0,0.0,0.0,0.0,0.0,0.0,0.0,0.0,0.0,0.0,0.0,0.0,0.0,0.0,0.0,0.0,0.0,0.0,0.0,0.0,0.0,0.0,0.0,0.0,0.0,0.0,0.0,0.0,0.0,0.0,0.0,0.0,0.0,0.0,0.0,0.0,0.0,0.0,0.0,0.0,0.0,0.0,0.0,0.0,0.0,0.0,0.0,-0.7531,-0.8361,-0.9138,-0.9925,-1.0846,0.0,0.0,0.0,0.0,0.0,0.0,0.0,0.0,0.0,0.0,0.0,0.0,0.0,0.0,0.0,0.0,0.0,0.0,0.0,0.0,0.0,0.0,0.0,0.0,0.0,0.0,0.0,0.0,0.0,0.0,0.0,0.0,0.0,0.0,0.0,0.0,0.0,0.0,0.0,0.0,0.0,0.0,0.0,0.0,0.0,0.0,0.0,0.0,0.0,0.0,0.0,0.0,0.0,0.0,0.0,0.0,0.0,0.0,0.0,0.0,0.0,0.0,0.0,0.0,0.0,0.0,0.0,0.0,0.0,0.0,0.0,0.0,0.0,0.0,0.0,0.0,0.0,0.0,0.0,0.0,0.0,0.0,0.0,0.0,0.0,0.0,0.0,0.0,0.0,0.0,0.0,0.0,0.0,0.0,0.0,0.0,0.0,0.0,0.0,0.0,0.0,0.0,0.0,0.0,0.0,0.0,0.0,0.0,0.0,0.0,0.0,0.0,-0.9231,-1.0182,-1.1436,0.0,0.0,0.0,0.0,0.0,0.0,0.0,0.0,0.0,0.0,0.0,0.0,0.0,0.0,0.0,0.0,0.0,0.0,0.0,0.0,0.0,0.0,0.0,0.0,0.0,0.0,0.0,0.0,0.0,0.0,0.0,0.0,0.0,0.0,0.0,0.0,0.0,0.0,0.0,0.0,0.0,0.0,0.0,0.0,0.0,0.0,0.0,0.0,0.0,0.0,0.0,0.0,0.0,0.0,0.0,0.0,0.0,0.0,0.0,0.0,0.0,0.0,0.0,0.0,0.0,0.0,0.0,0.0,0.0,0.0,0.0,0.0,0.0,0.0,0.0,0.0,0.0,0.0,0.0,0.0,0.0,0.0,0.0,0.0,0.0,0.0,0.0,0.0,0.0,0.0,0.0,0.0,0.0,0.0,0.0,0.0,0.0,0.0,0.0,0.0,0.0,0.0,0.0,0.0,0.0,0.0,0.0,0.0,0.0,0.0,-0.7543,-0.8805,-0.9351,0.0,-1.1918,0.0,0.0,0.0,0.0,0.0,0.0,0.0,0.0,0.0,0.0,0.0,0.0,0.0,0.0,0.0,0.0,0.0,0.0,0.0,0.0,0.0,0.0,0.0,0.0,0.0,0.0,0.0,0.0,0.0,0.0,0.0,0.0,0.0,0.0,0.0,0.0,0.0,0.0,0.0,0.0,0.0,0.0,0.0,0.0,0.0,0.0,0.0,0.0,0.0,0.0,0.0,0.0,0.0,0.0,0.0,0.0,0.0,0.0,0.0,0.0,0.0,0.0,0.0,0.0,0.0,0.0,0.0,0.0,0.0,0.0,0.0,0.0,0.0,0.0,0.0,0.0,0.0,0.0,0.0,0.0,0.0,0.0,0.0,0.0,0.0,0.0,0.0,0.0,0.0,0.0,0.0,0.0,0.0,0.0,0.0,0.0,0.0,0.0,0.0,0.0,0.0,0.0,0.0,0.0,0.0,0.0,0.0,0.0,0.0,0.0,-0.7561,-0.8682,-1.0128,-1.1437,0.0,0.0,0.0,0.0,0.0,0.0,0.0,0.0,0.0,0.0,0.0,0.0,0.0,0.0,0.0,0.0,0.0,0.0,0.0,0.0,0.0,0.0,0.0,0.0,0.0,0.0,0.0,0.0,0.0,0.0,0.0,0.0,0.0,0.0,0.0,0.0,0.0,0.0,0.0,0.0,0.0,0.0,0.0,0.0,0.0,0.0,0.0,0.0,0.0,0.0,0.0,0.0,0.0,0.0,0.0,0.0,0.0,0.0,0.0,0.0,0.0,0.0,0.0,0.0,0.0,0.0,0.0,0.0,0.0,0.0,0.0,0.0,0.0,0.0,0.0,0.0,0.0,0.0,0.0,0.0,0.0,0.0,0.0,0.0,0.0,0.0,0.0,0.0,0.0,0.0,0.0,0.0,0.0,0.0,0.0,0.0,0.0,0.0,0.0,0.0,0.0,0.0,0.0,0.0,0.0,0.0,0.0,0.0,0.0,0.0,-0.6572,-0.7664,-0.8857,-1.083,-1.2061,-1.2374,0.0,0.0,0.0,0.0,0.0,0.0,0.0,0.0,0.0,0.0,0.0,0.0,0.0,0.0,0.0,0.0,0.0,0.0,0.0,0.0,0.0,0.0,0.0,0.0,0.0,0.0,0.0,0.0,0.0,0.0,0.0,0.0,0.0,0.0,0.0,0.0,0.0,0.0,0.0,0.0,0.0,0.0,0.0,0.0,0.0,0.0,0.0,0.0,0.0,0.0,0.0,0.0,0.0,0.0,0.0,0.0,0.0,0.0,0.0,0.0,0.0,0.0,0.0,0.0,0.0,0.0,0.0,0.0,0.0,0.0,0.0,0.0,0.0,0.0,0.0,0.0,0.0,0.0,0.0,0.0,0.0,0.0,0.0,0.0,0.0,0.0,0.0,0.0,0.0,0.0,0.0,0.0,0.0,0.0,0.0,0.0,0.0,0.0,0.0,0.0,0.0,0.0,0.0,0.0,0.0,0.0,0.0,0.0,0.0,-0.675,-0.7824,-0.933,-1.1122,-1.1814,0.0,0.0,0.0,0.0,0.0,0.0,0.0,0.0,0.0,0.0,0.0,0.0,0.0,0.0,0.0,0.0,0.0,0.0,0.0,0.0,0.0,0.0,0.0,0.0,0.0,0.0,0.0,0.0,0.0,0.0,0.0,0.0,0.0,0.0,0.0,0.0,0.0,0.0,0.0,0.0,0.0,0.0,0.0,0.0,0.0,0.0,0.0,0.0,0.0,0.0,0.0,0.0,0.0,0.0,0.0,0.0,0.0,0.0,0.0,0.0,0.0,0.0,0.0,0.0,0.0,0.0,0.0,0.0,0.0,0.0,0.0,0.0,0.0,0.0,0.0,0.0,0.0,0.0,0.0,0.0,0.0,0.0,0.0,0.0,0.0,0.0,0.0,0.0,0.0,0.0,0.0,0.0,0.0,0.0,0.0,0.0,0.0,0.0,0.0,0.0,0.0,0.0,0.0,0.0,0.0,0.0,0.0,0.0,0.0,-0.5924,-0.7211,-0.8498,-0.9639,-1.0661,-1.1216,0.0,0.0,0.0,0.0,0.0,0.0,0.0,0.0,0.0,0.0,0.0,0.0,0.0,0.0,0.0,0.0,0.0,0.0,0.0,0.0,0.0,0.0,0.0,0.0,0.0,0.0,0.0,0.0,0.0,0.0,0.0,0.0,0.0,0.0,0.0,0.0,0.0,0.0,0.0,0.0,0.0,0.0,0.0,0.0,0.0,0.0,0.0,0.0,0.0,0.0,0.0,0.0,0.0,0.0,0.0,0.0,0.0,0.0,0.0,0.0,0.0,0.0,0.0,0.0,0.0,0.0,0.0,0.0,0.0,0.0,0.0,0.0,0.0,0.0,0.0,0.0,0.0,0.0,0.0,0.0,0.0,0.0,0.0,0.0,0.0,0.0,0.0,0.0,0.0,0.0,0.0,0.0,0.0,0.0,0.0,0.0,0.0,0.0,0.0,0.0,0.0,0.0,0.0,0.0,0.0,0.0,0.0,0.0,0.0,-0.6551,0.0,-0.9108,0.0,-1.0425,-1.0941,0.0,0.0,0.0,0.0,0.0,0.0,0.0,0.0,0.0,0.0,0.0,0.0,0.0,0.0,0.0,0.0,0.0,0.0,0.0,0.0,0.0,0.0,0.0,0.0,0.0,0.0,0.0,0.0,0.0,0.0,0.0,0.0,0.0,0.0,0.0,0.0,0.0,0.0,0.0,0.0,0.0,0.0,0.0,0.0,0.0,0.0,0.0,0.0,0.0,0.0,0.0,0.0,0.0,0.0,0.0,0.0,0.0,0.0,0.0,0.0,0.0,0.0,0.0,0.0,0.0,0.0,0.0,0.0,0.0,0.0,0.0,0.0,0.0,0.0,0.0,0.0,0.0,0.0,0.0,0.0,0.0,0.0,0.0,0.0,0.0,0.0,0.0,0.0,0.0,0.0,0.0,0.0,0.0,0.0,0.0,0.0,0.0,0.0,0.0,0.0,0.0,0.0,0.0,0.0,0.0,0.0,0.0,0.0,-0.6101,-0.796,-0.9085,-0.9748,-0.9729,-1.0684,-1.0941,0.0,0.0,0.0,0.0,0.0,0.0,0.0,0.0,0.0,0.0,0.0,0.0,0.0,0.0,0.0,0.0,0.0,0.0,0.0,0.0,0.0,0.0,0.0,0.0,0.0,0.0,0.0,0.0,0.0,0.0,0.0,0.0,0.0,0.0,0.0,0.0,0.0,0.0,0.0,0.0,0.0,0.0,0.0,0.0,0.0,0.0,0.0,0.0,0.0,0.0,0.0,0.0,0.0,0.0,0.0,0.0,0.0,0.0,0.0,0.0,0.0,0.0,0.0,0.0,0.0,0.0,0.0,0.0,0.0,0.0,0.0,0.0,0.0,0.0,0.0,0.0,0.0,0.0,0.0,0.0,0.0,0.0,0.0,0.0,0.0,0.0,0.0,0.0,0.0,0.0,0.0,0.0,0.0,0.0,0.0,0.0,0.0,0.0,0.0,0.0,0.0,0.0,0.0,0.0,0.0,0.0,0.0,0.0,0.0,-0.8884,-0.9766,-1.032,-1.0551,-1.0546,-1.044,0.0,0.0,0.0,0.0,0.0,0.0,0.0,0.0,0.0,0.0,0.0,0.0,0.0,0.0,0.0,0.0,0.0,0.0,0.0,0.0,0.0,0.0,0.0,0.0,0.0,0.0,0.0,0.0,0.0,0.0,0.0,0.0,0.0,0.0,0.0,0.0,0.0,0.0,0.0,0.0,0.0,0.0,0.0,0.0,0.0,0.0,0.0,0.0,0.0,0.0,0.0,0.0,0.0,0.0,0.0,0.0,0.0,0.0,0.0,0.0,0.0,0.0,0.0,0.0,0.0,0.0,0.0,0.0,0.0,0.0,0.0,0.0,0.0,0.0,0.0,0.0,0.0,0.0,0.0,0.0,0.0,0.0,0.0,0.0,0.0,0.0,0.0,0.0,0.0,0.0,0.0,0.0,0.0,0.0,0.0,0.0,0.0,0.0,0.0,0.0,0.0,0.0,0.0,0.0,0.0,0.0,0.0,0.0,0.0,-1.1109,-1.1464,-1.1703,-1.1809,-1.1465,-1.1085,-1.0692,0.0,0.0,0.0,0.0,0.0,0.0,0.0,0.0,0.0,0.0,0.0,0.0,0.0,0.0,0.0,0.0,0.0,0.0,0.0,0.0,0.0,0.0,0.0,0.0,0.0,0.0,0.0,0.0,0.0,0.0,0.0,0.0,0.0,0.0,0.0,0.0,0.0,0.0,0.0,0.0,0.0,0.0,0.0,0.0,0.0,0.0,0.0,0.0,0.0,0.0,0.0,0.0,0.0,0.0,0.0,0.0,0.0,0.0,0.0,0.0,0.0,0.0,0.0,0.0,0.0,0.0,0.0,0.0,0.0,0.0,0.0,0.0,0.0,0.0,0.0,0.0,0.0,0.0,0.0,0.0,0.0,0.0,0.0,0.0,0.0,0.0,0.0,0.0,0.0,0.0,0.0,0.0,0.0,0.0,0.0,0.0,0.0,0.0,0.0,0.0,0.0,0.0,0.0,0.0,0.0,0.0,0.0,0.0,-1.4267,-1.403,-1.3812,-1.358,-1.3233,-1.2611,0.0,0.0,0.0,0.0,0.0,0.0,0.0,0.0,0.0,0.0,0.0,0.0,0.0,0.0,0.0,0.0,0.0,0.0,0.0,0.0,0.0,0.0,0.0,0.0,0.0,0.0,0.0,0.0,0.0,0.0,0.0,0.0,0.0,0.0,0.0,0.0,0.0,0.0,0.0,0.0,0.0,0.0,0.0,0.0,0.0,0.0,0.0,0.0,0.0,0.0,0.0,0.0,0.0,0.0,0.0,0.0,0.0,0.0,0.0,0.0,0.0,0.0,0.0,0.0,0.0,0.0,0.0,0.0,0.0,0.0,0.0,0.0,0.0,0.0,0.0,0.0,0.0,0.0,0.0,0.0,0.0,0.0,0.0,0.0,0.0,0.0,0.0,0.0,0.0,0.0,0.0,0.0,0.0,0.0,0.0,0.0,0.0,0.0,0.0,0.0,0.0,0.0,0.0,0.0,0.0,0.0,0.0,0.0,0.0,-1.5478,-1.6664,-1.6758,-1.573,-1.5019,-1.4134,0.0,0.0,0.0,0.0,0.0,0.0,0.0,0.0,0.0,0.0,0.0,0.0,0.0,0.0,0.0,0.0,0.0,0.0,0.0,0.0,0.0,0.0,0.0,0.0,0.0,0.0,0.0,0.0,0.0,0.0,0.0,0.0,0.0,0.0,0.0,0.0,0.0,0.0,0.0,0.0,0.0,0.0,0.0,0.0,0.0,0.0,0.0,0.0,0.0,0.0,0.0,0.0,0.0,0.0,0.0,0.0,0.0,0.0,0.0,0.0,0.0,0.0,0.0,0.0,0.0,0.0,0.0,0.0,0.0,0.0,0.0,0.0,0.0,0.0,0.0,0.0,0.0,0.0,0.0,0.0,0.0,0.0,0.0,0.0,0.0,0.0,0.0,0.0,0.0,0.0,0.0,0.0,0.0,0.0,0.0,0.0,0.0,0.0,0.0,0.0,0.0,0.0,0.0,0.0,0.0,0.0,0.0,0.0,-1.4249,-1.6663,-1.8803,-1.9343,-1.8395,-1.6938,-1.5494,0.0,0.0,0.0,0.0,0.0,0.0,0.0,0.0,0.0,0.0,0.0,0.0,0.0,0.0,0.0,0.0,0.0,0.0,0.0,0.0,0.0,0.0,0.0,0.0,0.0,0.0,0.0,0.0,0.0,0.0,0.0,0.0,0.0,0.0,0.0,0.0,0.0,0.0,0.0,0.0,0.0,0.0,0.0,0.0,0.0,0.0,0.0,0.0,0.0,0.0,0.0,0.0,0.0,0.0,0.0,0.0,0.0,0.0,0.0,0.0,0.0,0.0,0.0,0.0,0.0,0.0,0.0,0.0,0.0,0.0,0.0,0.0,0.0,0.0,0.0,0.0,0.0,0.0,0.0,0.0,0.0,0.0,0.0,0.0,0.0,0.0,0.0,0.0,0.0,0.0,0.0,0.0,0.0,0.0,0.0,0.0,0.0,0.0,0.0,0.0,0.0,0.0,0.0,0.0,0.0,0.0,0.0,0.0,-1.5484,-1.7942,-2.0472,-2.1592,-2.1074,-1.8753,-1.6718,0.0,0.0,0.0,0.0,0.0,0.0,0.0,0.0,0.0,0.0,0.0,0.0,0.0,0.0,0.0,0.0,0.0,0.0,0.0,0.0,0.0,0.0,0.0,0.0,0.0,0.0,0.0,0.0,0.0,0.0,0.0,0.0,0.0,0.0,0.0,0.0,0.0,0.0,0.0,0.0,0.0,0.0,0.0,0.0,0.0,0.0,0.0,0.0,0.0,0.0,0.0,0.0,0.0,0.0,0.0,0.0,0.0,0.0,0.0,0.0,0.0,0.0,0.0,0.0,0.0,0.0,0.0,0.0,0.0,0.0,0.0,0.0,0.0,0.0,0.0,0.0,0.0,0.0,0.0,0.0,0.0,0.0,0.0,0.0,0.0,0.0,0.0,0.0,0.0,0.0,0.0,0.0,0.0,0.0,0.0,0.0,0.0,0.0,0.0,0.0,0.0,0.0,0.0,0.0,0.0,0.0,0.0,0.0,-1.7036,-1.9189,-2.1255,-2.2078,-2.1448,-1.9564,-1.7888,0.0,0.0,0.0,0.0,0.0,0.0,0.0,0.0,0.0,0.0,0.0,0.0,0.0,0.0,0.0,0.0,0.0,0.0,0.0,0.0,0.0,0.0,0.0,0.0,0.0,0.0,0.0,0.0,0.0,0.0,0.0,0.0,0.0,0.0,0.0,0.0,0.0,0.0,0.0,0.0,0.0,0.0,0.0,0.0,0.0,0.0,0.0,0.0,-1.5669,0.0,0.0,0.0,0.0,0.0,0.0,0.0,0.0,0.0,0.0,0.0,0.0,0.0,0.0,0.0,0.0,0.0,0.0,0.0,0.0,0.0,0.0,0.0,0.0,0.0,0.0,0.0,0.0,0.0,0.0,0.0,0.0,0.0,0.0,0.0,0.0,0.0,0.0,0.0,0.0,0.0,0.0,0.0,0.0,0.0,0.0,0.0,0.0,0.0,0.0,0.0,0.0,0.0,0.0,0.0,0.0,0.0,0.0,0.0,-1.9067,-2.0714,-2.2559,-2.324,-2.2688,-2.0901,-1.9034,0.0,0.0,0.0,0.0,0.0,0.0,0.0,0.0,0.0,0.0,0.0,0.0,0.0,0.0,0.0,0.0,0.0,0.0,0.0,0.0,0.0,0.0,0.0,0.0,0.0,0.0,0.0,0.0,0.0,0.0,0.0,0.0,0.0,0.0,0.0,0.0,0.0,0.0,0.0,0.0,0.0,0.0,0.0,0.0,0.0,0.0,0.0,0.0,0.0,0.0,0.0,0.0,0.0,0.0,0.0,0.0,0.0,0.0,0.0,0.0,0.0,0.0,0.0,0.0,0.0,0.0,0.0,0.0,0.0,0.0,0.0,0.0,0.0,0.0,0.0,0.0,0.0,0.0,0.0,0.0,0.0,0.0,0.0,0.0,0.0,0.0,0.0,0.0,0.0,0.0,0.0,0.0,0.0,0.0,0.0,0.0,0.0,0.0,0.0,0.0,0.0,0.0,0.0,0.0,0.0,0.0,0.0,-1.8354,-2.1046,-2.2146,-2.385,-2.4483,-2.4024,-2.2118,-2.0006,-1.7631,0.0,0.0,0.0,0.0,0.0,0.0,0.0,0.0,0.0,0.0,0.0,0.0,0.0,0.0,0.0,0.0,0.0,0.0,0.0,0.0,0.0,0.0,0.0,0.0,0.0,0.0,0.0,0.0,0.0,0.0,0.0,0.0,0.0,0.0,0.0,0.0,0.0,0.0,-1.2048,-1.3964,0.0,0.0,0.0,0.0,0.0,0.0,0.0,0.0,-1.4475,0.0,0.0,0.0,0.0,0.0,0.0,0.0,0.0,0.0,0.0,0.0,0.0,0.0,0.0,0.0,0.0,0.0,0.0,0.0,0.0,0.0,0.0,0.0,0.0,0.0,0.0,0.0,0.0,0.0,0.0,0.0,0.0,0.0,0.0,0.0,0.0,0.0,0.0,0.0,0.0,0.0,0.0,0.0,0.0,0.0,0.0,0.0,0.0,0.0,0.0,0.0,0.0,0.0,0.0,0.0,0.0,-1.5871,-1.9762,-2.2323,-2.3304,-2.4468,-2.4762,-2.4244,-2.2185,-2.0295,-1.8596,0.0,0.0,0.0,0.0,0.0,0.0,0.0,0.0,0.0,0.0,0.0,0.0,0.0,0.0,0.0,0.0,0.0,0.0,0.0,0.0,0.0,0.0,0.0,0.0,0.0,0.0,0.0,0.0,0.0,0.0,0.0,0.0,0.0,0.0,0.0,0.0,0.0,0.0,0.0,-1.6606,-1.8089,0.0,0.0,0.0,0.0,0.0,0.0,0.0,0.0,-1.4328,0.0,0.0,0.0,0.0,0.0,0.0,0.0,0.0,0.0,0.0,0.0,0.0,0.0,0.0,0.0,0.0,0.0,0.0,0.0,0.0,0.0,0.0,0.0,0.0,0.0,0.0,0.0,0.0,0.0,0.0,0.0,0.0,0.0,0.0,0.0,0.0,0.0,0.0,0.0,0.0,0.0,0.0,0.0,0.0,0.0,0.0,0.0,0.0,0.0,0.0,0.0,0.0,0.0,0.0,0.0,-1.8222,-2.1897,-2.3974,-2.4424,-2.498,-2.5017,-2.4273,-2.2391,-2.0601,0.0,0.0,0.0,0.0,0.0,0.0,0.0,0.0,0.0,0.0,0.0,0.0,0.0,0.0,0.0,0.0,0.0,0.0,0.0,0.0,0.0,0.0,0.0,0.0,0.0,0.0,0.0,0.0,0.0,0.0,0.0,0.0,0.0,0.0,0.0,0.0,0.0,0.0,0.0,0.0,-1.9168,-2.0868,-2.0234,0.0,0.0,0.0,0.0,0.0,0.0,-1.5004,-1.4597,0.0,0.0,0.0,0.0,0.0,0.0,0.0,0.0,0.0,0.0,0.0,0.0,0.0,0.0,0.0,0.0,0.0,0.0,0.0,0.0,0.0,0.0,0.0,0.0,0.0,0.0,0.0,0.0,0.0,0.0,0.0,0.0,0.0,0.0,0.0,0.0,0.0,0.0,0.0,0.0,0.0,0.0,0.0,0.0,0.0,0.0,0.0,0.0,0.0,0.0,0.0,0.0,0.0,0.0,0.0,-1.9937,-2.3529,-2.5243,-2.518,-2.5278,-2.5017,-2.4368,-2.2621,-2.0812,0.0,0.0,0.0,0.0,0.0,0.0,0.0,0.0,0.0,0.0,0.0,0.0,0.0,0.0,0.0,0.0,0.0,0.0,0.0,0.0,0.0,0.0,0.0,0.0,0.0,0.0,0.0,0.0,0.0,0.0,0.0,0.0,0.0,0.0,0.0,0.0,0.0,0.0,0.0,0.0,0.0,-2.3159,-2.1986,-2.2112,0.0,0.0,0.0,0.0,-1.5695,-1.6077,0.0,0.0,0.0,0.0,0.0,0.0,0.0,0.0,0.0,0.0,0.0,0.0,0.0,0.0,0.0,0.0,0.0,0.0,0.0,0.0,0.0,0.0,0.0,0.0,0.0,0.0,0.0,0.0,0.0,0.0,0.0,0.0,0.0,0.0,0.0,0.0,0.0,0.0,0.0,0.0,0.0,0.0,0.0,0.0,0.0,0.0,0.0,0.0,0.0,0.0,0.0,0.0,0.0,0.0,0.0,0.0,-2.0169,-2.334,-2.5159,-2.5555,-2.5051,-2.4778,-2.4941,-2.2843,-2.0888,0.0,0.0,0.0,0.0,0.0,0.0,0.0,0.0,0.0,0.0,0.0,0.0,0.0,0.0,0.0,0.0,0.0,0.0,0.0,0.0,0.0,0.0,0.0,0.0,0.0,0.0,0.0,0.0,0.0,0.0,0.0,0.0,0.0,0.0,0.0,0.0,0.0,0.0,0.0,0.0,0.0,-2.4,-2.3344,-2.354,-2.3194,0.0,0.0,-1.9012,-2.0146,-2.0297,0.0,0.0,0.0,0.0,0.0,0.0,0.0,0.0,0.0,0.0,0.0,0.0,0.0,0.0,0.0,0.0,0.0,0.0,0.0,0.0,0.0,0.0,0.0,0.0,0.0,0.0,0.0,0.0,0.0,0.0,0.0,0.0,0.0,0.0,0.0,0.0,0.0,0.0,0.0,0.0,0.0,0.0,0.0,0.0,0.0,0.0,0.0,0.0,0.0,0.0,0.0,0.0,0.0,0.0,0.0,-1.8282,-2.0873,-2.3582,-2.5021,-2.5351,-2.4778,-2.454,-2.4479,-2.3255,-2.1485,0.0,0.0,0.0,0.0,0.0,0.0,0.0,0.0,0.0,0.0,0.0,0.0,0.0,0.0,0.0,0.0,0.0,0.0,0.0,0.0,0.0,0.0,0.0,0.0,0.0,0.0,0.0,0.0,0.0,0.0,0.0,0.0,0.0,0.0,0.0,0.0,0.0,0.0,0.0,0.0,0.0,0.0,-2.4797,-2.5541,0.0,0.0,0.0,-2.2676,-2.359,0.0,0.0,0.0,0.0,0.0,0.0,0.0,0.0,0.0,0.0,0.0,0.0,0.0,0.0,0.0,0.0,0.0,0.0,0.0,0.0,0.0,0.0,0.0,0.0,0.0,0.0,0.0,0.0,0.0,0.0,0.0,0.0,0.0,0.0,0.0,0.0,0.0,0.0,0.0,0.0,0.0,0.0,0.0,0.0,0.0,0.0,0.0,0.0,0.0,0.0,0.0,0.0,0.0,0.0,0.0,0.0,0.0,-2.12,-2.3617,-2.5082,-2.521,-2.4951,-2.4547,-2.4278,-2.3738,0.0,0.0,0.0,0.0,0.0,0.0,0.0,0.0,0.0,0.0,0.0,0.0,0.0,0.0,0.0,0.0,0.0,0.0,0.0,0.0,0.0,0.0,0.0,0.0,0.0,0.0,0.0,-1.0633,0.0,0.0,0.0,0.0,0.0,0.0,0.0,0.0,0.0,0.0,0.0,0.0,0.0,0.0,-2.7051,-2.6909,-2.8017,-2.8323,0.0,0.0,-2.6534,-2.6894,-2.8465,-2.8259,0.0,0.0,0.0,0.0,0.0,0.0,0.0,0.0,0.0,0.0,0.0,0.0,0.0,0.0,0.0,0.0,0.0,0.0,0.0,0.0,0.0,0.0,0.0,0.0,0.0,0.0,0.0,0.0,0.0,0.0,0.0,0.0,0.0,0.0,0.0,0.0,0.0,0.0,0.0,0.0,0.0,0.0,0.0,0.0,0.0,0.0,0.0,0.0,0.0,0.0,0.0,0.0,0.0,0.0,0.0,-2.0759,-2.352,-2.5206,-2.5488,-2.5187,-2.4928,-2.4808,-2.4503,-2.293,0.0,0.0,0.0,0.0,0.0,0.0,0.0,0.0,0.0,0.0,0.0,0.0,0.0,0.0,0.0,0.0,0.0,0.0,0.0,0.0,0.0,0.0,0.0,0.0,0.0,0.0,0.0,0.0,0.0,0.0,0.0,0.0,0.0,0.0,0.0,0.0,0.0,0.0,0.0,0.0,0.0,-3.0216,-3.0238,-3.1321,-3.1844,0.0,-3.0758,-3.0434,-3.0328,-3.0654,-2.9689,-2.5894,0.0,0.0,0.0,0.0,0.0,0.0,0.0,0.0,0.0,0.0,0.0,0.0,0.0,0.0,0.0,0.0,0.0,0.0,0.0,0.0,0.0,0.0,0.0,0.0,0.0,0.0,0.0,0.0,0.0,0.0,0.0,0.0,0.0,0.0,0.0,0.0,0.0,0.0,0.0,0.0,0.0,0.0,0.0,0.0,0.0,0.0,0.0,0.0,0.0,0.0,0.0,0.0,0.0,-1.7474,-2.0158,-2.3209,-2.4875,-2.5226,-2.4999,-2.4859,-2.4808,-2.4429,-2.3026,0.0,0.0,0.0,0.0,0.0,0.0,0.0,0.0,0.0,0.0,0.0,0.0,0.0,0.0,0.0,0.0,0.0,0.0,0.0,0.0,0.0,0.0,0.0,0.0,0.0,0.0,0.0,0.0,-1.3796,-1.4681,-1.5683,0.0,0.0,0.0,0.0,0.0,0.0,0.0,0.0,0.0,0.0,-3.6357,-3.4302,-3.5219,0.0,0.0,-3.5904,-3.5737,-3.4291,-3.3983,-3.2204,-2.7488,-2.3083,0.0,0.0,0.0,0.0,0.0,0.0,0.0,0.0,0.0,0.0,0.0,0.0,0.0,0.0,0.0,0.0,0.0,0.0,0.0,0.0,0.0,0.0,0.0,0.0,0.0,0.0,0.0,0.0,0.0,0.0,0.0,0.0,0.0,0.0,0.0,0.0,0.0,0.0,0.0,0.0,0.0,0.0,0.0,0.0,0.0,0.0,0.0,0.0,0.0,0.0,0.0,0.0,-1.7041,-1.9642,-2.2859,-2.4743,-2.498,-2.4843,-2.4875,-2.4976,-2.4723,-2.345,0.0,0.0,0.0,0.0,0.0,0.0,0.0,0.0,0.0,0.0,0.0,0.0,0.0,0.0,0.0,0.0,0.0,0.0,0.0,0.0,0.0,0.0,0.0,0.0,0.0,0.0,0.0,0.0,-1.5234,-1.617,-1.7036,0.0,0.0,0.0,0.0,0.0,0.0,0.0,0.0,0.0,0.0,-3.9049,-3.7236,-3.8335,-3.9237,-3.8999,-3.942,-3.8939,-3.6557,-3.5244,-3.2823,-2.803,0.0,0.0,0.0,0.0,0.0,0.0,0.0,0.0,0.0,0.0,0.0,0.0,0.0,0.0,0.0,0.0,0.0,0.0,0.0,0.0,0.0,0.0,0.0,0.0,0.0,0.0,0.0,0.4461,0.0,0.0,0.3391,0.0,0.0,0.0,0.0,0.0,0.0,0.0,0.0,0.0,0.0,0.0,0.0,0.0,0.0,0.0,0.0,0.0,0.0,0.0,0.0,0.0,0.0,-1.6989,-1.9138,-2.2726,-2.4595,-2.4626,-2.4937,-2.5226,-2.5344,-2.538,-2.4227,-2.1933,0.0,0.0,0.0,0.0,0.0,0.0,0.0,0.0,0.0,0.0,0.0,0.0,0.0,0.0,0.0,0.0,0.0,0.0,0.0,0.0,0.0,0.0,0.0,0.0,0.0,0.0,-1.5313,-1.5367,-1.5977,0.0,0.0,0.0,0.0,0.0,0.0,0.0,0.0,0.0,0.0,-3.3632,-3.7074,-3.8635,-4.0266,-4.1377,-4.1266,-4.0669,-3.9171,-3.6357,-3.3783,-3.0891,0.0,0.0,0.0,0.0,0.0,0.0,0.0,0.0,0.0,0.0,0.0,0.0,0.0,0.0,0.0,0.0,0.0,0.0,0.0,0.0,0.0,0.0,0.0,0.0,0.0,0.0,0.0,0.4494,0.4204,0.0,0.0,0.0,0.0,0.0,0.0,0.0,0.0,0.0,0.0,0.0,-1.0817,-1.165,0.0,0.0,0.0,0.0,0.0,0.0,0.0,0.0,0.0,0.0,0.0,0.0,-1.682,-1.9153,-2.2273,-2.3976,-2.4239,-2.458,-2.4865,-2.5127,-2.5155,-2.3899,-2.1307,0.0,0.0,0.0,0.0,0.0,0.0,0.0,0.0,0.0,0.0,0.0,0.0,0.0,0.0,0.0,0.0,0.0,0.0,0.0,0.0,0.0,0.0,0.0,0.0,0.0,-1.719,0.0,0.0,0.0,0.0,0.0,0.0,0.0,0.0,0.0,0.0,0.0,-2.7173,-3.0843,-3.4425,-3.7325,-3.9098,-4.1945,-4.3348,0.0,0.0,0.0,0.0,0.0,0.0,0.0,0.0,0.0,0.0,0.0,0.0,0.0,0.0,-2.9683,-2.782,-2.6441,-2.5311,-2.4463,0.0,0.0,0.0,0.0,0.0,0.0,0.0,0.0,0.0,0.0,0.0,0.0,0.0,0.0,0.4367,0.0,0.268,0.0,0.0,0.0,0.0,0.0,0.0,0.0,0.0,-1.125,-1.2788,-1.353,-1.4429,-1.4505,0.0,-1.3187,-1.199,0.0,0.0,0.0,0.0,0.0,0.0,0.0,0.0,-1.6908,-1.9103,-2.2098,-2.3852,-2.4224,-2.4579,-2.5044,-2.5512,-2.5501,-2.4234,-2.181,-2.0236,-1.855,0.0,0.0,0.0,0.0,0.0,0.0,0.0,0.0,0.0,0.0,0.0,0.0,0.0,0.0,0.0,0.0,0.0,0.0,0.0,0.0,0.0,0.0,0.0,-1.8447,0.0,0.0,0.0,0.0,0.0,0.0,0.0,0.0,0.0,-2.5955,-2.7764,-3.0182,-3.3313,-3.6135,-3.8492,-4.0045,0.0,0.0,0.0,0.0,0.0,0.0,0.0,-3.0454,-3.0038,-2.8939,-2.8866,-3.1102,-3.3014,-3.4434,-3.4909,0.0,0.0,-3.2173,-3.0297,-2.8892,-2.8111,-2.7354,-2.7031,-2.7676,-2.8746,-2.9757,0.0,0.0,0.0,0.0,0.0,0.0,0.0,0.0,0.4829,0.43,0.0,0.2084,0.0,0.0,0.0,0.0,0.0,-0.6549,0.0,0.0,-1.3869,-1.5829,-1.6891,-1.7744,-1.7521,-1.6354,-1.5515,-1.4431,-1.3005,-1.102,0.0,0.0,0.0,0.0,0.0,0.0,-1.7437,-1.9099,-2.2068,-2.3837,-2.461,-2.4964,-2.5748,-2.6876,-2.643,-2.5366,-2.3591,-2.3069,-2.1831,-1.9764,-1.9832,0.0,0.0,0.0,0.0,0.0,0.0,0.0,0.0,0.0,0.0,0.0,0.0,0.0,0.0,0.0,0.0,0.0,0.0,0.0,0.0,-1.9712,0.0,0.0,0.0,0.0,0.0,0.0,0.0,0.0,0.0,0.0,-3.0432,-3.2008,-3.3979,-3.6398,0.0,0.0,0.0,0.0,-4.3955,-4.3851,-4.3757,-4.2914,-4.0504,-3.7279,-3.5026,-3.5061,0.0,0.0,-3.884,-3.9257,-3.9431,-4.0225,-3.9528,-3.8167,-3.6046,-3.3679,-3.1789,-3.0741,-3.0069,-2.9862,-3.0389,-3.1669,-3.2914,2.3014,0.0,0.0,0.0,0.0,0.9556,0.8233,0.6468,0.5796,0.4475,0.2609,0.1261,0.0,0.0,0.0,0.0,0.0,0.0,-0.8645,-1.0609,-1.3448,-1.5129,-1.5849,-1.6764,-1.6887,-1.6339,-1.5391,-1.464,-1.3884,-1.294,-1.1747,-1.0574,0.0,0.0,0.0,0.0,-1.7244,-1.9313,-2.195,-2.3718,-2.461,-2.5806,-2.6935,-2.8044,-2.7516,-2.6972,-2.6398,-2.5201,-2.4169,-2.3382,-2.2461,0.0,0.0,0.0,0.0,0.0,0.0,0.0,0.0,0.0,0.0,0.0,0.0,0.0,0.0,0.0,0.0,0.0,0.0,0.0,-2.0874,-2.1401,-2.1574,0.0,0.0,0.0,0.0,0.0,0.0,0.0,0.0,0.0,-3.6675,-3.5886,-3.5752,0.0,0.0,-4.1985,-4.2596,-4.4196,-4.4936,-4.3764,-4.3748,0.0,-4.0961,-3.8706,-3.7579,-3.8796,-4.0893,-4.3396,-4.6184,-4.6236,-4.5527,-4.4578,-4.3361,-4.176,-3.9405,-3.6673,-3.4332,-3.2929,-3.2767,-3.3057,-3.318,-3.4276,-3.5484,2.5583,2.0589,1.7848,1.4883,1.1973,1.0763,0.897,0.6828,0.6389,0.4252,0.0823,-0.0223,-0.1372,-0.2598,-0.2843,0.0,0.0,0.0,-0.9124,-1.0308,-1.2847,-1.4394,-1.5226,-1.6222,-1.6413,-1.6084,-1.5346,-1.4808,-1.4711,-1.4272,-1.3809,-1.3236,0.0,0.0,-1.4329,-1.6081,-1.811,-2.0296,-2.2557,-2.4271,-2.5333,-2.6884,-2.8155,-2.8859,-2.847,-2.8033,-2.75,-2.6847,-2.6147,-2.553,-2.4823,-2.3672,0.0,0.0,0.0,0.0,0.0,0.0,0.0,0.0,0.0,0.0,0.0,-1.7258,-1.7232,0.0,0.0,0.0,-2.1093,-2.1953,-2.2154,-2.3493,0.0,0.0,0.0,0.0,0.0,0.0,0.0,-3.321,-3.5473,-3.7923,-4.0759,-4.0766,-4.0666,-4.1076,-4.2996,-4.4448,-4.4601,0.0,-4.5816,-4.5065,-4.4965,-4.4624,-4.3492,-4.197,-4.1477,-4.2828,-4.5026,-4.737,-4.9539,-4.9172,-4.8116,-4.6986,-4.5542,-4.3656,-4.1316,-3.9161,-3.7136,-3.5227,-3.5143,-3.5572,-3.5933,-3.6725,-3.7566,2.6947,2.37,1.9989,1.6529,1.35,1.1826,0.9508,0.6843,0.6545,0.3754,-0.1025,-0.2107,-0.3564,-0.5189,-0.5168,0.0,-0.7834,-0.9349,-1.0134,-1.0198,-1.2306,-1.3813,-1.4796,-1.5923,-1.6315,-1.583,-1.5361,-1.5158,-1.5306,-1.5258,-1.5807,-1.6839,-1.5432,-1.5321,-1.6616,-1.8009,-1.9817,-2.1979,-2.3932,-2.5469,-2.6864,-2.8102,-2.9089,-2.9551,-2.9197,-2.8577,-2.7537,-2.7936,-2.7763,-2.6773,-2.6883,-2.6371,-2.5098,0.0,0.0,0.0,0.0,0.0,0.0,0.0,0.0,0.0,0.0,0.0,0.0,0.0,0.0,0.0,-2.226,0.0,-2.383,-2.591,0.0,0.0,0.0,-2.8556,-2.9729,-3.2182,-3.4451,-3.6243,0.0,0.0,-4.3284,-4.5978,-4.7302,-4.602,-4.6905,-4.7534,-4.7338,-4.7098,-4.6994,-4.7483,-4.7201,-4.7037,-4.6949,-4.6138,-4.5732,-4.6619,-4.7578,-4.8574,-4.9972,-4.9234,-4.8273,-4.781,-4.635,-4.4353,-4.2117,-4.1302,-4.0359,-3.8029,-3.7442,-3.7672,-3.8738,-3.9071,-3.9326,2.7291,2.3667,2.0615,1.7195,1.3837,1.1354,0.8739,0.644,0.6012,0.3369,-0.083,-0.3959,-0.5236,-0.5018,-0.5114,-0.5754,-0.6837,-0.8015,-0.8977,-0.9976,-1.1728,-1.3112,-1.42,-1.4922,-1.5492,-1.5663,-1.5306,-1.5462,-1.6118,-1.6585,-1.7422,-1.8711,-1.8818,-1.8837,-1.8935,-2.0033,-2.1474,-2.3245,-2.5258,-2.7058,-2.8792,-2.9306,-2.9754,-3.0218,-2.9248,-2.853,-2.815,-2.8343,-2.8774,-2.9238,-2.8846,-2.8211,-2.7484,-2.5652,0.0,0.0,0.0,0.0,0.0,0.0,0.0,0.0,0.0,-2.1065,-2.206,0.0,-2.3789,0.0,-2.5207,-2.6652,-2.8455,-2.9222,0.0,0.0,-3.1213,-3.2268,-3.4537,-3.6037,-3.7791,-4.0087,-4.2592,-4.4749,-4.6275,-4.8567,-5.0039,-5.0098,-5.0977,-5.1553,-5.1383,-5.0794,-5.0294,-4.9944,-4.9399,-4.9007,-4.873,-4.8587,-4.8473,-4.8795,-4.9344,-4.9831,-5.0004,-4.9261,-4.8138,-4.6972,-4.6205,-4.495,-4.297,-4.3164,-4.3312,-4.2226,-4.085,-4.0068,-4.087,-4.1207,-4.1198,2.6224,2.3116,1.9601,1.6259,1.2984,1.0798,0.8402,0.5813,0.5899,0.3444,-0.1041,-0.5028,-0.6567,-0.6325,-0.6828,-0.7149,-0.7697,-0.8202,-0.8933,-1.0016,-1.1629,-1.2783,-1.3729,-1.4663,-1.5391,-1.5503,-1.5431,-1.5767,-1.6874,-1.7672,-1.8864,-2.0093,-2.0725,-2.1152,-2.1378,-2.2064,-2.3104,-2.4532,-2.6579,-2.8303,-2.9792,-2.953,-2.985,-3.0589,-2.9271,-2.8271,-2.8,-2.8426,-2.9046,-2.9729,-2.9812,-2.9728,-2.9172,-2.7394,-2.512,0.0,0.0,0.0,0.0,0.0,0.0,0.0,0.0,0.0,0.0,0.0,-2.698,-2.7478,-2.8544,-2.9892,-3.1539,-3.261,-3.3597,-3.4531,-3.5227,-3.6266,-3.78,-3.8869,-4.0393,-4.2828,-4.5015,-4.6995,-4.8716,-5.0548,-5.1731,-5.1855,-5.2164,-5.2371,-5.2417,-5.171,-5.1081,-5.0923,-5.0134,-4.9447,-4.916,-4.9163,-4.9229,-4.929,-4.9649,-4.986,-4.9591,-4.9124,-4.8395,-4.7278,-4.6925,-4.6392,-4.4824,-4.5105,-4.5616,-4.5271,-4.4436,-4.35,-4.2857,-4.2314,-4.1744,2.4158,2.159,1.8012,1.4426,1.1445,1.0226,0.7999,0.5117,0.5425,0.2691,-0.2193,-0.5742,-0.7557,-0.8136,-0.8944,-0.9292,-0.9187,-0.9165,-0.9521,-1.0254,-1.1617,-1.2733,-1.3593,-1.5109,-1.5747,-1.5757,-1.5669,-1.6286,-1.7467,-1.8739,-1.9992,-2.1236,-2.1866,-2.2708,-2.3745,-2.3946,-2.4702,-2.6117,-2.7899,-2.9221,-2.9941,-2.9333,-2.9642,-3.0717,-2.9106,-2.7905,-2.742,-2.8202,-2.8858,-2.9298,-3.0335,-3.0785,-3.0526,-2.8935,-2.7148,0.0,-2.5046,0.0,0.0,0.0,0.0,0.0,0.0,0.0,0.0,-2.9996,-3.0341,-3.1078,-3.2238,-3.3241,-3.4147,-3.6049,-3.735,-3.7697,-3.8915,-3.9849,-4.0189,-4.0923,-4.231,-4.4727,-4.6393,-4.8162,-5.0167,-5.1784,-5.2499,-5.2054,-5.1593,-5.1479,-5.1615,-5.1052,-5.0586,-5.0805,-4.9791,-4.9011,-4.8809,-4.8827,-4.8798,-4.8798,-4.9046,-4.9188,-4.8743,-4.8697,-4.8508,-4.7975,-4.7863,-4.7721,-4.6904,-4.7249,-4.7639,-4.7844,-4.7623,-4.6747,-4.4855,-4.3479,-4.2398,2.2031,1.8799,1.6427,1.3003,0.9361,0.8738,0.708,0.5016,0.2698,-0.0937,-0.555,-0.6929,-0.7773,-0.8429,-0.9268,-0.9466,-0.9335,-0.9228,-0.9745,-1.0885,-1.1931,-1.3128,-1.462,-1.5856,-1.6532,-1.6772,-1.7131,-1.772,-1.8635,-1.9693,-2.0836,-2.1925,-2.2566,-2.3548,-2.4743,0.0,0.0,0.0,-2.8776,-2.9103,-2.8939,-2.8882,-2.91,-2.9536,-2.845,0.0,-2.6562,-2.7552,-2.8733,-2.9783,-3.0416,0.0,0.0,0.0,0.0,0.0,0.0,0.0,0.0,0.0,0.0,0.0,-3.7697,-3.6997,-3.5165,-3.4954,-3.5145,-3.5617,-3.6269,-3.7217,-3.8545,-3.9582,-4.0513,-4.1276,-4.1175,-4.1361,-4.2159,-4.2046,-4.2665,-4.5001,-4.6676,-4.8151,-4.9748,-5.1189,-5.1835,-5.1347,-5.0947,-5.0535,-5.0146,-5.0195,-5.0195,-4.9998,-4.9257,-4.8624,-4.8161,-4.8033,-4.7968,-4.7803,-4.8129,-4.8039,-4.7319,-4.7657,-4.7786,-4.7312,-4.7712,-4.8525,-4.8998,-4.9658,-5.015,-5.0415,-4.9895,-4.8672,-4.6568,-4.5927,-4.5129,2.0273,1.7105,1.4823,1.2087,0.0,0.6984,0.4507,0.1815,0.0481,-0.2662,-0.6907,-0.7677,-0.8346,-0.9079,-0.996,-1.0238,-0.9961,-0.9748,-1.0236,-1.1547,-1.2824,-1.4148,-1.5798,-1.7339,-1.8206,-1.8524,-1.8742,-1.9189,-2.0128,-2.0695,-2.1611,-2.2637,-2.3392,-2.4224,-2.5124,-2.6651,-2.8009,-2.9229,-2.9585,-2.993,-3.0227,-2.9915,-3.0142,-3.1023,-2.9434,0.0,0.0,0.0,0.0,0.0,0.0,0.0,0.0,0.0,0.0,-3.1645,-3.2275,-3.3098,-3.409,-3.6408,-3.8815,-4.1171,-4.2523,-4.1931,-3.8903,-3.8857,-3.8961,-3.9014,-3.9921,-4.0877,-4.1647,-4.2597,-4.33,-4.3571,-4.3306,-4.3223,-4.3406,-4.2884,-4.3468,-4.5702,-4.714,-4.8416,-4.977,-5.1144,-5.1546,-5.0749,-5.0146,-4.9629,-4.9188,-4.9393,-4.9512,-4.9127,-4.8606,-4.8065,-4.7704,-4.7571,-4.7571,-4.7504,-4.7836,-4.7761,-4.7133,-4.7728,-4.8223,-4.8164,-4.8989,-5.0048,-5.0975,-5.1686,-5.213,-5.2343,-5.1993,-5.0855,-4.874,-4.7029,-4.5584,1.8641,1.5869,1.3123,1.0907,0.9069,0.5292,0.1333,-0.2157,0.0,0.0,0.0,-0.823,-0.9163,-0.987,-1.0718,-1.0987,-1.0826,-1.0385,-1.0966,-1.2439,-1.3811,-1.5394,-1.7058,-1.8865,-1.9959,-2.0291,-2.0315,-2.0781,-2.159,-2.1947,-2.2557,-2.3444,-2.4408,-2.5203,-2.5814,-2.7538,-2.9066,-3.0085,-3.0393,-3.1064,-3.1941,-3.1479,-3.1808,-3.3212,-3.104,-2.984,-2.9685,-3.0275,-3.083,-3.1324,-3.2911,-3.436,-3.5458,-3.5513,-3.5841,-3.6537,-3.7216,-3.8219,-3.9835,-4.1226,-4.2845,-4.4707,-4.5888,-4.5184,-4.1937,-4.2159,-4.2217,-4.1777,-4.3138,-4.4049,-4.4049,-4.5044,-4.5614,-4.53,-4.5087,-4.4768,-4.4378,-4.3733,-4.4188,-4.6307,-4.7465,-4.86,-4.9796,-5.0929,-5.1304,-5.0241,-4.9428,-4.8664,-4.8256,-4.848,-4.8606,-4.8096,-4.7671,-4.737,-4.7167,-4.7167,-4.7302,-4.7235,-4.7638,-4.7865,-4.7737,-4.8411,-4.9149,-4.9638,-5.0725,-5.192,-5.2992,-5.3571,-5.3894,-5.4029,-5.3768,-5.2978,-5.0971,-4.8085,-4.5885,1.6787,1.3661,1.1482,0.894,0.6068,0.3403,-0.0806,-0.571,-0.5679,-0.6552,-0.7825,-0.9181,-0.9906,-1.0474,-1.1305,-1.1657,-1.1561,-1.1225,-1.1971,-1.3699,-1.4981,-1.645,-1.8127,-2.0126,-2.1034,-2.1266,-2.1781,-2.2356,-2.2879,-2.3563,-2.4209,-2.4794,-2.553,-2.6686,-2.8114,-2.9265,-3.056,-3.1865,-3.1615,-3.1827,-3.2409,-3.2693,-3.3257,-3.4007,-3.2836,-3.1808,-3.1288,-3.173,-3.2172,-3.2609,-3.4176,-3.5615,-3.6781,-3.8494,-3.9625,-4.0089,-4.1896,-4.3526,-4.4542,-4.6455,-4.8161,-4.9496,-4.9826,-4.8424,-4.4863,-4.4905,-4.4938,-4.4331,-4.5439,-4.6044,-4.5754,-4.6418,-4.6828,-4.6679,-4.576,-4.5129,-4.5217,-4.4678,-4.4709,-4.6005,-4.7315,-4.833,-4.904,-4.9868,-5.0045,-4.9135,-4.8413,-4.7901,-4.7033,-4.7134,-4.7337,-4.7167,-4.686,-4.6652,-4.6582,-4.6582,-4.6791,-4.6754,-4.737,-4.7704,-4.7391,-4.8703,-4.9986,-5.0972,-5.2132,-5.3579,-5.515,-5.5586,-5.5426,-5.5316,-5.47,-5.3759,-5.271,-5.0266,-4.776,1.4748,1.1816,1.0324,0.7806,0.4464,-0.0,-0.3713,-0.6868,-0.7723,-0.8306,-0.8948,-1.031,-1.1193,-1.1467,-1.2022,-1.2378,-1.2658,-1.2167,-1.3048,-1.4702,-1.6008,-1.75,-1.9323,-2.1207,-2.229,-2.2848,-2.3078,-2.3738,-2.4535,-2.5016,-2.5548,-2.631,-2.7411,-2.8765,-2.9978,-3.0521,-3.132,-3.2453,-3.2868,-3.3534,-3.4534,-3.4198,-3.4766,-3.609,-3.5035,-3.4078,-3.3363,-3.3553,-3.3938,-3.4657,-3.6315,-3.7842,-3.9189,-4.1041,-4.2523,-4.3631,-4.4297,-4.5897,-4.8522,-4.9781,-5.0506,-5.0645,-5.0574,-4.9604,-4.7315,-4.7019,-4.6735,-4.6343,-4.7038,-4.7147,-4.6544,-4.6887,-4.687,-4.6143,-4.5621,-4.5351,-4.5241,-4.5331,-4.5546,-4.6178,-4.7271,-4.7957,-4.7843,-4.8719,-4.8897,-4.7918,-4.721,-4.6518,-4.5624,-4.5551,-4.5769,-4.6191,-4.6333,-4.6333,-4.6301,-4.6582,-4.6892,-4.7134,-4.7571,-4.79,-4.8015,-4.9291,-5.0522,-5.1633,-5.2938,-5.4313,-5.5738,-5.5984,-5.5957,-5.576,-5.5268,-5.4396,-5.3112,-5.0626,-4.7684,1.2467,0.9698,0.854,0.5877,0.2225,-0.3048,-0.6123,-0.7553,-0.9144,-1.0084,-1.0474,-1.1657,-1.2273,-1.2643,-1.2933,-1.3439,-1.3734,-1.3509,-1.428,-1.6171,-1.7334,-1.8947,-2.0863,-2.2714,-2.3924,-2.4467,-2.4506,-2.5071,-2.6069,-2.6487,-2.7214,-2.8297,-2.9475,-3.0661,-3.152,-3.1914,-3.2515,-3.315,-3.4465,-3.5586,-3.6405,-3.6165,-3.6838,-3.838,-3.7484,-3.6701,-3.6109,-3.6004,-3.6346,-3.718,-3.8688,-4.0142,-4.1501,-4.3215,-4.4883,-4.6442,-4.6431,-4.7773,-5.1035,-5.179,-5.1682,-5.1032,-5.0793,-5.0287,-4.947,-4.8712,-4.8127,-4.7763,-4.7987,-4.78,-4.6952,-4.682,-4.6371,-4.5296,-4.5284,-4.5222,-4.497,-4.5463,-4.5951,-4.6193,-4.6877,-4.7233,-4.6911,-4.749,-4.7525,-4.6487,-4.5821,-4.53,-4.4737,-4.4358,-4.4617,-4.5142,-4.5614,-4.5832,-4.6056,-4.6582,-4.7066,-4.7671,-4.8033,-4.8356,-4.8855,-4.9746,-5.0906,-5.201,-5.3399,-5.4677,-5.558,-5.5937,-5.5981,-5.5775,-5.5301,-5.4534,-5.2816,-5.0407,-4.7456,1.0595,0.7185,0.5173,0.1726,-0.2358,-0.4719,-0.6766,-0.8797,-1.0791,-1.2079,-1.2484,-1.2831,-1.3184,-1.3807,-1.4156,-1.4558,-1.5139,-1.5303,-1.6353,-1.8285,-1.9603,-2.1356,-2.3301,-2.4981,-2.5831,-2.5965,-2.6203,-2.6722,-2.7567,-2.8196,-2.9578,-3.1132,-3.1484,-3.1783,-3.2532,-3.3558,-3.4348,-3.4972,-3.6883,-3.7574,-3.7063,-3.8859,-4.0217,-4.0931,-4.0364,-4.007,-3.9719,-3.9385,-3.9402,-4.0035,-4.0843,-4.1775,-4.29,-4.4919,-4.6703,-4.7844,-4.9127,-5.0509,-5.1733,-5.2106,-5.2166,-5.1795,-5.1542,-5.1191,-5.0871,-5.0071,-4.9125,-4.8308,-4.8354,-4.801,-4.6874,-4.6388,-4.5767,-4.4983,-4.4789,-4.4724,-4.4677,-4.5131,-4.5454,-4.519,-4.5745,-4.6274,-4.5729,-4.5777,-4.5635,-4.4776,-4.4695,-4.4493,-4.4159,-4.4082,-4.4112,-4.4297,-4.4526,-4.5067,-4.5624,-4.6308,-4.7104,-4.7933,-4.845,-4.8702,-4.9161,-5.0049,-5.1119,-5.2373,-5.3821,-5.5105,-5.5712,-5.6035,-5.5952,-5.5517,-5.5031,-5.4226,-5.2299,-5.0591,-4.8335,0.8274,0.5474,0.2662,-0.1097,-0.5022,-0.6271,-0.7981,-1.0008,-1.1863,-1.3223,-1.4221,-1.4736,-1.4906,-1.4762,-1.5193,-1.5857,-1.6746,-1.7329,-1.8688,-2.0405,-2.2097,-2.3694,-2.5471,-2.7206,-2.7932,-2.7949,-2.7949,-2.8213,-2.9003,-3.0048,-3.1633,-3.3375,-3.3446,-3.3616,-3.4124,-3.4752,-3.5311,-3.565,-3.7266,-3.8228,-3.8372,-3.9084,-3.9922,-4.0681,-4.012,-3.9929,-4.0295,-4.0413,-4.093,-4.1691,-4.2998,-4.4116,-4.4782,-4.6575,-4.7901,-4.8836,-5.0782,-5.1872,-5.1975,-5.2648,-5.2959,-5.2503,-5.2135,-5.1765,-5.1194,-5.0622,-4.9889,-4.9028,-4.8462,-4.7535,-4.5898,-4.5043,-4.4385,-4.3805,-4.3763,-4.3922,-4.4234,-4.4495,-4.4497,-4.3801,-4.3652,-4.3542,-4.2977,-4.2972,-4.3094,-4.3024,-4.3271,-4.3441,-4.3367,-4.3457,-4.3566,-4.3645,-4.3957,-4.4648,-4.5447,-4.5955,-4.6845,-4.8028,-4.8765,-4.9073,-4.9605,-5.0664,-5.1837,-5.2751,-5.4167,-5.5306,-5.6013,-5.6051,-5.5952,-5.5378,-5.4307,-5.3382,-5.2295,-5.1102,-4.9019,0.6278,0.3914,0.0313,-0.3448,-0.6904,-0.7833,-0.9226,-1.1095,-1.2944,-1.4337,-1.5403,-1.6578,-1.7073,-1.6787,-1.6989,-1.7713,-1.8649,-1.9481,-2.0828,-2.2559,-2.4139,-2.5621,-2.727,-2.874,-2.9526,-2.9509,-2.9248,-2.9509,-3.0307,-3.1616,-3.3272,-3.4757,-3.4655,-3.48,-3.5459,-3.5819,-3.6145,-3.6545,-3.7879,-3.8804,-3.9379,-3.922,-3.9618,-4.0354,-3.9815,-3.9783,-4.0277,-4.1132,-4.2206,-4.3271,-4.4841,-4.6048,-4.6907,-4.8031,-4.9127,-5.0164,-5.1847,-5.2768,-5.2334,-5.2943,-5.3076,-5.259,-5.2236,-5.1717,-5.1113,-5.0529,-4.9953,-4.9329,-4.8372,-4.7131,-4.5688,-4.4846,-4.4211,-4.3504,-4.3796,-4.422,-4.4077,-4.4186,-4.3844,-4.2618,-4.2201,-4.1612,-4.1184,-4.147,-4.2071,-4.2355,-4.268,-4.2968,-4.3356,-4.3585,-4.3819,-4.3897,-4.4235,-4.4626,-4.5384,-4.5949,-4.6814,-4.8178,-4.9195,-4.9801,-5.0146,-5.1351,-5.2339,-5.3107,-5.4479,-5.5458,-5.6005,-5.6096,-5.5741,-5.4943,-5.3938,-5.292,-5.2436,-5.1491,-4.9982,0.4905,0.2037,-0.2661,-0.5796,-0.7673,-0.9231,-1.063,-1.2185,-1.4491,-1.5718,-1.6465,-1.8081,-1.9445,-2.0433,-2.0039,-2.0244,-2.1028,-2.1823,-2.3073,-2.4495,-2.5532,-2.6988,-2.8774,-2.9839,-3.0343,-3.0307,-3.0307,-3.0714,-3.1377,-3.2657,-3.4027,-3.5355,-3.5024,-3.526,-3.608,-3.6622,-3.6912,-3.7641,-3.9033,-3.9988,-4.029,-3.9946,-3.9927,-4.0477,-4.0414,-4.0533,-4.0931,-4.1974,-4.333,-4.5062,-4.5873,-4.7135,-4.8694,-4.9264,-5.022,-5.1798,-5.2674,-5.2942,-5.2702,-5.2524,-5.2236,-5.1769,-5.1401,-5.0995,-5.0563,-4.9897,-4.9317,-4.8916,-4.825,-4.7564,-4.6961,-4.6287,-4.5845,-4.5342,-4.5876,-4.5593,-4.4373,-4.4321,-4.3589,-4.2284,-4.1508,-4.122,-4.1355,-4.2108,-4.2391,-4.2674,-4.3272,-4.3994,-4.4489,-4.493,-4.5342,-4.5507,-4.5437,-4.519,-4.529,-4.6127,-4.7276,-4.8624,-4.9849,-5.0649,-5.1221,-5.1801,-5.2604,-5.347,-5.4727,-5.5615,-5.6025,-5.5902,-5.5318,-5.4571,-5.3684,-5.2864,-5.2454,-5.2114,-5.0865,0.19,-0.2191,-0.5321,-0.7513,-0.9231,-1.0635,-1.2185,-1.4037,-1.5557,-1.7093,-1.829,-1.9875,-2.1757,-2.3503,-2.4407,-2.4385,-2.4104,-2.5135,-2.6209,-2.7304,-2.8031,-2.8986,-3.0213,-3.1138,-3.1653,-3.1635,-3.1873,-3.2147,-3.2403,-3.3292,-3.4632,-3.5949,-3.5987,-3.6389,-3.7374,-3.8021,-3.8537,-3.9277,-4.0476,-4.1496,-4.2287,-4.1305,-4.0846,-4.1111,-4.0379,-4.0335,-4.0873,-4.2703,-4.4273,-4.5524,-4.7239,-4.8561,-4.9442,-5.0014,-5.0425,-5.1061,-5.1697,-5.196,-5.1748,-5.19,-5.1875,-5.1434,-5.0951,-5.057,-5.0151,-4.9647,-4.9253,-4.9062,-4.8937,-4.8624,-4.8059,-4.7045,-4.6109,-4.6284,-4.6485,-4.6455,-4.5521,-4.4616,-4.3363,-4.2085,-4.1082,-4.0533,-4.1211,-4.1755,-4.2582,-4.3321,-4.4218,-4.5101,-4.5961,-4.6568,-4.701,-4.7375,-4.7371,-4.7336,-4.7438,-4.7239,-4.7804,-4.9179,-5.0404,-5.1225,-5.1885,-5.2803,-5.3639,-5.4005,-5.5109,-5.5743,-5.6098,-5.5632,-5.5021,-5.4371,-5.345,-5.2864,-5.2397,-5.215,-5.1272,-0.1734,-0.548,-0.7509,-0.9231,-1.0785,-1.2179,-1.3883,-1.5573,-1.7084,-1.8603,-2.0113,-2.2061,-2.4114,-2.6285,-2.8295,-2.9074,-2.8316,-2.8688,-2.8972,-2.9412,-2.9952,-3.0431,-3.1009,-3.1782,-3.2294,-3.2422,-3.2931,-3.3058,-3.3038,-3.3922,-3.5253,-3.6803,-3.6868,-3.7583,-3.8702,-3.9258,-3.9727,-4.0634,-4.1586,-4.264,-4.3374,-4.2476,-4.1662,-4.1436,-4.066,-4.0533,-4.1134,-4.2866,-4.4516,-4.5845,-4.7862,-4.9343,-5.0088,-5.0888,-5.122,-5.0949,-5.1173,-5.1295,-5.1185,-5.1507,-5.1508,-5.1016,-5.057,-5.0073,-4.9501,-4.9015,-4.8769,-4.8769,-4.8883,-4.8883,-4.8635,-4.7614,-4.6967,-4.7387,-4.7694,-4.7415,-4.6678,-4.5295,-4.3653,-4.2103,-4.1526,-4.1395,-4.1704,-4.2671,-4.3557,-4.4331,-4.5374,-4.6421,-4.7106,-4.7747,-4.8376,-4.8899,-4.8871,-4.8815,-4.8999,-4.9067,-4.9102,-5.0274,-5.0865,-5.1705,-5.2632,-5.3641,-5.4334,-5.4689,-5.5151,-5.5742,-5.5753,-5.5275,-5.4743,-5.419,-5.3567,-5.2993,-5.2545,-5.2198,-5.1357,-0.5936,-0.7661,-0.9382,-1.0785,-1.2185,-1.4022,-1.5412,-1.6635,-1.8754,-2.0414,-2.2061,-2.4422,-2.6459,-2.8613,-3.1282,-3.3237,-3.3386,-3.2098,-3.1213,-3.0919,-3.1025,-3.1073,-3.1192,-3.18,-3.2294,-3.2549,-3.3058,-3.3165,-3.3165,-3.4528,-3.6013,-3.7188,-3.7714,-3.8559,-3.9997,-4.0066,-4.0681,-4.1777,-4.2592,-4.3238,-4.3566,-4.3241,-4.2634,-4.1956,-4.1544,-4.1473,-4.175,-4.262,-4.3993,-4.5921,-4.7619,-4.9279,-5.0956,-5.1944,-5.2319,-5.1655,-5.1294,-5.122,-5.1262,-5.122,-5.1059,-5.0634,-5.0182,-4.9599,-4.8934,-4.8218,-4.7794,-4.788,-4.8049,-4.8218,-4.8521,-4.8419,-4.8542,-4.9228,-4.9505,-4.9178,-4.7741,-4.6421,-4.4626,-4.2348,-4.2485,-4.3436,-4.3773,-4.4594,-4.5421,-4.5715,-4.6519,-4.7436,-4.7919,-4.8461,-4.9145,-4.9831,-5.0172,-5.022,-5.0545,-5.0901,-5.1079,-5.137,-5.162,-5.2119,-5.3123,-5.4095,-5.466,-5.51,-5.5414,-5.5932,-5.5729,-5.5274,-5.481,-5.4259,-5.3645,-5.3041,-5.268,-5.2221,-5.1535,-0.859,-0.9687,-1.1095,-1.2797,-1.4491,-1.571,-1.7236,-1.9067,-2.0575,-2.2211,-2.4127,-2.6022,-2.8326,-3.0892,-3.3273,-3.4945,-3.6073,-3.5897,-3.5276,-3.4222,-3.3274,-3.2692,-3.2671,-3.2663,-3.2785,-3.3058,-3.3243,-3.3623,-3.4153,-3.5129,-3.6581,-3.8029,-3.8432,-3.93,-4.0595,-4.1088,-4.1895,-4.3216,-4.3869,-4.4451,-4.5006,-4.4368,-4.3998,-4.3869,-4.3125,-4.3099,-4.3913,-4.3632,-4.4178,-4.5808,-4.8033,-5.0275,-5.1957,-5.2377,-5.2183,-5.1847,-5.121,-5.0908,-5.1016,-5.1048,-5.0896,-5.0557,-5.0136,-4.9582,-4.8965,-4.8218,-4.788,-4.788,-4.7964,-4.8133,-4.8385,-4.8718,-4.9047,-4.9452,-4.99,-4.9878,-4.8775,-4.7244,-4.5212,-4.3361,-4.3794,-4.4764,-4.5503,-4.6354,-4.6591,-4.6724,-4.7477,-4.8167,-4.8696,-4.925,-5.0186,-5.0469,-5.0986,-5.1193,-5.1042,-5.1359,-5.195,-5.1993,-5.2146,-5.2639,-5.3626,-5.4311,-5.4924,-5.5405,-5.5759,-5.5808,-5.5577,-5.5262,-5.4828,-5.4359,-5.3796,-5.3244,-5.2725,-5.2112,-5.15,-1.1553,-1.2326,-1.3414,-1.4798,-1.6626,-1.7986,-1.965,-2.1314,-2.2657,-2.4288,-2.6328,-2.8038,-3.0184,-3.2735,-3.4827,-3.6364,-3.7482,-3.8129,-3.7984,-3.6973,-3.5277,-3.4394,-3.4062,-3.374,-3.3524,-3.369,-3.4001,-3.4358,-3.4757,-3.5992,-3.7429,-3.8885,-3.9564,-4.0292,-4.1259,-4.2185,-4.3216,-4.4255,-4.4865,-4.5428,-4.5743,-4.5445,-4.5196,-4.506,-4.4295,-4.4241,-4.4833,-4.4232,-4.447,-4.5987,-4.8351,-5.0384,-5.1874,-5.1741,-5.1581,-5.1517,-5.1229,-5.0941,-5.1051,-5.116,-5.089,-5.0575,-5.0136,-4.9661,-4.9128,-4.8469,-4.8133,-4.8133,-4.8049,-4.8133,-4.8385,-4.8635,-4.9047,-4.9501,-5.0089,-5.0032,-4.9383,-4.8107,-4.6717,-4.5549,-4.5912,-4.6548,-4.6903,-4.7216,-4.7245,-4.7245,-4.7608,-4.7974,-4.8406,-4.8908,-4.9367,-4.9951,-5.0625,-5.082,-5.0971,-5.1711,-5.275,-5.2709,-5.2623,-5.3278,-5.4104,-5.4525,-5.5043,-5.5543,-5.5947,-5.5792,-5.5599,-5.5275,-5.4895,-5.4392,-5.3907,-5.3407,-5.2864,-5.2173,-5.1494,-1.4353,-1.5275,-1.6033,-1.7093,-1.8592,-2.068,-2.2174,-2.3375,-2.5011,-2.6779,-2.8501,-3.0184,-3.2018,-3.4158,-3.6364,-3.7636,-3.8304,-3.8814,-3.9057,-3.8381,-3.7065,-3.5711,-3.4872,-3.4896,-3.4693,-3.4298,-3.5046,-3.552,-3.5746,-3.7089,-3.8529,-3.9873,-4.0857,-4.1635,-4.2107,-4.3287,-4.4105,-4.4749,-4.532,-4.5714,-4.6125,-4.62,-4.5974,-4.559,-4.5234,-4.5029,-4.5092,-4.5002,-4.526,-4.6397,-4.8473,-4.9951,-5.0393,-5.0516,-5.0893,-5.115,-5.1037,-5.1152,-5.1264,-5.1485,-5.1229,-5.0575,-5.0214,-4.9789,-4.9421,-4.8934,-4.8521,-4.8438,-4.8301,-4.8301,-4.8604,-4.8769,-4.9097,-4.9661,-5.0324,-5.0209,-4.9505,-4.9112,-4.8531,-4.8015,-4.8511,-4.8796,-4.7636,-4.7765,-4.7229,-4.661,-4.6702,-4.6938,-4.7098,-4.7565,-4.7721,-4.8641,-4.9928,-5.0807,-5.112,-5.2371,-5.3365,-5.3618,-5.3414,-5.3743,-5.438,-5.4791,-5.495,-5.5467,-5.5583,-5.5519,-5.5378,-5.4931,-5.4743,-5.4495,-5.4015,-5.3528,-5.2871,-5.2185,-5.1378,-1.6492,-1.694,-1.8006,-1.9499,-2.1141,-2.2757,-2.4543,-2.6328,-2.749,-2.8932,-3.0643,-3.2036,-3.3568,-3.5412,-3.7213,-3.8304,-3.8549,-3.8946,-3.9078,-3.8793,-3.8312,-3.7239,-3.6351,-3.6102,-3.5851,-3.552,-3.6093,-3.6803,-3.7188,-3.8313,-3.9615,-4.1009,-4.1408,-4.1849,-4.2405,-4.316,-4.3871,-4.4432,-4.4794,-4.5121,-4.543,-4.5902,-4.6095,-4.6178,-4.6424,-4.6508,-4.6836,-4.7631,-4.7806,-4.7582,-4.8961,-5.0204,-5.085,-5.09,-5.1083,-5.1543,-5.129,-5.1167,-5.1518,-5.1756,-5.1559,-5.1069,-5.0896,-5.057,-5.0214,-4.9741,-4.934,-4.9097,-4.8852,-4.8852,-4.9097,-4.9421,-5.0026,-5.0876,-5.0951,-5.0704,-5.0366,-5.0611,-5.0794,-5.0435,-5.0069,-4.9331,-4.8399,-4.7512,-4.6813,-4.5932,-4.5852,-4.6393,-4.669,-4.7196,-4.788,-4.8333,-4.9384,-5.0546,-5.1639,-5.292,-5.3878,-5.4384,-5.4326,-5.4087,-5.4641,-5.5052,-5.5036,-5.5098,-5.4503,-5.43,-5.4326,-5.4101,-5.4162,-5.4086,-5.3717,-5.3077,-5.2718,-5.2101,-5.1272,-1.9046,-1.9499,-2.0564,-2.2049,-2.3831,-2.5277,-2.7026,-2.8788,-3.0075,-3.135,-3.277,-3.3863,-3.512,-3.6519,-3.7636,-3.8304,-3.8549,-3.8702,-3.8702,-3.8814,-3.8793,-3.8119,-3.7424,-3.7121,-3.6903,-3.6279,-3.6824,-3.7309,-3.7812,-3.8812,-4.0106,-4.1148,-4.172,-4.2061,-4.2475,-4.3173,-4.3815,-4.4257,-4.4432,-4.485,-4.5247,-4.5639,-4.6127,-4.6527,-4.708,-4.7407,-4.7999,-4.9202,-4.9504,-4.8954,-4.9677,-5.0527,-5.0528,-5.0857,-5.1209,-5.1922,-5.1891,-5.2055,-5.2428,-5.2637,-5.2469,-5.1923,-5.1782,-5.1544,-5.1124,-5.0723,-5.0416,-5.0104,-4.971,-4.963,-4.9947,-5.0338,-5.0995,-5.1631,-5.1651,-5.1421,-5.147,-5.2235,-5.2394,-5.2001,-5.1361,-5.0223,-4.8742,-4.7491,-4.6627,-4.6093,-4.5772,-4.6416,-4.701,-4.7648,-4.8243,-4.872,-5.0213,-5.1944,-5.3274,-5.4575,-5.5585,-5.6015,-5.5986,-5.5569,-5.5148,-5.5497,-5.5091,-5.4715,-5.3801,-5.3234,-5.3416,-5.3394,-5.2968,-5.2878,-5.2754,-5.2555,-5.2126,-5.1946,-5.1114,-2.1876,-2.2645,-2.34,-2.4583,-2.6196,-2.8068,-2.9504,-3.0926,-3.2491,-3.3623,-3.4452,-3.5549,-3.6384,-3.7213,-3.7904,-3.8191,-3.8191,-3.8325,-3.8437,-3.8681,-3.8882,-3.8527,-3.7763,-3.7756,-3.7283,-3.6609,-3.7032,-3.7473,-3.7954,-3.8812,-3.9989,-4.1057,-4.1745,-4.2273,-4.2712,-4.34,-4.3803,-4.4181,-4.418,-4.4586,-4.5056,-4.5489,-4.586,-4.6513,-4.7486,-4.8292,-4.932,-5.0312,-5.0661,-4.9492,-5.0529,-5.0412,-4.994,-5.0304,-5.1127,-5.1903,-5.2554,-5.3069,-5.3629,-5.3761,-5.3661,-5.2943,-5.295,-5.2696,-5.2163,-5.1925,-5.1712,-5.1294,-5.0767,-5.0843,-5.1187,-5.1663,-5.1976,-5.23,-5.2201,-5.2501,-5.2938,-5.354,-5.3639,-5.2997,-5.2623,-5.1123,-4.9172,-4.7652,-4.691,-4.6786,-4.6632,-4.7297,-4.8135,-4.8985,-4.9197,-4.915,-5.1243,-5.3887,-5.5116,-5.6313,-5.7255,-5.7947,-5.7961,-5.7483,-5.621,-5.5964,-5.5291,-5.4636,-5.3762,-5.3207,-5.3046,-5.274,-5.2296,-5.2557,-5.3012,-5.218,-5.125,-5.143,-5.0977,-2.4422,-2.4569,-2.5478,-2.6634,-2.8228,-2.979,-3.1226,-3.2648,-3.39,-3.4865,-3.5724,-3.6539,-3.7079,-3.7482,-3.7904,-3.8191,-3.8191,-3.8171,-3.8437,-3.8681,-3.8814,-3.8418,-3.7827,-3.7783,-3.7313,-3.6737,-3.7132,-3.7495,-3.7976,-3.8812,-3.9873,-4.1033,-4.1631,-4.2282,-4.3262,-4.3263,-4.3388,-4.3778,-4.3652,-4.3776,-4.4463,-4.5037,-4.5598,-4.629,-4.8016,-4.994,-5.1676,-5.304,-5.3109,-5.1991,-5.1294,-5.0723,-4.9903,-5.0254,-5.1108,-5.1903,-5.2681,-5.3343,-5.3888,-5.4341,-5.4424,-5.4204,-5.4343,-5.4295,-5.3628,-5.3569,-5.3198,-5.262,-5.2279,-5.2424,-5.2841,-5.3413,-5.3318,-5.2961,-5.2753,-5.2558,-5.2392,-5.3204,-5.3774,-5.3567,-5.2794,-5.1484,-4.8967,-4.8234,-4.7648,-4.7425,-4.7881,-4.8526,-4.953,-5.0596,-5.0479,-5.0436,-5.2762,-5.5253,-5.6039,-5.7345,-5.8661,-5.9309,-5.9433,-5.9319,-5.8038,-5.6581,-5.5971,-5.4921,-5.3759,-5.3315,-5.2882,-5.2762,-5.2404,-5.2902,-5.3265,-5.2601,-5.1972,-5.1633,-5.1031,-2.707,-2.723,-2.752,-2.866,-3.0107,-3.1649,-3.2927,-3.4057,-3.5158,-3.584,-3.6268,-3.6944,-3.7482,-3.7616,-3.777,-3.7904,-3.7904,-3.7904,-3.8171,-3.8437,-3.8395,-3.8047,-3.7464,-3.7339,-3.696,-3.655,-3.6911,-3.7396,-3.7998,-3.8834,-3.9873,-4.1033,-4.1631,-4.2411,-4.325,-4.3249,-4.3361,-4.3624,-4.3695,-4.3874,-4.45,-4.5448,-4.6816,-4.7859,-4.9474,-5.1084,-5.2905,-5.4142,-5.4092,-5.333,-5.2641,-5.1561,-5.0258,-5.0497,-5.1277,-5.1935,-5.2681,-5.3668,-5.4373,-5.5082,-5.5446,-5.5462,-5.5905,-5.575,-5.528,-5.5077,-5.4768,-5.4356,-5.4045,-5.396,-5.4374,-5.408,-5.3954,-5.3703,-5.2677,-5.1746,-5.131,-5.2294,-5.3218,-5.2976,-5.2186,-5.0885,-4.9559,-4.9027,-4.9701,-4.9982,-4.9974,-5.0621,-5.2283,-5.3092,-5.2357,-5.2713,-5.4765,-5.6386,-5.6963,-5.8207,-5.995,-6.0444,-6.0545,-6.0471,-5.9872,-5.8241,-5.6656,-5.5445,-5.4129,-5.3139,-5.2698,-5.2626,-5.2752,-5.3047,-5.3244,-5.3069,-5.2676,-5.1765,-5.1176,-2.9552,-2.9585,-2.9552,-3.0392,-3.1824,-3.3363,-3.4333,-3.504,-3.6112,-3.6519,-3.6789,-3.7348,-3.775,-3.775,-3.7883,-3.775,-3.7883,-3.8017,-3.8304,-3.8437,-3.8423,-3.7921,-3.7315,-3.7001,-3.6855,-3.6486,-3.6789,-3.7297,-3.8109,-3.9067,-4.0411,-4.1389,-4.1891,-4.2772,-4.3175,-4.3346,-4.3695,-4.4173,-4.4358,-4.4909,-4.5688,-4.6865,-4.8382,-5.002,-5.0444,-5.1518,-5.3111,-5.4315,-5.4729,-5.4157,-5.4206,-5.3082,-5.1662,-5.1142,-5.1654,-5.2182,-5.2803,-5.3775,-5.4987,-5.5817,-5.6236,-5.6718,-5.7323,-5.7364,-5.6845,-5.6413,-5.6147,-5.5994,-5.5707,-5.5517,-5.5864,-5.541,-5.4911,-5.4289,-5.2333,-5.0713,-5.0079,-5.0998,-5.1624,-5.148,-5.138,-5.0766,-5.0535,-5.0336,-5.1521,-5.2513,-5.2494,-5.2909,-5.4594,-5.5314,-5.457,-5.442,-5.617,-5.7702,-5.8392,-5.8623,-6.0422,-6.0973,-6.1203,-6.1004,-6.0716,-5.8877,-5.6998,-5.5823,-5.461,-5.3591,-5.3075,-5.3237,-5.3345,-5.3363,-5.3566,-5.3795,-5.3046,-5.1811,-5.163,-3.1118,-3.1277,-3.1118,-3.1807,-3.3067,-3.4214,-3.4921,-3.547,-3.6112,-3.6654,-3.7079,-3.775,-3.8304,-3.8416,-3.8549,-3.8549,-3.866,-3.8793,-3.8925,-3.8972,-3.8717,-3.8187,-3.7657,-3.7423,-3.71,-3.6918,-3.7032,-3.7648,-3.864,-3.9785,-4.107,-4.2418,-4.2732,-4.3258,-4.374,-4.3877,-4.4344,-4.5207,-4.528,-4.5822,-4.7128,-4.7878,-4.9014,-5.0691,-5.0886,-5.173,-5.3099,-5.4142,-5.4715,-5.4764,-5.5248,-5.4572,-5.3467,-5.2638,-5.2522,-5.2845,-5.3166,-5.4049,-5.5312,-5.597,-5.6801,-5.7654,-5.8392,-5.8594,-5.8258,-5.7798,-5.7471,-5.7369,-5.7268,-5.7313,-5.7565,-5.6932,-5.5918,-5.4759,-5.3207,-5.1525,-4.9863,-4.993,-5.0673,-5.0576,-5.0778,-5.1281,-5.1505,-5.2119,-5.3468,-5.4583,-5.507,-5.546,-5.6638,-5.7062,-5.6714,-5.6781,-5.7242,-5.8647,-5.9837,-5.9842,-6.0526,-6.0963,-6.1101,-6.0773,-6.0132,-5.8726,-5.727,-5.6206,-5.5221,-5.4268,-5.3982,-5.3938,-5.4239,-5.4554,-5.4651,-5.4669,-5.3905,-5.3162,-5.3346,-3.2666,-3.2684,-3.2666,-3.3224,-3.4195,-3.504,-3.5606,-3.5743,-3.6152,-3.6403,-3.7059,-3.7863,-3.866,-3.9057,-3.9561,-3.9692,-3.9823,-3.9823,-3.9953,-3.9864,-3.9602,-3.91,-3.851,-3.816,-3.8209,-3.8287,-3.835,-3.8522,-3.9107,-4.0176,-4.1609,-4.2561,-4.301,-4.3514,-4.4066,-4.4351,-4.49,-4.5869,-4.6196,-4.6824,-4.8238,-4.8731,-4.9982,-5.1164,-5.1379,-5.1924,-5.3266,-5.4192,-5.4684,-5.4983,-5.5156,-5.5096,-5.4727,-5.4241,-5.379,-5.398,-5.4072,-5.4787,-5.607,-5.6875,-5.78,-5.8737,-5.9415,-5.9797,-5.9637,-5.917,-5.861,-5.8373,-5.8548,-5.8721,-5.9063,-5.8253,-5.7036,-5.5712,-5.3963,-5.1926,-5.0495,-5.0371,-5.0581,-5.09,-5.1829,-5.2594,-5.2886,-5.3853,-5.5326,-5.6482,-5.7348,-5.7942,-5.8496,-5.8219,-5.7808,-5.7379,-5.7398,-5.8357,-5.9565,-6.003,-6.0477,-6.0984,-6.0916,-6.0571,-5.987,-5.859,-5.7666,-5.6748,-5.5803,-5.4316,-5.4716,-5.4654,-5.5176,-5.5523,-5.5071,-5.4704,-5.479,-5.471,-5.4583,-3.4195,-3.4094,-3.4057,-3.449,-3.5196,-3.5879,-3.6152,-3.6152,-3.6287,-3.6539,-3.7059,-3.8221,-3.9035,-3.9692,-4.0344,-4.071,-4.071,-4.071,-4.0724,-4.0494,-4.0374,-3.9859,-3.9376,-3.9183,-3.919,-3.9272,-3.9564,-3.9848,-4.0387,-4.1253,-4.2168,-4.33,-4.3848,-4.4112,-4.4739,-4.5286,-4.5609,-4.6404,-4.695,-4.7931,-4.9166,-4.989,-5.0993,-5.2629,-5.2014,-5.2129,-5.3277,-5.3819,-5.4455,-5.4809,-5.507,-5.5184,-5.5538,-5.5716,-5.5655,-5.549,-5.5336,-5.6021,-5.7055,-5.7941,-5.8665,-5.9739,-6.0344,-6.0831,-6.1034,-6.0537,-5.9846,-5.9384,-5.9515,-5.9791,-5.987,-5.901,-5.7925,-5.672,-5.4688,-5.2684,-5.1833,-5.1725,-5.2384,-5.284,-5.3546,-5.4185,-5.4782,-5.5183,-5.6629,-5.7295,-5.8154,-5.8259,-5.8687,-5.8441,-5.797,-5.7234,-5.7193,-5.7877,-5.8787,-5.9581,-6.0239,-6.1067,-6.0732,-6.0226,-5.9498,-5.8606,-5.7673,-5.6626,-5.4874,-5.3739,-5.4454,-5.5192,-5.54,-5.5404,-5.4989,-5.4781,-5.4874,-5.4748,-5.4544,-3.5295,-3.5196,-3.4921,-3.5196,-3.5879,-3.6268,-3.6674,-3.6944,-3.7079,-3.7616,-3.8486,-3.9196,-4.0069,-4.1213,-4.162,-4.1456,-4.1365,-4.1677,-4.1848,-4.1661,-4.0883,-4.0372,-3.9877,-3.9442,-3.9775,-4.0106,-4.02,-4.1023,-4.1921,-4.2616,-4.3815,-4.5098,-4.5291,-4.5922,-4.6357,-4.6458,-4.7273,-4.82,-4.8404,-4.9467,-5.1344,-5.1698,-5.2226,-5.2659,-5.2217,-5.1987,-5.2893,-5.336,-5.3891,-5.4604,-5.4978,-5.5543,-5.626,-5.7239,-5.7857,-5.7624,-5.7123,-5.6679,-5.7976,-5.8746,-5.9593,-6.0594,-6.1265,-6.1806,-6.1989,-6.204,-6.1475,-6.0492,-6.0728,-6.073,-6.043,-5.9777,-5.8671,-5.7795,-5.6598,-5.4641,-5.3429,-5.4217,-5.4764,-5.5408,-5.6278,-5.6641,-5.7081,-5.7391,-5.7776,-5.8343,-5.8792,-5.8802,-5.8822,-5.8568,-5.8484,-5.7835,-5.736,-5.7968,-5.8261,-5.9033,-5.9542,-6.0656,-6.0345,-5.9725,-5.8901,-5.8066,-5.7212,-5.5959,-5.4189,-5.3586,-5.4582,-5.5182,-5.536,-5.5383,-5.5186,-5.5062,-5.5009,-5.4807,-5.4494,-3.6769,-3.6423,-3.5743,-3.586,-3.6403,-3.7059,-3.7575,-3.7975,-3.8639,-3.9099,-4.004,-4.2225,-4.453,-4.6307,-4.7309,-4.7374,-4.6834,-4.5403,-4.4629,-4.3402,-4.2349,-4.1161,-4.0787,-4.0504,-4.069,-4.0972,-4.1181,-4.1866,-4.2885,-4.3218,-4.3914,-4.5265,-4.5872,-4.6276,-4.7361,-4.7474,-4.7912,-4.8607,-4.9408,-5.0661,-5.1896,-5.2144,-5.2252,-5.3278,-5.2265,-5.2208,-5.2789,-5.3493,-5.3836,-5.4514,-5.5124,-5.5962,-5.6643,-5.7756,-5.8806,-5.9669,-5.9699,-5.9583,-5.9655,-6.0107,-6.0813,-6.1607,-6.2281,-6.2682,-6.2784,-6.2882,-6.2522,-6.1169,-6.137,-6.131,-6.095,-6.0569,-5.9514,-5.8624,-5.8153,-5.7095,-5.5991,-5.6965,-5.7698,-5.8335,-5.881,-5.8763,-5.8754,-5.8841,-5.8412,-5.7875,-5.8359,-5.8609,-5.8708,-5.8682,-5.8675,-5.8626,-5.8241,-5.8121,-5.8275,-5.8585,-5.8454,-5.9177,-5.9611,-5.8918,-5.819,-5.7356,-5.648,-5.5431,-5.3912,-5.3932,-5.4782,-5.4819,-5.4721,-5.5056,-5.5519,-5.5259,-5.4992,-5.4745,-5.4494,-3.8088,-3.7348,-3.6423,-3.6268,-3.6789,-3.7842,-3.8507,-3.9014,-3.9692,-4.0279,-4.1516,-4.4401,-4.8182,-5.1002,-5.1247,-5.0816,-5.119,-4.8626,-4.7209,-4.5624,-4.3687,-4.1697,-4.1253,-4.122,-4.148,-4.2257,-4.1662,-4.2135,-4.2815,-4.3375,-4.3951,-4.5178,-4.6168,-4.6977,-4.7847,-4.8453,-4.8938,-4.9235,-5.032,-5.155,-5.2494,-5.2127,-5.2623,-5.2933,-5.2695,-5.2183,-5.313,-5.3806,-5.4083,-5.4836,-5.5693,-5.6579,-5.7248,-5.8599,-5.9875,-6.0898,-6.1551,-6.1784,-6.1475,-6.1438,-6.1989,-6.2609,-6.3342,-6.3709,-6.3576,-6.3684,-6.3508,-6.2413,-6.2536,-6.2194,-6.1516,-6.137,-6.0517,-5.9775,-5.9274,-5.8672,-5.8299,-5.8826,-5.9192,-5.9443,-5.9786,-6.0087,-6.008,-6.008,-5.9339,-5.7896,-5.783,-5.8275,-5.8601,-5.8808,-5.9134,-5.9258,-5.9174,-5.873,-5.8357,-5.8353,-5.8056,-5.7775,-5.8221,-5.8106,-5.7418,-5.6662,-5.5809,-5.4674,-5.3555,-5.3772,-5.4375,-5.42,-5.4098,-5.4882,-5.5496,-5.5174,-5.4869,-5.462,-5.4494,-3.8861,-3.7842,-3.6574,-3.6757,-3.7805,-3.8395,-3.9196,-4.0508,-4.0513,-4.1411,-4.3059,-4.5376,-4.9074,-5.0988,-5.209,-5.1918,-5.1211,-4.7637,-4.6748,-4.5348,-4.2958,-4.145,-4.1225,-4.1311,-4.1492,-4.1838,-4.1923,-4.2149,-4.2525,-4.3789,-4.4884,-4.6303,-4.6734,-4.8184,-4.9149,-4.9473,-4.9892,-5.0271,-5.1238,-5.2181,-5.2918,-5.2993,-5.3186,-5.3553,-5.307,-5.2703,-5.3591,-5.4231,-5.4757,-5.5485,-5.6483,-5.7296,-5.8153,-5.9522,-6.0738,-6.1752,-6.2866,-6.2953,-6.247,-6.2166,-6.2271,-6.296,-6.3804,-6.4582,-6.4571,-6.4959,-6.4756,-6.397,-6.3847,-6.3415,-6.2759,-6.2162,-6.1557,-6.0732,-6.0187,-5.975,-5.9604,-6.0137,-6.0417,-6.0496,-6.0561,-6.0573,-6.0544,-6.0344,-5.9641,-5.8236,-5.7547,-5.7988,-5.8743,-5.9099,-5.9648,-5.9918,-5.9979,-5.9513,-5.8694,-5.8104,-5.7,-5.6867,-5.7187,-5.703,-5.6622,-5.5847,-5.5282,-5.4326,-5.3426,-5.3697,-5.3936,-5.4099,-5.4453,-5.5164,-5.5472,-5.5174,-5.4869,-5.462,-5.4494,-3.9649,-3.9087,-3.9513,-3.9981,-4.0848,-4.418,-4.589,-4.6437,-4.7139,-4.8574,-5.0078,-5.162,-5.3381,-5.5032,-5.5615,-5.5432,-5.4388,-4.993,-4.8514,-4.6408,-4.3936,-4.1569,-4.1225,-4.1508,-4.1801,-4.2335,-4.2607,-4.3293,-4.4235,-4.4565,-4.5705,-4.6846,-4.7238,-4.8138,-4.9207,-5.0057,-5.0401,-5.0976,-5.1653,-5.2446,-5.352,-5.3222,-5.3499,-5.47,-5.3854,-5.3765,-5.4505,-5.5569,-5.5978,-5.6437,-5.7459,-5.825,-5.8828,-6.015,-6.1172,-6.2096,-6.33,-6.3321,-6.2718,-6.2639,-6.3154,-6.3638,-6.4335,-6.4872,-6.5331,-6.5624,-6.5282,-6.4908,-6.4733,-6.4286,-6.3574,-6.3222,-6.2787,-6.1725,-6.1045,-6.0733,-6.0633,-6.1032,-6.0995,-6.0795,-6.0612,-6.0549,-6.0475,-6.0405,-5.9507,-5.8574,-5.7996,-5.7731,-5.8593,-5.9177,-5.9639,-5.9972,-5.9976,-5.9599,-5.8737,-5.7311,-5.5807,-5.5976,-5.6239,-5.5927,-5.5694,-5.551,-5.4867,-5.4022,-5.3456,-5.3552,-5.3792,-5.4242,-5.4752,-5.5389,-5.5437,-5.5234,-5.493,-5.462,-5.4557,-4.1466,-4.1537,-4.391,-4.4158,-4.3738,-4.7978,-5.012,-5.0604,-5.1118,-5.3229,-5.5667,-5.5555,-5.6566,-5.8115,-5.845,-5.8002,-5.5809,-5.1988,-4.9904,-4.732,-4.4303,-4.1731,-4.1541,-4.2154,-4.2815,-4.3281,-4.388,-4.4617,-4.5163,-4.5624,-4.6307,-4.696,-4.7482,-4.8225,-4.9193,-5.0009,-5.063,-5.1182,-5.1878,-5.255,-5.3868,-5.3466,-5.3668,-5.5019,-5.4686,-5.5095,-5.6009,-5.7066,-5.7628,-5.8118,-5.8787,-5.9501,-5.9932,-6.0505,-6.1458,-6.2383,-6.313,-6.3433,-6.2738,-6.2675,-6.3449,-6.3844,-6.4455,-6.5103,-6.5704,-6.5974,-6.571,-6.5445,-6.5296,-6.5006,-6.4325,-6.42,-6.3783,-6.2779,-6.2264,-6.1907,-6.1286,-6.1292,-6.1134,-6.0968,-6.1017,-6.1338,-6.1151,-6.1118,-6.0342,-5.9288,-5.82,-5.8047,-5.867,-5.9129,-5.93,-5.9573,-5.9698,-5.9204,-5.8537,-5.6656,-5.5078,-5.5339,-5.5458,-5.5032,-5.4797,-5.4764,-5.457,-5.381,-5.339,-5.337,-5.3914,-5.4634,-5.5107,-5.5507,-5.5378,-5.5113,-5.4807,-5.4557,-5.4494,-4.4839,-4.5273,-4.9518,-4.8557,-4.4718,-4.8418,-5.0604,-5.1537,-5.1784,-5.3362,-5.577,-5.5843,-5.6701,-5.8214,-5.8421,-5.7968,-5.6292,-5.2046,-4.9756,-4.878,-4.5562,-4.2814,-4.2682,-4.3585,-4.432,-4.4143,-4.4839,-4.5515,-4.5772,-4.6331,-4.6756,-4.7058,-4.758,-4.8211,-4.9289,-5.0252,-5.1028,-5.1616,-5.2274,-5.3219,-5.401,-5.3897,-5.4514,-5.5729,-5.5994,-5.6612,-5.8126,-5.8802,-5.9369,-5.9811,-6.032,-6.0674,-6.068,-6.1522,-6.2233,-6.2779,-6.372,-6.3663,-6.278,-6.2509,-6.287,-6.3723,-6.4399,-6.5174,-6.5971,-6.6242,-6.6205,-6.595,-6.6066,-6.5795,-6.5419,-6.5118,-6.4581,-6.3845,-6.3325,-6.2562,-6.1907,-6.1471,-6.1309,-6.1056,-6.1924,-6.2638,-6.2329,-6.1983,-6.1246,-6.0155,-5.8671,-5.8514,-5.921,-5.9495,-5.9768,-5.9728,-5.9865,-5.9071,-5.8178,-5.5784,-5.447,-5.4732,-5.4716,-5.4326,-5.4275,-5.4466,-5.4125,-5.3592,-5.3463,-5.3422,-5.4295,-5.5241,-5.5349,-5.5378,-5.5174,-5.493,-5.4683,-5.4494,-5.4494,-4.5095,-4.3767,-4.7428,-4.7169,-4.5637,-5.3078,-5.6443,-5.6608,-5.6776,-5.7317,-5.8083,-5.8288,-5.7887,-5.8065,-5.7773,-5.7307,-5.5649,-5.3653,-5.1548,-5.1217,-4.7829,-4.6783,-4.6176,-4.592,-4.6252,-4.6183,-4.655,-4.7011,-4.7667,-4.751,-4.7491,-4.7802,-4.7806,-4.8342,-4.9003,-4.9801,-5.0475,-5.1568,-5.2547,-5.3653,-5.4994,-5.5076,-5.5864,-5.8117,-5.8253,-5.9211,-6.0729,-6.1025,-6.1007,-6.1202,-6.1554,-6.0963,-6.0862,-6.1523,-6.1795,-6.2211,-6.2914,-6.3277,-6.2705,-6.2479,-6.2617,-6.3507,-6.4193,-6.4971,-6.6139,-6.6426,-6.6439,-6.632,-6.6189,-6.6018,-6.6034,-6.6057,-6.5556,-6.4429,-6.3659,-6.2708,-6.2002,-6.1758,-6.1509,-6.11,-6.1502,-6.2683,-6.2924,-6.3124,-6.2617,-6.2499,-6.1362,-6.0532,-6.0866,-6.0776,-6.0867,-6.0487,-6.0235,-5.9297,-5.7968,-5.6076,-5.4918,-5.5075,-5.4564,-5.3729,-5.3826,-5.4205,-5.4229,-5.3939,-5.3717,-5.3568,-5.4454,-5.5157,-5.5121,-5.5053,-5.493,-5.4807,-5.462,-5.4494,-5.4494,-4.6878,-4.4752,-4.726,-4.72,-4.683,-5.43,-5.847,-5.9532,-5.9716,-5.9716,-5.9577,-5.9383,-5.8702,-5.7813,-5.7242,-5.664,-5.5214,-5.3302,-5.2661,-5.2551,-5.0153,-4.8591,-4.8058,-4.8166,-4.7584,-4.7635,-4.7804,-4.8216,-4.8525,-4.8366,-4.8172,-4.7998,-4.8155,-4.8425,-4.8906,-4.9506,-5.0296,-5.1544,-5.2909,-5.4381,-5.5813,-5.6857,-5.8045,-5.9732,-6.0837,-6.1919,-6.2918,-6.3057,-6.2554,-6.2447,-6.1895,-6.1089,-6.1036,-6.1097,-6.137,-6.1759,-6.2024,-6.2461,-6.2262,-6.2107,-6.2457,-6.3455,-6.3662,-6.434,-6.5386,-6.5519,-6.5572,-6.5582,-6.5756,-6.5699,-6.5673,-6.5829,-6.5438,-6.4265,-6.3682,-6.2711,-6.2389,-6.2139,-6.211,-6.1694,-6.2214,-6.3119,-6.3827,-6.4023,-6.4098,-6.4206,-6.4236,-6.3349,-6.2297,-6.1831,-6.1654,-6.1399,-6.0747,-5.9803,-5.8556,-5.6913,-5.5976,-5.5503,-5.4541,-5.3474,-5.3829,-5.4315,-5.4289,-5.4305,-5.4012,-5.4,-5.4611,-5.5086,-5.5009,-5.4869,-5.4683,-5.462,-5.4494,-5.4494,-5.4431,-5.0196,-4.7728,-4.9478,-4.8776,-4.7934,-5.2357,-5.6454,-5.9502,-5.9587,-5.9555,-5.9555,-5.8896,-5.8183,-5.7566,-5.6918,-5.6237,-5.5496,-5.3544,-5.3424,-5.2875,-5.1432,-5.0117,-4.9476,-4.934,-4.8912,-4.8557,-4.8595,-4.9014,-4.9009,-4.8838,-4.8538,-4.8207,-4.8106,-4.8515,-4.8971,-4.9721,-5.0625,-5.2136,-5.3831,-5.5494,-5.7051,-5.8841,-6.0223,-6.1778,-6.3091,-6.4383,-6.5075,-6.4833,-6.4431,-6.3855,-6.2972,-6.2143,-6.1733,-6.1564,-6.1635,-6.1678,-6.174,-6.1764,-6.1788,-6.172,-6.2006,-6.277,-6.2851,-6.3391,-6.4083,-6.4669,-6.4735,-6.4677,-6.4698,-6.445,-6.4325,-6.4384,-6.4402,-6.3842,-6.3514,-6.3032,-6.2818,-6.2748,-6.2869,-6.3191,-6.4057,-6.4843,-6.5389,-6.5617,-6.4974,-6.5172,-6.5137,-6.4764,-6.3648,-6.216,-6.2067,-6.22,-6.1443,-6.0381,-5.9024,-5.7532,-5.5908,-5.5064,-5.4377,-5.3524,-5.3944,-5.4155,-5.4216,-5.4236,-5.4201,-5.4403,-5.4793,-5.4904,-5.4772,-5.4655,-5.4494,-5.4494,-5.4465,-5.4431,-5.4367,-4.9451,-4.5409,-4.6504,-4.5875,-4.5211,-5.0967,-5.5491,-5.815,-5.845,-5.8502,-5.8587,-5.8423,-5.7901,-5.7266,-5.7037,-5.6515,-5.5996,-5.5693,-5.5721,-5.4929,-5.3698,-5.3098,-5.2261,-5.1323,-5.0549,-4.9823,-4.9733,-4.999,-5.0019,-4.9658,-4.9037,-4.871,-4.8207,-4.8659,-4.9513,-5.0487,-5.1833,-5.3382,-5.5273,-5.7021,-5.8814,-6.0724,-6.2314,-6.4002,-6.5644,-6.6986,-6.7655,-6.6531,-6.6074,-6.6031,-6.3857,-6.257,-6.2544,-6.2026,-6.1679,-6.1651,-6.1627,-6.1641,-6.1627,-6.1602,-6.1777,-6.2017,-6.2041,-6.295,-6.3703,-6.41,-6.4023,-6.3865,-6.3818,-6.3681,-6.3644,-6.3683,-6.3539,-6.3199,-6.2982,-6.2954,-6.2805,-6.3041,-6.3199,-6.3826,-6.4765,-6.5467,-6.6084,-6.5941,-6.54,-6.5757,-6.5828,-6.5556,-6.4963,-6.3451,-6.2878,-6.3064,-6.2267,-6.1288,-5.9649,-5.811,-5.6206,-5.4579,-5.3958,-5.3385,-5.3232,-5.3419,-5.3891,-5.4265,-5.4456,-5.4627,-5.4809,-5.478,-5.4592,-5.4367,-5.4303,-5.4367,-5.4431,-5.4239,-5.4076,-4.9827,-4.6247,-4.6757,-4.6499,-4.6453,-5.0275,-5.411,-5.6978,-5.7789,-5.8083,-5.8133,-5.7838,-5.7527,-5.7134,-5.6807,-5.6399,-5.6006,-5.6001,-5.6126,-5.6042,-5.5739,-5.4465,-5.3492,-5.2546,-5.1299,-5.0714,-5.0567,-5.0733,-5.0887,-5.0279,-4.9571,-4.871,-4.8106,-4.8893,-5.019,-5.1765,-5.3788,-5.5585,-5.7441,-5.9039,-6.0834,-6.2656,-6.4625,-6.6131,-6.7844,-6.9011,-6.9743,-6.8039,-6.7346,-6.7082,-6.4567,-6.293,-6.2771,-6.2147,-6.1665,-6.1615,-6.1588,-6.1612,-6.1595,-6.1603,-6.158,-6.1595,-6.1595,-6.2122,-6.2602,-6.2935,-6.2986,-6.2959,-6.3043,-6.3085,-6.3121,-6.3068,-6.2761,-6.2493,-6.2537,-6.2656,-6.2851,-6.3124,-6.3592,-6.4139,-6.4838,-6.5531,-6.5824,-6.5744,-6.5796,-6.5998,-6.6066,-6.5932,-6.5529,-6.4636,-6.4299,-6.4455,-6.3412,-6.224,-6.0514,-5.8798,-5.7035,-5.5303,-5.3906,-5.338,-5.2835,-5.2935,-5.3639,-5.4314,-5.4886,-5.4904,-5.4787,-5.4592,-5.4367,-5.4209,-5.3949,-5.3815,-5.3815,-5.3815,-5.3583,-5.0786,-4.8266,-4.9202,-4.9442,-4.9797,-5.0735,-5.3207,-5.6239,-5.7429,-5.8019,-5.7855,-5.7412,-5.7084,-5.7014,-5.6606,-5.6217,-5.5927,-5.5929,-5.583,-5.5963,-5.4835,-5.3903,-5.3281,-5.2275,-5.1563,-5.1155,-5.1225,-5.1544,-5.1577,-5.099,-4.9902,-4.8553,-4.7568,-4.8513,-5.1245,-5.2728,-5.5254,-5.8952,-6.0151,-6.1377,-6.2749,-6.467,-6.656,-6.7454,-6.8551,-6.9552,-6.9926,-6.911,-6.7689,-6.6888,-6.5663,-6.3863,-6.3122,-6.2358,-6.1966,-6.1666,-6.1703,-6.1568,-6.1568,-6.1568,-6.1586,-6.1595,-6.1603,-6.1729,-6.2017,-6.2148,-6.2206,-6.2217,-6.231,-6.2287,-6.2301,-6.2303,-6.2107,-6.2027,-6.2063,-6.2091,-6.2201,-6.2861,-6.3911,-6.4575,-6.5463,-6.6102,-6.6174,-6.6096,-6.5686,-6.6057,-6.5838,-6.5715,-6.5489,-6.4956,-6.5051,-6.5167,-6.4402,-6.307,-6.1419,-5.9719,-5.8086,-5.637,-5.442,-5.3056,-5.2352,-5.2726,-5.3407,-5.4147,-5.4869,-5.4869,-5.4765,-5.4505,-5.4247,-5.4056,-5.372,-5.3247,-5.3111,-5.3145,-5.3043,-5.0151,-4.8343,-5.0033,-5.0552,-5.0665,-5.3626,-5.5168,-5.5861,-5.6414,-5.6803,-5.6942,-5.6888,-5.69,-5.6945,-5.6612,-5.629,-5.5894,-5.5523,-5.5178,-5.4836,-5.3962,-5.3528,-5.2973,-5.2368,-5.1816,-5.1723,-5.191,-5.2483,-5.2513,-5.1667,-5.0484,-4.9092,-4.8212,-4.9328,-5.2843,-5.4235,-5.7146,-6.1635,-6.3012,-6.3507,-6.4326,-6.5214,-6.6499,-6.7497,-6.8529,-6.9497,-6.9974,-7.011,-6.9722,-6.946,-6.7966,-6.64,-6.4999,-6.3389,-6.2609,-6.2396,-6.1928,-6.1723,-6.1539,-6.1549,-6.1559,-6.1568,-6.1578,-6.1578,-6.1625,-6.1603,-6.1573,-6.158,-6.1595,-6.1582,-6.1598,-6.1598,-6.1598,-6.1593,-6.1593,-6.1569,-6.1588,-6.2828,-6.4115,-6.4957,-6.5922,-6.6262,-6.6309,-6.6135,-6.5834,-6.5393,-6.4839,-6.46,-6.4654,-6.4396,-6.4604,-6.4756,-6.5009,-6.3878,-6.217,-6.0227,-5.8314,-5.6286,-5.4252,-5.2987,-5.1919,-5.2651,-5.3549,-5.4266,-5.4842,-5.4937,-5.4819,-5.4254,-5.4023,-5.3922,-5.3408,-5.2927,-5.2549,-5.2478,-5.234,-5.005,-4.9864,-5.199,-5.2944,-5.3422,-5.5223,-5.5894,-5.562,-5.5733,-5.5974,-5.6257,-5.6447,-5.668,-5.6757,-5.6525,-5.6132,-5.5701,-5.5295,-5.4749,-5.4071,-5.3726,-5.3465,-5.2935,-5.2577,-5.2459,-5.2459,-5.3146,-5.364,-5.3569,-5.3278,-5.2301,-5.0996,-5.0124,-5.135,-5.4976,-5.6622,-5.9202,-6.363,-6.5142,-6.563,-6.5606,-6.614,-6.678,-6.7695,-6.8579,-6.9507,-7.0142,-7.0504,-7.0553,-7.0116,-6.8698,-6.6974,-6.5541,-6.4421,-6.3503,-6.2869,-6.2301,-6.19,-6.1623,-6.1479,-6.1539,-6.1559,-6.1568,-6.1568,-6.1578,-6.1586,-6.1586,-6.1595,-6.1539,-6.1526,-6.1541,-6.158,-6.1541,-6.1534,-6.1556,-6.1529,-6.1977,-6.2912,-6.3437,-6.3648,-6.4558,-6.5284,-6.5196,-6.4748,-6.4522,-6.4419,-6.3892,-6.3718,-6.3744,-6.3676,-6.3955,-6.422,-6.4389,-6.3759,-6.1958,-6.0076,-5.8266,-5.615,-5.4069,-5.2868,-5.1993,-5.285,-5.3599,-5.4564,-5.5144,-5.5266,-5.5037,-5.4601,-5.4222,-5.4128,-5.344,-5.2653,-5.2269,-5.2024,-5.2056,-5.0242,-5.1942,-5.402,-5.5442,-5.6132,-5.5781,-5.5426,-5.5231,-5.5213,-5.5377,-5.5636,-5.6053,-5.6369,-5.6447,-5.6211,-5.5733,-5.5246,-5.4717,-5.4125,-5.3608,-5.3552,-5.3434,-5.3346,-5.3113,-5.3121,-5.3465,-5.409,-5.4548,-5.487,-5.4709,-5.4402,-5.3796,-5.4353,-5.5305,-5.7455,-5.9444,-6.1834,-6.4256,-6.5769,-6.641,-6.661,-6.6681,-6.7082,-6.7842,-6.8663,-6.951,-7.0045,-7.0377,-7.0428,-6.9833,-6.888,-6.7618,-6.6334,-6.5375,-6.4351,-6.356,-6.2782,-6.2212,-6.1693,-6.1456,-6.1518,-6.1549,-6.1559,-6.1559,-6.1559,-6.1559,-6.1559,-6.1549,-6.15,-6.15,-6.151,-6.151,-6.15,-6.145,-6.1456,-6.146,-6.2108,-6.2808,-6.2793,-6.2711,-6.3402,-6.4283,-6.4077,-6.3631,-6.3373,-6.3261,-6.3075,-6.3015,-6.2897,-6.2795,-6.2851,-6.3192,-6.3465,-6.2595,-6.1534,-6.0356,-5.8646,-5.6183,-5.4219,-5.2881,-5.2087,-5.2729,-5.3628,-5.507,-5.5537,-5.5615,-5.5587,-5.5274,-5.4834,-5.4411,-5.3583,-5.2833,-5.2389,-5.214,-5.2064,-5.0199,-5.2815,-5.4071,-5.4832,-5.5278,-5.5049,-5.48,-5.4633,-5.4581,-5.48,-5.5131,-5.5295,-5.5653,-5.6303,-5.5941,-5.5377,-5.4433,-5.4094,-5.3346,-5.2726,-5.329,-5.3434,-5.3577,-5.3782,-5.4017,-5.4389,-5.4794,-5.515,-5.606,-5.6216,-5.6121,-5.5613,-5.5001,-5.6624,-5.9595,-6.1281,-6.2508,-6.4919,-6.6088,-6.6594,-6.6754,-6.6774,-6.6817,-6.7331,-6.7859,-6.8268,-6.8708,-6.9297,-6.9484,-6.921,-6.872,-6.8177,-6.7393,-6.6322,-6.5141,-6.4132,-6.3356,-6.226,-6.1705,-6.1473,-6.1472,-6.1495,-6.1507,-6.1495,-6.1495,-6.1534,-6.1507,-6.1507,-6.1495,-6.1456,-6.1468,-6.1433,-6.1421,-6.1383,-6.1381,-6.1322,-6.1601,-6.2134,-6.2451,-6.2568,-6.2935,-6.3359,-6.3355,-6.2921,-6.2551,-6.2305,-6.1843,-6.1761,-6.195,-6.1865,-6.1818,-6.2146,-6.2473,-6.2155,-6.1385,-6.087,-5.93,-5.6676,-5.4339,-5.3016,-5.2284,-5.2392,-5.3506,-5.5288,-5.5781,-5.5756,-5.5687,-5.5861,-5.5273,-5.47,-5.3857,-5.3091,-5.2689,-5.2462,-5.2527]},{"header":{"parameterUnit":"m.s-1","parameterCategory":1,"la1":31.0,"la2":29.5877,"lo1":-88.7671,"lo2":-86.6584,"dy":0.0162,"dx":0.0185,"nx":115,"ny":88,"refTime":"2026-03-31T12:00:00:Z","depth":0,"parameterNumber":3,"parameterNumberName":"V-component_of_WINDS"},"data":[0.0,0.0,0.0,0.0,0.0,0.0,0.0,0.0,0.0,0.0,0.0,0.0,0.0,0.0,0.0,0.0,0.0,0.0,0.0,0.0,0.0,0.0,0.0,0.0,0.0,0.0,0.0,0.0,0.0,0.0,0.0,0.0,0.0,0.0,0.0,0.0,0.0,0.0,0.0,0.0,0.0,0.0,0.0,0.0,0.0,0.0,0.0,0.0,0.0,0.0,0.0,0.0,0.0,0.0,0.0,0.0,0.0,0.0,0.0,0.0,0.0,0.0,0.0,0.0,0.0,0.0,0.0,0.0,0.0,0.0,0.0,0.0,0.0,0.0,0.0,0.0,0.0,0.0,0.0,0.0,0.0,0.0,0.0,0.0,0.0,0.0,0.0,0.0,0.0,0.0,0.0,0.0,0.0,0.0,0.0,0.0,0.0,0.0,0.0,0.0,0.0,0.0,0.0,0.0,0.0,0.0,0.0,0.0,0.0,0.0,0.0,0.0,0.0,0.0,0.0,0.0,0.0,0.0,0.0,0.0,0.0,0.0,0.0,0.0,0.0,0.0,0.0,0.0,0.0,0.0,0.0,0.0,0.0,0.0,0.0,0.0,0.0,0.0,0.0,0.0,0.0,0.0,0.0,0.0,0.0,0.0,0.0,0.0,0.0,0.0,0.0,0.0,0.0,0.0,0.0,0.0,0.0,0.0,0.0,0.0,0.0,0.0,0.0,0.0,0.0,0.0,0.0,0.0,0.0,0.0,0.0,0.0,0.0,0.0,0.0,0.0,0.0,0.0,0.0,0.0,0.0,0.0,0.0,0.0,0.0,0.0,0.0,0.0,0.0,0.0,0.0,0.0,0.0,0.0,0.0,0.0,0.0,0.0,0.0,0.0,0.0,0.0,0.0,0.0,0.0,0.0,0.0,0.0,0.0,0.0,0.0,0.0,0.0,0.0,0.0,0.0,0.0,0.0,0.0,0.0,0.0,0.0,0.0,0.0,0.0,0.0,0.0,0.0,0.0,0.0,0.0,0.0,0.0,0.0,0.0,0.0,0.0,0.0,0.0,0.0,0.0,0.0,0.0,0.0,0.0,0.0,0.0,0.0,0.0,0.0,0.0,0.0,0.0,0.0,0.0,0.0,0.0,0.0,0.0,0.0,0.0,0.0,0.0,0.0,0.0,0.0,0.0,0.0,0.0,0.0,0.0,0.0,0.0,0.0,0.0,0.0,0.0,0.0,0.0,0.0,0.0,0.0,0.0,0.0,0.0,0.0,0.0,0.0,0.0,0.0,0.0,0.0,0.0,0.0,0.0,0.0,0.0,0.0,0.0,0.0,0.0,0.0,0.0,0.0,0.0,0.0,0.0,0.0,0.0,0.0,0.0,0.0,0.0,0.0,0.0,0.0,0.0,0.0,0.0,0.0,0.0,0.0,0.0,0.0,0.0,0.0,0.0,0.0,0.0,0.0,0.0,0.0,0.0,0.0,0.0,0.0,0.0,0.0,0.0,0.0,0.0,0.0,0.0,0.0,0.0,0.0,0.0,0.0,0.0,0.0,0.0,0.0,0.0,0.0,0.0,0.0,0.0,0.0,0.0,0.0,0.0,0.0,0.0,0.0,0.0,0.0,0.0,0.0,0.0,0.0,0.0,0.0,0.0,0.0,0.0,0.0,0.0,0.0,0.0,0.0,0.0,0.0,0.0,0.0,0.0,0.0,0.0,0.0,0.0,0.0,0.0,0.0,0.0,0.0,0.0,0.0,0.0,0.0,0.0,0.0,0.0,0.0,0.0,0.0,0.0,0.0,0.0,0.0,0.0,0.0,0.0,0.0,0.0,0.0,0.0,0.0,0.0,0.0,0.0,0.0,0.0,0.0,0.0,0.0,0.0,0.0,0.0,0.0,0.0,0.0,0.0,0.0,0.0,0.0,0.0,0.0,0.0,0.0,0.0,0.0,0.0,0.0,0.0,0.0,0.0,0.0,0.0,0.0,0.0,0.0,0.0,0.0,0.0,0.0,0.0,0.0,0.0,0.0,0.0,0.0,0.0,0.0,0.0,0.0,0.0,0.0,0.0,0.0,0.0,0.0,0.0,0.0,0.0,0.0,0.0,0.0,0.0,0.0,0.0,0.0,0.0,0.0,0.0,0.0,0.0,0.0,0.0,0.0,0.0,0.0,0.0,0.0,0.0,0.0,0.0,0.0,0.0,0.0,0.0,0.0,0.0,0.0,0.0,0.0,0.0,0.0,0.0,0.0,0.0,0.0,0.0,0.0,0.0,0.0,0.0,0.0,0.0,0.0,0.0,0.0,0.0,0.0,0.0,0.0,0.0,0.0,0.0,0.0,0.0,0.0,0.0,0.0,0.0,0.0,0.0,0.0,0.0,0.0,0.0,0.0,0.0,0.0,0.0,0.0,0.0,0.0,0.0,0.0,0.0,0.0,0.0,0.0,0.0,0.0,0.0,0.0,0.0,0.0,0.0,0.0,0.0,0.0,0.0,0.0,0.0,0.0,0.0,0.0,0.0,0.0,0.0,0.0,0.0,0.0,0.0,0.0,0.0,0.0,0.0,0.0,0.0,0.0,0.0,0.0,0.0,0.0,0.0,0.0,0.0,0.0,0.0,0.0,0.0,0.0,0.0,0.0,0.0,0.0,0.0,0.0,0.0,0.0,0.0,0.0,0.0,0.0,0.0,0.0,0.0,0.0,0.0,0.0,0.0,0.0,0.0,0.0,0.0,0.0,0.0,0.0,0.0,0.0,0.0,0.0,0.0,0.0,0.0,0.0,0.0,0.0,0.0,0.0,0.0,0.0,0.0,0.0,0.0,0.0,0.0,0.0,0.0,0.0,0.0,0.0,0.0,0.0,0.0,0.0,0.0,0.0,0.0,0.0,0.0,0.0,0.0,0.0,0.0,0.0,0.0,0.0,0.0,0.0,0.0,0.0,0.0,0.0,0.0,0.0,0.0,0.0,0.0,0.0,0.0,0.0,0.0,0.0,0.0,0.0,0.0,0.0,0.0,0.0,0.0,0.0,0.0,0.0,0.0,0.0,0.0,0.0,0.0,0.0,0.0,0.0,0.0,0.0,0.0,0.0,0.0,0.0,0.0,0.0,0.0,0.0,0.0,0.0,0.0,0.0,0.0,0.0,0.0,0.0,0.0,0.0,0.0,0.0,0.0,0.0,0.0,0.0,0.0,0.0,0.0,0.0,0.0,0.0,0.0,0.0,0.0,0.0,0.0,0.0,0.0,0.0,0.0,0.0,0.0,0.0,0.0,0.0,0.0,0.0,0.0,0.0,0.0,0.0,0.0,0.0,0.0,0.0,0.0,0.0,0.0,0.0,0.0,0.0,0.0,0.0,0.0,0.0,0.0,0.0,0.0,0.0,0.0,0.0,0.0,0.0,0.0,0.0,0.0,0.0,0.0,0.0,0.0,0.0,0.0,0.0,0.0,0.0,0.0,0.0,0.0,0.0,0.0,0.0,0.0,0.0,0.0,0.0,0.0,0.0,0.0,0.0,0.0,0.0,0.0,0.0,0.0,0.0,0.0,0.0,0.0,0.0,0.0,0.0,0.0,0.0,0.0,0.0,0.0,0.0,0.0,0.0,0.0,0.0,0.0,0.0,0.0,0.0,0.0,0.0,0.0,0.0,0.0,0.0,0.0,0.0,0.0,0.0,0.0,0.0,0.0,0.0,0.0,0.0,0.0,0.0,0.0,0.0,0.0,0.0,0.0,0.0,0.0,0.0,0.0,0.0,0.0,0.0,0.0,0.0,0.0,0.0,0.0,0.0,0.0,0.0,0.0,0.0,0.0,0.0,0.0,0.0,0.0,0.0,0.0,0.0,0.0,0.0,0.0,0.0,0.0,0.0,0.0,0.0,0.0,0.0,0.0,0.0,0.0,0.0,0.0,0.0,0.0,0.0,0.0,0.0,0.0,0.0,0.0,0.0,0.0,0.0,0.0,0.0,0.0,0.0,0.0,0.0,0.0,0.0,0.0,0.0,0.0,0.0,0.0,0.0,0.0,0.0,0.0,0.0,0.0,0.0,0.0,0.0,0.0,0.0,0.0,0.0,0.0,0.0,0.0,0.0,0.0,0.0,0.0,0.0,0.0,0.0,0.0,0.0,0.0,0.0,0.0,0.0,0.0,0.0,0.0,0.0,0.0,0.0,0.0,0.0,0.0,0.0,0.0,0.0,0.0,0.0,0.0,0.0,0.0,0.0,0.0,0.0,0.0,0.0,0.0,0.0,0.0,0.0,0.0,0.0,0.0,0.0,-2.3455,0.0,0.0,0.0,0.0,0.0,0.0,0.0,0.0,0.0,0.0,0.0,0.0,0.0,0.0,0.0,0.0,0.0,0.0,0.0,0.0,0.0,0.0,0.0,0.0,0.0,0.0,0.0,0.0,0.0,0.0,0.0,0.0,0.0,0.0,0.0,0.0,0.0,0.0,0.0,0.0,0.0,0.0,0.0,0.0,0.0,0.0,0.0,0.0,0.0,0.0,0.0,0.0,0.0,0.0,0.0,0.0,0.0,0.0,0.0,0.0,0.0,0.0,0.0,0.0,0.0,0.0,0.0,0.0,0.0,0.0,0.0,0.0,0.0,0.0,0.0,0.0,0.0,0.0,0.0,0.0,0.0,0.0,0.0,0.0,0.0,0.0,0.0,0.0,0.0,0.0,0.0,0.0,0.0,0.0,0.0,0.0,0.0,0.0,0.0,0.0,0.0,0.0,0.0,0.0,0.0,0.0,0.0,0.0,0.0,0.0,-2.5839,-2.5541,-2.4441,-2.3667,-2.3259,0.0,0.0,0.0,0.0,0.0,0.0,0.0,0.0,0.0,0.0,0.0,0.0,0.0,0.0,0.0,0.0,0.0,0.0,0.0,0.0,0.0,0.0,0.0,0.0,0.0,0.0,0.0,0.0,0.0,0.0,0.0,0.0,0.0,0.0,0.0,0.0,0.0,0.0,0.0,0.0,0.0,0.0,0.0,0.0,0.0,0.0,0.0,0.0,0.0,0.0,0.0,0.0,0.0,0.0,0.0,0.0,0.0,0.0,0.0,0.0,0.0,0.0,0.0,0.0,0.0,0.0,0.0,0.0,0.0,0.0,0.0,0.0,0.0,0.0,0.0,0.0,0.0,0.0,0.0,0.0,0.0,0.0,0.0,0.0,0.0,0.0,0.0,0.0,0.0,0.0,0.0,0.0,0.0,0.0,0.0,0.0,0.0,0.0,0.0,0.0,0.0,0.0,0.0,0.0,0.0,0.0,0.0,0.0,0.0,0.0,0.0,0.0,-2.4365,-2.3558,-2.3063,0.0,0.0,0.0,0.0,0.0,0.0,0.0,0.0,0.0,0.0,0.0,0.0,0.0,0.0,0.0,0.0,0.0,0.0,0.0,0.0,0.0,0.0,0.0,0.0,0.0,0.0,0.0,0.0,0.0,0.0,0.0,0.0,0.0,0.0,0.0,0.0,0.0,0.0,0.0,0.0,0.0,0.0,0.0,0.0,0.0,0.0,0.0,0.0,0.0,0.0,0.0,0.0,0.0,0.0,0.0,0.0,0.0,0.0,0.0,0.0,0.0,0.0,0.0,0.0,0.0,0.0,0.0,0.0,0.0,0.0,0.0,0.0,0.0,0.0,0.0,0.0,0.0,0.0,0.0,0.0,0.0,0.0,0.0,0.0,0.0,0.0,0.0,0.0,0.0,0.0,0.0,0.0,0.0,0.0,0.0,0.0,0.0,0.0,0.0,0.0,0.0,0.0,0.0,0.0,0.0,0.0,0.0,0.0,0.0,0.0,-2.5061,-2.5392,-2.4361,0.0,-2.2773,0.0,0.0,0.0,0.0,0.0,0.0,0.0,0.0,0.0,0.0,0.0,0.0,0.0,0.0,0.0,0.0,0.0,0.0,0.0,0.0,0.0,0.0,0.0,0.0,0.0,0.0,0.0,0.0,0.0,0.0,0.0,0.0,0.0,0.0,0.0,0.0,0.0,0.0,0.0,0.0,0.0,0.0,0.0,0.0,0.0,0.0,0.0,0.0,0.0,0.0,0.0,0.0,0.0,0.0,0.0,0.0,0.0,0.0,0.0,0.0,0.0,0.0,0.0,0.0,0.0,0.0,0.0,0.0,0.0,0.0,0.0,0.0,0.0,0.0,0.0,0.0,0.0,0.0,0.0,0.0,0.0,0.0,0.0,0.0,0.0,0.0,0.0,0.0,0.0,0.0,0.0,0.0,0.0,0.0,0.0,0.0,0.0,0.0,0.0,0.0,0.0,0.0,0.0,0.0,0.0,0.0,0.0,0.0,0.0,0.0,-2.4729,-2.469,-2.4302,-2.3844,0.0,0.0,0.0,0.0,0.0,0.0,0.0,0.0,0.0,0.0,0.0,0.0,0.0,0.0,0.0,0.0,0.0,0.0,0.0,0.0,0.0,0.0,0.0,0.0,0.0,0.0,0.0,0.0,0.0,0.0,0.0,0.0,0.0,0.0,0.0,0.0,0.0,0.0,0.0,0.0,0.0,0.0,0.0,0.0,0.0,0.0,0.0,0.0,0.0,0.0,0.0,0.0,0.0,0.0,0.0,0.0,0.0,0.0,0.0,0.0,0.0,0.0,0.0,0.0,0.0,0.0,0.0,0.0,0.0,0.0,0.0,0.0,0.0,0.0,0.0,0.0,0.0,0.0,0.0,0.0,0.0,0.0,0.0,0.0,0.0,0.0,0.0,0.0,0.0,0.0,0.0,0.0,0.0,0.0,0.0,0.0,0.0,0.0,0.0,0.0,0.0,0.0,0.0,0.0,0.0,0.0,0.0,0.0,0.0,0.0,-2.4525,-2.4493,-2.417,-2.4468,-2.4191,-2.315,0.0,0.0,0.0,0.0,0.0,0.0,0.0,0.0,0.0,0.0,0.0,0.0,0.0,0.0,0.0,0.0,0.0,0.0,0.0,0.0,0.0,0.0,0.0,0.0,0.0,0.0,0.0,0.0,0.0,0.0,0.0,0.0,0.0,0.0,0.0,0.0,0.0,0.0,0.0,0.0,0.0,0.0,0.0,0.0,0.0,0.0,0.0,0.0,0.0,0.0,0.0,0.0,0.0,0.0,0.0,0.0,0.0,0.0,0.0,0.0,0.0,0.0,0.0,0.0,0.0,0.0,0.0,0.0,0.0,0.0,0.0,0.0,0.0,0.0,0.0,0.0,0.0,0.0,0.0,0.0,0.0,0.0,0.0,0.0,0.0,0.0,0.0,0.0,0.0,0.0,0.0,0.0,0.0,0.0,0.0,0.0,0.0,0.0,0.0,0.0,0.0,0.0,0.0,0.0,0.0,0.0,0.0,0.0,0.0,-2.476,-2.4442,-2.3992,-2.498,-2.4356,0.0,0.0,0.0,0.0,0.0,0.0,0.0,0.0,0.0,0.0,0.0,0.0,0.0,0.0,0.0,0.0,0.0,0.0,0.0,0.0,0.0,0.0,0.0,0.0,0.0,0.0,0.0,0.0,0.0,0.0,0.0,0.0,0.0,0.0,0.0,0.0,0.0,0.0,0.0,0.0,0.0,0.0,0.0,0.0,0.0,0.0,0.0,0.0,0.0,0.0,0.0,0.0,0.0,0.0,0.0,0.0,0.0,0.0,0.0,0.0,0.0,0.0,0.0,0.0,0.0,0.0,0.0,0.0,0.0,0.0,0.0,0.0,0.0,0.0,0.0,0.0,0.0,0.0,0.0,0.0,0.0,0.0,0.0,0.0,0.0,0.0,0.0,0.0,0.0,0.0,0.0,0.0,0.0,0.0,0.0,0.0,0.0,0.0,0.0,0.0,0.0,0.0,0.0,0.0,0.0,0.0,0.0,0.0,0.0,-2.4208,-2.4345,-2.4506,-2.4626,-2.4372,-2.3647,0.0,0.0,0.0,0.0,0.0,0.0,0.0,0.0,0.0,0.0,0.0,0.0,0.0,0.0,0.0,0.0,0.0,0.0,0.0,0.0,0.0,0.0,0.0,0.0,0.0,0.0,0.0,0.0,0.0,0.0,0.0,0.0,0.0,0.0,0.0,0.0,0.0,0.0,0.0,0.0,0.0,0.0,0.0,0.0,0.0,0.0,0.0,0.0,0.0,0.0,0.0,0.0,0.0,0.0,0.0,0.0,0.0,0.0,0.0,0.0,0.0,0.0,0.0,0.0,0.0,0.0,0.0,0.0,0.0,0.0,0.0,0.0,0.0,0.0,0.0,0.0,0.0,0.0,0.0,0.0,0.0,0.0,0.0,0.0,0.0,0.0,0.0,0.0,0.0,0.0,0.0,0.0,0.0,0.0,0.0,0.0,0.0,0.0,0.0,0.0,0.0,0.0,0.0,0.0,0.0,0.0,0.0,0.0,0.0,-2.445,0.0,-2.5368,0.0,-2.4559,-2.3732,0.0,0.0,0.0,0.0,0.0,0.0,0.0,0.0,0.0,0.0,0.0,0.0,0.0,0.0,0.0,0.0,0.0,0.0,0.0,0.0,0.0,0.0,0.0,0.0,0.0,0.0,0.0,0.0,0.0,0.0,0.0,0.0,0.0,0.0,0.0,0.0,0.0,0.0,0.0,0.0,0.0,0.0,0.0,0.0,0.0,0.0,0.0,0.0,0.0,0.0,0.0,0.0,0.0,0.0,0.0,0.0,0.0,0.0,0.0,0.0,0.0,0.0,0.0,0.0,0.0,0.0,0.0,0.0,0.0,0.0,0.0,0.0,0.0,0.0,0.0,0.0,0.0,0.0,0.0,0.0,0.0,0.0,0.0,0.0,0.0,0.0,0.0,0.0,0.0,0.0,0.0,0.0,0.0,0.0,0.0,0.0,0.0,0.0,0.0,0.0,0.0,0.0,0.0,0.0,0.0,0.0,0.0,0.0,-2.5411,-2.5833,-2.7153,-2.6964,-2.5345,-2.5636,-2.4718,0.0,0.0,0.0,0.0,0.0,0.0,0.0,0.0,0.0,0.0,0.0,0.0,0.0,0.0,0.0,0.0,0.0,0.0,0.0,0.0,0.0,0.0,0.0,0.0,0.0,0.0,0.0,0.0,0.0,0.0,0.0,0.0,0.0,0.0,0.0,0.0,0.0,0.0,0.0,0.0,0.0,0.0,0.0,0.0,0.0,0.0,0.0,0.0,0.0,0.0,0.0,0.0,0.0,0.0,0.0,0.0,0.0,0.0,0.0,0.0,0.0,0.0,0.0,0.0,0.0,0.0,0.0,0.0,0.0,0.0,0.0,0.0,0.0,0.0,0.0,0.0,0.0,0.0,0.0,0.0,0.0,0.0,0.0,0.0,0.0,0.0,0.0,0.0,0.0,0.0,0.0,0.0,0.0,0.0,0.0,0.0,0.0,0.0,0.0,0.0,0.0,0.0,0.0,0.0,0.0,0.0,0.0,0.0,0.0,-2.7343,-2.758,-2.7419,-2.6786,-2.5778,-2.4595,0.0,0.0,0.0,0.0,0.0,0.0,0.0,0.0,0.0,0.0,0.0,0.0,0.0,0.0,0.0,0.0,0.0,0.0,0.0,0.0,0.0,0.0,0.0,0.0,0.0,0.0,0.0,0.0,0.0,0.0,0.0,0.0,0.0,0.0,0.0,0.0,0.0,0.0,0.0,0.0,0.0,0.0,0.0,0.0,0.0,0.0,0.0,0.0,0.0,0.0,0.0,0.0,0.0,0.0,0.0,0.0,0.0,0.0,0.0,0.0,0.0,0.0,0.0,0.0,0.0,0.0,0.0,0.0,0.0,0.0,0.0,0.0,0.0,0.0,0.0,0.0,0.0,0.0,0.0,0.0,0.0,0.0,0.0,0.0,0.0,0.0,0.0,0.0,0.0,0.0,0.0,0.0,0.0,0.0,0.0,0.0,0.0,0.0,0.0,0.0,0.0,0.0,0.0,0.0,0.0,0.0,0.0,0.0,0.0,-3.1372,-3.0661,-2.9901,-2.9228,-2.785,-2.6273,-2.4444,0.0,0.0,0.0,0.0,0.0,0.0,0.0,0.0,0.0,0.0,0.0,0.0,0.0,0.0,0.0,0.0,0.0,0.0,0.0,0.0,0.0,0.0,0.0,0.0,0.0,0.0,0.0,0.0,0.0,0.0,0.0,0.0,0.0,0.0,0.0,0.0,0.0,0.0,0.0,0.0,0.0,0.0,0.0,0.0,0.0,0.0,0.0,0.0,0.0,0.0,0.0,0.0,0.0,0.0,0.0,0.0,0.0,0.0,0.0,0.0,0.0,0.0,0.0,0.0,0.0,0.0,0.0,0.0,0.0,0.0,0.0,0.0,0.0,0.0,0.0,0.0,0.0,0.0,0.0,0.0,0.0,0.0,0.0,0.0,0.0,0.0,0.0,0.0,0.0,0.0,0.0,0.0,0.0,0.0,0.0,0.0,0.0,0.0,0.0,0.0,0.0,0.0,0.0,0.0,0.0,0.0,0.0,0.0,-3.7411,-3.6079,-3.4401,-3.2385,-3.1556,-2.9529,0.0,0.0,0.0,0.0,0.0,0.0,0.0,0.0,0.0,0.0,0.0,0.0,0.0,0.0,0.0,0.0,0.0,0.0,0.0,0.0,0.0,0.0,0.0,0.0,0.0,0.0,0.0,0.0,0.0,0.0,0.0,0.0,0.0,0.0,0.0,0.0,0.0,0.0,0.0,0.0,0.0,0.0,0.0,0.0,0.0,0.0,0.0,0.0,0.0,0.0,0.0,0.0,0.0,0.0,0.0,0.0,0.0,0.0,0.0,0.0,0.0,0.0,0.0,0.0,0.0,0.0,0.0,0.0,0.0,0.0,0.0,0.0,0.0,0.0,0.0,0.0,0.0,0.0,0.0,0.0,0.0,0.0,0.0,0.0,0.0,0.0,0.0,0.0,0.0,0.0,0.0,0.0,0.0,0.0,0.0,0.0,0.0,0.0,0.0,0.0,0.0,0.0,0.0,0.0,0.0,0.0,0.0,0.0,0.0,-4.0586,-4.2305,-4.0962,-3.6394,-3.4957,-3.2701,0.0,0.0,0.0,0.0,0.0,0.0,0.0,0.0,0.0,0.0,0.0,0.0,0.0,0.0,0.0,0.0,0.0,0.0,0.0,0.0,0.0,0.0,0.0,0.0,0.0,0.0,0.0,0.0,0.0,0.0,0.0,0.0,0.0,0.0,0.0,0.0,0.0,0.0,0.0,0.0,0.0,0.0,0.0,0.0,0.0,0.0,0.0,0.0,0.0,0.0,0.0,0.0,0.0,0.0,0.0,0.0,0.0,0.0,0.0,0.0,0.0,0.0,0.0,0.0,0.0,0.0,0.0,0.0,0.0,0.0,0.0,0.0,0.0,0.0,0.0,0.0,0.0,0.0,0.0,0.0,0.0,0.0,0.0,0.0,0.0,0.0,0.0,0.0,0.0,0.0,0.0,0.0,0.0,0.0,0.0,0.0,0.0,0.0,0.0,0.0,0.0,0.0,0.0,0.0,0.0,0.0,0.0,0.0,-3.9417,-4.398,-4.713,-4.6699,-4.2306,-3.8723,-3.5005,0.0,0.0,0.0,0.0,0.0,0.0,0.0,0.0,0.0,0.0,0.0,0.0,0.0,0.0,0.0,0.0,0.0,0.0,0.0,0.0,0.0,0.0,0.0,0.0,0.0,0.0,0.0,0.0,0.0,0.0,0.0,0.0,0.0,0.0,0.0,0.0,0.0,0.0,0.0,0.0,0.0,0.0,0.0,0.0,0.0,0.0,0.0,0.0,0.0,0.0,0.0,0.0,0.0,0.0,0.0,0.0,0.0,0.0,0.0,0.0,0.0,0.0,0.0,0.0,0.0,0.0,0.0,0.0,0.0,0.0,0.0,0.0,0.0,0.0,0.0,0.0,0.0,0.0,0.0,0.0,0.0,0.0,0.0,0.0,0.0,0.0,0.0,0.0,0.0,0.0,0.0,0.0,0.0,0.0,0.0,0.0,0.0,0.0,0.0,0.0,0.0,0.0,0.0,0.0,0.0,0.0,0.0,0.0,-4.2543,-4.7046,-5.0669,-5.1178,-4.8468,-4.2619,-3.7111,0.0,0.0,0.0,0.0,0.0,0.0,0.0,0.0,0.0,0.0,0.0,0.0,0.0,0.0,0.0,0.0,0.0,0.0,0.0,0.0,0.0,0.0,0.0,0.0,0.0,0.0,0.0,0.0,0.0,0.0,0.0,0.0,0.0,0.0,0.0,0.0,0.0,0.0,0.0,0.0,0.0,0.0,0.0,0.0,0.0,0.0,0.0,0.0,0.0,0.0,0.0,0.0,0.0,0.0,0.0,0.0,0.0,0.0,0.0,0.0,0.0,0.0,0.0,0.0,0.0,0.0,0.0,0.0,0.0,0.0,0.0,0.0,0.0,0.0,0.0,0.0,0.0,0.0,0.0,0.0,0.0,0.0,0.0,0.0,0.0,0.0,0.0,0.0,0.0,0.0,0.0,0.0,0.0,0.0,0.0,0.0,0.0,0.0,0.0,0.0,0.0,0.0,0.0,0.0,0.0,0.0,0.0,0.0,-4.4381,-4.8405,-5.1953,-5.233,-4.9328,-4.4993,-4.0653,0.0,0.0,0.0,0.0,0.0,0.0,0.0,0.0,0.0,0.0,0.0,0.0,0.0,0.0,0.0,0.0,0.0,0.0,0.0,0.0,0.0,0.0,0.0,0.0,0.0,0.0,0.0,0.0,0.0,0.0,0.0,0.0,0.0,0.0,0.0,0.0,0.0,0.0,0.0,0.0,0.0,0.0,0.0,0.0,0.0,0.0,0.0,0.0,-1.9178,0.0,0.0,0.0,0.0,0.0,0.0,0.0,0.0,0.0,0.0,0.0,0.0,0.0,0.0,0.0,0.0,0.0,0.0,0.0,0.0,0.0,0.0,0.0,0.0,0.0,0.0,0.0,0.0,0.0,0.0,0.0,0.0,0.0,0.0,0.0,0.0,0.0,0.0,0.0,0.0,0.0,0.0,0.0,0.0,0.0,0.0,0.0,0.0,0.0,0.0,0.0,0.0,0.0,0.0,0.0,0.0,0.0,0.0,0.0,-4.7192,-5.0317,-5.3145,-5.3447,-5.0959,-4.7222,-4.2751,0.0,0.0,0.0,0.0,0.0,0.0,0.0,0.0,0.0,0.0,0.0,0.0,0.0,0.0,0.0,0.0,0.0,0.0,0.0,0.0,0.0,0.0,0.0,0.0,0.0,0.0,0.0,0.0,0.0,0.0,0.0,0.0,0.0,0.0,0.0,0.0,0.0,0.0,0.0,0.0,0.0,0.0,0.0,0.0,0.0,0.0,0.0,0.0,0.0,0.0,0.0,0.0,0.0,0.0,0.0,0.0,0.0,0.0,0.0,0.0,0.0,0.0,0.0,0.0,0.0,0.0,0.0,0.0,0.0,0.0,0.0,0.0,0.0,0.0,0.0,0.0,0.0,0.0,0.0,0.0,0.0,0.0,0.0,0.0,0.0,0.0,0.0,0.0,0.0,0.0,0.0,0.0,0.0,0.0,0.0,0.0,0.0,0.0,0.0,0.0,0.0,0.0,0.0,0.0,0.0,0.0,0.0,-4.6005,-4.9883,-5.2174,-5.4203,-5.4349,-5.2413,-4.8816,-4.3898,-3.7595,0.0,0.0,0.0,0.0,0.0,0.0,0.0,0.0,0.0,0.0,0.0,0.0,0.0,0.0,0.0,0.0,0.0,0.0,0.0,0.0,0.0,0.0,0.0,0.0,0.0,0.0,0.0,0.0,0.0,0.0,0.0,0.0,0.0,0.0,0.0,0.0,0.0,0.0,-1.6061,-1.7091,0.0,0.0,0.0,0.0,0.0,0.0,0.0,0.0,-1.7327,0.0,0.0,0.0,0.0,0.0,0.0,0.0,0.0,0.0,0.0,0.0,0.0,0.0,0.0,0.0,0.0,0.0,0.0,0.0,0.0,0.0,0.0,0.0,0.0,0.0,0.0,0.0,0.0,0.0,0.0,0.0,0.0,0.0,0.0,0.0,0.0,0.0,0.0,0.0,0.0,0.0,0.0,0.0,0.0,0.0,0.0,0.0,0.0,0.0,0.0,0.0,0.0,0.0,0.0,0.0,0.0,-4.2734,-4.771,-5.1034,-5.2651,-5.4955,-5.4652,-5.1405,-4.84,-4.4024,-3.8128,0.0,0.0,0.0,0.0,0.0,0.0,0.0,0.0,0.0,0.0,0.0,0.0,0.0,0.0,0.0,0.0,0.0,0.0,0.0,0.0,0.0,0.0,0.0,0.0,0.0,0.0,0.0,0.0,0.0,0.0,0.0,0.0,0.0,0.0,0.0,0.0,0.0,0.0,0.0,-1.8688,-1.9398,0.0,0.0,0.0,0.0,0.0,0.0,0.0,0.0,-1.7852,0.0,0.0,0.0,0.0,0.0,0.0,0.0,0.0,0.0,0.0,0.0,0.0,0.0,0.0,0.0,0.0,0.0,0.0,0.0,0.0,0.0,0.0,0.0,0.0,0.0,0.0,0.0,0.0,0.0,0.0,0.0,0.0,0.0,0.0,0.0,0.0,0.0,0.0,0.0,0.0,0.0,0.0,0.0,0.0,0.0,0.0,0.0,0.0,0.0,0.0,0.0,0.0,0.0,0.0,0.0,-4.4542,-4.9472,-5.2607,-5.3905,-5.5454,-5.4579,-5.1176,-4.7745,-4.319,0.0,0.0,0.0,0.0,0.0,0.0,0.0,0.0,0.0,0.0,0.0,0.0,0.0,0.0,0.0,0.0,0.0,0.0,0.0,0.0,0.0,0.0,0.0,0.0,0.0,0.0,0.0,0.0,0.0,0.0,0.0,0.0,0.0,0.0,0.0,0.0,0.0,0.0,0.0,0.0,-1.9936,-2.0507,-2.151,0.0,0.0,0.0,0.0,0.0,0.0,-1.8611,-1.8187,0.0,0.0,0.0,0.0,0.0,0.0,0.0,0.0,0.0,0.0,0.0,0.0,0.0,0.0,0.0,0.0,0.0,0.0,0.0,0.0,0.0,0.0,0.0,0.0,0.0,0.0,0.0,0.0,0.0,0.0,0.0,0.0,0.0,0.0,0.0,0.0,0.0,0.0,0.0,0.0,0.0,0.0,0.0,0.0,0.0,0.0,0.0,0.0,0.0,0.0,0.0,0.0,0.0,0.0,0.0,-4.5853,-5.0748,-5.3828,-5.4934,-5.579,-5.4579,-5.1088,-4.716,-4.2437,0.0,0.0,0.0,0.0,0.0,0.0,0.0,0.0,0.0,0.0,0.0,0.0,0.0,0.0,0.0,0.0,0.0,0.0,0.0,0.0,0.0,0.0,0.0,0.0,0.0,0.0,0.0,0.0,0.0,0.0,0.0,0.0,0.0,0.0,0.0,0.0,0.0,0.0,0.0,0.0,0.0,-2.1502,-2.2373,-2.062,0.0,0.0,0.0,0.0,-1.8955,-1.8991,0.0,0.0,0.0,0.0,0.0,0.0,0.0,0.0,0.0,0.0,0.0,0.0,0.0,0.0,0.0,0.0,0.0,0.0,0.0,0.0,0.0,0.0,0.0,0.0,0.0,0.0,0.0,0.0,0.0,0.0,0.0,0.0,0.0,0.0,0.0,0.0,0.0,0.0,0.0,0.0,0.0,0.0,0.0,0.0,0.0,0.0,0.0,0.0,0.0,0.0,0.0,0.0,0.0,0.0,0.0,0.0,-4.5837,-5.0921,-5.3954,-5.4803,-5.5936,-5.4687,-5.0854,-4.7096,-4.2356,0.0,0.0,0.0,0.0,0.0,0.0,0.0,0.0,0.0,0.0,0.0,0.0,0.0,0.0,0.0,0.0,0.0,0.0,0.0,0.0,0.0,0.0,0.0,0.0,0.0,0.0,0.0,0.0,0.0,0.0,0.0,0.0,0.0,0.0,0.0,0.0,0.0,0.0,0.0,0.0,0.0,-2.2088,-2.3446,-2.1665,-2.0884,0.0,0.0,-2.0567,-2.1699,-2.1018,0.0,0.0,0.0,0.0,0.0,0.0,0.0,0.0,0.0,0.0,0.0,0.0,0.0,0.0,0.0,0.0,0.0,0.0,0.0,0.0,0.0,0.0,0.0,0.0,0.0,0.0,0.0,0.0,0.0,0.0,0.0,0.0,0.0,0.0,0.0,0.0,0.0,0.0,0.0,0.0,0.0,0.0,0.0,0.0,0.0,0.0,0.0,0.0,0.0,0.0,0.0,0.0,0.0,0.0,0.0,-4.0348,-4.6336,-5.1154,-5.4276,-5.5628,-5.6313,-5.4795,-5.1034,-4.7417,-4.2626,0.0,0.0,0.0,0.0,0.0,0.0,0.0,0.0,0.0,0.0,0.0,0.0,0.0,0.0,0.0,0.0,0.0,0.0,0.0,0.0,0.0,0.0,0.0,0.0,0.0,0.0,0.0,0.0,0.0,0.0,0.0,0.0,0.0,0.0,0.0,0.0,0.0,0.0,0.0,0.0,0.0,0.0,-2.4367,-2.2596,0.0,0.0,0.0,-2.1332,-2.2582,0.0,0.0,0.0,0.0,0.0,0.0,0.0,0.0,0.0,0.0,0.0,0.0,0.0,0.0,0.0,0.0,0.0,0.0,0.0,0.0,0.0,0.0,0.0,0.0,0.0,0.0,0.0,0.0,0.0,0.0,0.0,0.0,0.0,0.0,0.0,0.0,0.0,0.0,0.0,0.0,0.0,0.0,0.0,0.0,0.0,0.0,0.0,0.0,0.0,0.0,0.0,0.0,0.0,0.0,0.0,0.0,0.0,-4.6788,-5.1525,-5.4721,-5.6292,-5.6706,-5.5134,-5.1476,-4.8137,0.0,0.0,0.0,0.0,0.0,0.0,0.0,0.0,0.0,0.0,0.0,0.0,0.0,0.0,0.0,0.0,0.0,0.0,0.0,0.0,0.0,0.0,0.0,0.0,0.0,0.0,0.0,-0.7761,0.0,0.0,0.0,0.0,0.0,0.0,0.0,0.0,0.0,0.0,0.0,0.0,0.0,0.0,-2.3001,-2.4983,-2.3613,-2.2936,0.0,0.0,-2.2463,-2.3482,-2.3257,-2.2579,0.0,0.0,0.0,0.0,0.0,0.0,0.0,0.0,0.0,0.0,0.0,0.0,0.0,0.0,0.0,0.0,0.0,0.0,0.0,0.0,0.0,0.0,0.0,0.0,0.0,0.0,0.0,0.0,0.0,0.0,0.0,0.0,0.0,0.0,0.0,0.0,0.0,0.0,0.0,0.0,0.0,0.0,0.0,0.0,0.0,0.0,0.0,0.0,0.0,0.0,0.0,0.0,0.0,0.0,0.0,-4.69,-5.2213,-5.5308,-5.6253,-5.7243,-5.599,-5.2305,-4.9415,-4.5003,0.0,0.0,0.0,0.0,0.0,0.0,0.0,0.0,0.0,0.0,0.0,0.0,0.0,0.0,0.0,0.0,0.0,0.0,0.0,0.0,0.0,0.0,0.0,0.0,0.0,0.0,0.0,0.0,0.0,0.0,0.0,0.0,0.0,0.0,0.0,0.0,0.0,0.0,0.0,0.0,0.0,-2.3185,-2.5037,-2.4691,-2.4656,0.0,-2.5019,-2.4426,-2.5112,-2.4713,-2.4042,-2.3315,0.0,0.0,0.0,0.0,0.0,0.0,0.0,0.0,0.0,0.0,0.0,0.0,0.0,0.0,0.0,0.0,0.0,0.0,0.0,0.0,0.0,0.0,0.0,0.0,0.0,0.0,0.0,0.0,0.0,0.0,0.0,0.0,0.0,0.0,0.0,0.0,0.0,0.0,0.0,0.0,0.0,0.0,0.0,0.0,0.0,0.0,0.0,0.0,0.0,0.0,0.0,0.0,0.0,-4.0917,-4.7204,-5.2437,-5.5544,-5.6328,-5.6814,-5.5508,-5.2305,-4.9538,-4.5436,0.0,0.0,0.0,0.0,0.0,0.0,0.0,0.0,0.0,0.0,0.0,0.0,0.0,0.0,0.0,0.0,0.0,0.0,0.0,0.0,0.0,0.0,0.0,0.0,0.0,0.0,0.0,0.0,-0.9305,-0.9949,-1.0628,0.0,0.0,0.0,0.0,0.0,0.0,0.0,0.0,0.0,0.0,-2.163,-2.4018,-2.4547,0.0,0.0,-2.561,-2.5373,-2.5958,-2.5261,-2.4378,-2.3271,-2.1526,0.0,0.0,0.0,0.0,0.0,0.0,0.0,0.0,0.0,0.0,0.0,0.0,0.0,0.0,0.0,0.0,0.0,0.0,0.0,0.0,0.0,0.0,0.0,0.0,0.0,0.0,0.0,0.0,0.0,0.0,0.0,0.0,0.0,0.0,0.0,0.0,0.0,0.0,0.0,0.0,0.0,0.0,0.0,0.0,0.0,0.0,0.0,0.0,0.0,0.0,0.0,0.0,-4.1395,-4.7421,-5.2888,-5.5902,-5.6437,-5.6796,-5.5544,-5.2658,-5.0134,-4.6272,0.0,0.0,0.0,0.0,0.0,0.0,0.0,0.0,0.0,0.0,0.0,0.0,0.0,0.0,0.0,0.0,0.0,0.0,0.0,0.0,0.0,0.0,0.0,0.0,0.0,0.0,0.0,0.0,-0.9893,-1.0602,-1.1276,0.0,0.0,0.0,0.0,0.0,0.0,0.0,0.0,0.0,0.0,-2.0328,-2.2818,-2.4305,-2.5359,-2.5936,-2.5722,-2.553,-2.5836,-2.5256,-2.4399,-2.3416,0.0,0.0,0.0,0.0,0.0,0.0,0.0,0.0,0.0,0.0,0.0,0.0,0.0,0.0,0.0,0.0,0.0,0.0,0.0,0.0,0.0,0.0,0.0,0.0,0.0,0.0,0.0,-2.666,0.0,0.0,-2.5754,0.0,0.0,0.0,0.0,0.0,0.0,0.0,0.0,0.0,0.0,0.0,0.0,0.0,0.0,0.0,0.0,0.0,0.0,0.0,0.0,0.0,0.0,-4.2049,-4.7669,-5.354,-5.6564,-5.6635,-5.7352,-5.6328,-5.3435,-5.1465,-4.7805,-4.2133,0.0,0.0,0.0,0.0,0.0,0.0,0.0,0.0,0.0,0.0,0.0,0.0,0.0,0.0,0.0,0.0,0.0,0.0,0.0,0.0,0.0,0.0,0.0,0.0,0.0,0.0,-0.9476,-0.9463,-0.9887,0.0,0.0,0.0,0.0,0.0,0.0,0.0,0.0,0.0,0.0,-1.7789,-1.93,-2.1748,-2.4075,-2.548,-2.5661,-2.5289,-2.4955,-2.4755,-2.4545,-2.4353,0.0,0.0,0.0,0.0,0.0,0.0,0.0,0.0,0.0,0.0,0.0,0.0,0.0,0.0,0.0,0.0,0.0,0.0,0.0,0.0,0.0,0.0,0.0,0.0,0.0,0.0,0.0,-3.1478,-3.0887,0.0,0.0,0.0,0.0,0.0,0.0,0.0,0.0,0.0,0.0,0.0,-4.1827,-4.3102,0.0,0.0,0.0,0.0,0.0,0.0,0.0,0.0,0.0,0.0,0.0,0.0,-4.2159,-4.7705,-5.3773,-5.6829,-5.676,-5.6868,-5.5847,-5.358,-5.101,-4.591,-3.7853,0.0,0.0,0.0,0.0,0.0,0.0,0.0,0.0,0.0,0.0,0.0,0.0,0.0,0.0,0.0,0.0,0.0,0.0,0.0,0.0,0.0,0.0,0.0,0.0,0.0,-0.9676,0.0,0.0,0.0,0.0,0.0,0.0,0.0,0.0,0.0,0.0,0.0,-1.1464,-1.3411,-1.4969,-1.6814,-1.9281,-2.2538,-2.4525,0.0,0.0,0.0,0.0,0.0,0.0,0.0,0.0,0.0,0.0,0.0,0.0,0.0,0.0,-0.8582,-0.6936,-0.5801,-0.4691,-0.3601,0.0,0.0,0.0,0.0,0.0,0.0,0.0,0.0,0.0,0.0,0.0,0.0,0.0,0.0,-3.6222,0.0,-3.3134,0.0,0.0,0.0,0.0,0.0,0.0,0.0,0.0,-4.3894,-4.6111,-4.7972,-4.9502,-5.0172,0.0,-5.0534,-4.7212,0.0,0.0,0.0,0.0,0.0,0.0,0.0,0.0,-4.2923,-4.8187,-5.4014,-5.6881,-5.6724,-5.6528,-5.5596,-5.3788,-5.0049,-4.4403,-3.6659,-3.2542,-2.8428,0.0,0.0,0.0,0.0,0.0,0.0,0.0,0.0,0.0,0.0,0.0,0.0,0.0,0.0,0.0,0.0,0.0,0.0,0.0,0.0,0.0,0.0,0.0,-0.9654,0.0,0.0,0.0,0.0,0.0,0.0,0.0,0.0,0.0,-1.0421,-0.9832,-0.988,-1.1715,-1.3331,-1.5259,-1.762,0.0,0.0,0.0,0.0,0.0,0.0,0.0,-2.358,-2.5094,-2.5829,-2.5203,-2.2185,-1.8112,-1.4351,-1.1511,0.0,0.0,-0.6036,-0.4731,-0.3484,-0.2274,-0.1254,-0.0177,0.1027,0.2641,0.4381,0.0,0.0,0.0,0.0,0.0,0.0,0.0,0.0,-4.2382,-4.0907,0.0,-3.6699,0.0,0.0,0.0,0.0,0.0,-3.5773,0.0,0.0,-4.8769,-5.1775,-5.3981,-5.5432,-5.5995,-5.5655,-5.6421,-5.4812,-5.0743,-4.3791,0.0,0.0,0.0,0.0,0.0,0.0,-4.4267,-4.9112,-5.4279,-5.6845,-5.66,-5.6402,-5.5532,-5.3906,-4.8678,-4.3495,-3.8687,-3.5694,-3.2063,-2.7454,-2.5846,0.0,0.0,0.0,0.0,0.0,0.0,0.0,0.0,0.0,0.0,0.0,0.0,0.0,0.0,0.0,0.0,0.0,0.0,0.0,0.0,-0.8931,0.0,0.0,0.0,0.0,0.0,0.0,0.0,0.0,0.0,0.0,-0.9741,-0.9939,-1.0307,-1.1476,0.0,0.0,0.0,0.0,-2.1083,-2.1388,-2.1579,-2.1866,-2.2568,-2.3635,-2.4754,-2.5708,0.0,0.0,-2.1863,-1.841,-1.5433,-1.2973,-1.0499,-0.7939,-0.4826,-0.3169,-0.1736,-0.0201,0.0722,0.1892,0.3462,0.4804,0.6323,-4.7187,0.0,0.0,0.0,0.0,-4.6449,-4.9199,-5.1746,-4.9899,-4.8701,-4.778,-4.4435,0.0,0.0,0.0,0.0,0.0,0.0,-4.4997,-4.8861,-5.2,-5.4096,-5.5272,-5.6144,-5.6556,-5.6514,-5.6941,-5.5605,-5.2734,-5.0033,-4.5016,-3.7807,0.0,0.0,0.0,0.0,-4.4343,-4.9029,-5.3652,-5.6217,-5.66,-5.5978,-5.4618,-5.2467,-4.8388,-4.4449,-4.0845,-3.7187,-3.3572,-3.0063,-2.7248,0.0,0.0,0.0,0.0,0.0,0.0,0.0,0.0,0.0,0.0,0.0,0.0,0.0,0.0,0.0,0.0,0.0,0.0,0.0,-0.8807,-0.8864,-0.9158,0.0,0.0,0.0,0.0,0.0,0.0,0.0,0.0,0.0,-0.9827,-0.9448,-0.9496,0.0,0.0,-1.5074,-1.6672,-1.8646,-1.9889,-1.9829,-2.0516,0.0,-2.1894,-2.3257,-2.4755,-2.6168,-2.6178,-2.4677,-2.0925,-1.798,-1.5233,-1.2467,-1.031,-0.8307,-0.6153,-0.3854,-0.1724,0.0144,0.1717,0.311,0.4442,0.6044,0.7785,-5.5178,-5.0326,-4.9373,-4.9449,-5.0354,-5.29,-5.5847,-5.8784,-5.7183,-5.558,-5.39,-5.1093,-4.8379,-4.5747,-4.3383,0.0,0.0,0.0,-4.9836,-5.3031,-5.5646,-5.7201,-5.7834,-5.8495,-5.8685,-5.8493,-5.8287,-5.7257,-5.5384,-5.4207,-5.0651,-4.4682,0.0,0.0,-3.9638,-4.2446,-4.5976,-5.0234,-5.4458,-5.6491,-5.6237,-5.5121,-5.3514,-5.1532,-4.8332,-4.5081,-4.1945,-3.852,-3.5174,-3.1952,-2.8936,-2.5833,0.0,0.0,0.0,0.0,0.0,0.0,0.0,0.0,0.0,0.0,0.0,-0.9715,-0.8685,0.0,0.0,0.0,-0.8791,-0.8537,-0.8228,-0.8435,0.0,0.0,0.0,0.0,0.0,0.0,0.0,-0.9601,-0.9174,-0.9367,-1.0731,-1.1305,-1.1661,-1.207,-1.4178,-1.5959,-1.7009,0.0,-1.933,-1.9595,-2.0492,-2.1404,-2.228,-2.3866,-2.5542,-2.7285,-2.5996,-2.3876,-2.1156,-1.8507,-1.5866,-1.3141,-1.0934,-0.8981,-0.6821,-0.4462,-0.1946,0.0692,0.2534,0.421,0.5852,0.7388,0.8846,-6.1973,-6.0944,-5.6448,-5.5358,-5.6776,-5.8783,-6.1772,-6.511,-6.3609,-6.137,-5.8702,-5.6797,-5.4375,-5.1536,-4.8161,0.0,-5.0173,-5.17,-5.4019,-5.7104,-5.9163,-6.0433,-6.1045,-6.1568,-6.1425,-6.0664,-5.9938,-5.9143,-5.8136,-5.6451,-5.4675,-5.2605,-4.579,-4.3266,-4.504,-4.6309,-4.8743,-5.2414,-5.6041,-5.7204,-5.5695,-5.3983,-5.2477,-5.1183,-4.8353,-4.5293,-4.2201,-3.9713,-3.6843,-3.3508,-3.0925,-2.7911,-2.445,0.0,0.0,0.0,0.0,0.0,0.0,0.0,0.0,0.0,0.0,0.0,0.0,0.0,0.0,0.0,-0.7937,0.0,-0.7686,-0.8107,0.0,0.0,0.0,-0.9693,-0.9374,-0.9076,-0.907,-0.9627,0.0,0.0,-1.2309,-1.4607,-1.5712,-1.4731,-1.6036,-1.7418,-1.8053,-1.8671,-1.9346,-2.04,-2.1139,-2.2059,-2.3408,-2.5051,-2.6804,-2.8289,-2.6645,-2.4351,-2.2119,-1.9642,-1.7095,-1.4503,-1.2203,-0.9833,-0.7237,-0.498,-0.238,0.1162,0.3193,0.5043,0.7267,0.8572,0.9714,-6.7547,-6.5919,-6.5382,-6.3615,-6.1149,-6.2016,-6.4213,-6.6878,-6.5427,-6.4287,-6.3393,-6.2492,-5.9849,-5.5947,-5.3114,-5.2537,-5.3746,-5.5281,-5.6676,-5.8055,-5.9639,-6.039,-6.0304,-6.0411,-5.9904,-5.8971,-5.8136,-5.7205,-5.6211,-5.5545,-5.4838,-5.3957,-5.2055,-5.0383,-4.9008,-4.9582,-5.1524,-5.4763,-5.6399,-5.6729,-5.5605,-5.3695,-5.2058,-5.0792,-4.7728,-4.4999,-4.2733,-4.0478,-3.8185,-3.5785,-3.2319,-2.896,-2.5741,-2.1812,0.0,0.0,0.0,0.0,0.0,0.0,0.0,0.0,0.0,-1.0274,-0.9707,0.0,-0.9732,0.0,-0.8741,-0.8982,-0.9867,-0.9919,0.0,0.0,-1.1207,-1.1506,-1.164,-1.119,-1.1194,-1.197,-1.2314,-1.3149,-1.4702,-1.6486,-1.7843,-1.8482,-1.8807,-1.9275,-1.9724,-1.9625,-1.9938,-2.12,-2.2253,-2.3375,-2.4562,-2.6106,-2.7285,-2.7748,-2.6513,-2.4981,-2.3184,-2.091,-1.8478,-1.5716,-1.3031,-1.0378,-0.7577,-0.5204,-0.2744,0.0092,0.2677,0.5097,0.7115,0.9041,1.0751,-7.014,-6.9087,-7.0084,-6.9049,-6.6797,-6.7224,-6.8431,-6.9954,-6.9163,-6.8585,-6.8156,-6.7665,-6.5217,-6.1472,-5.9925,-5.9297,-5.9465,-6.0265,-6.0674,-6.0663,-6.125,-6.1458,-6.1294,-6.1077,-6.0051,-5.8367,-5.7092,-5.5905,-5.4764,-5.4388,-5.44,-5.4833,-5.5432,-5.5103,-5.3925,-5.3267,-5.4101,-5.6421,-5.6998,-5.7079,-5.6625,-5.4106,-5.2227,-5.1162,-4.7301,-4.4377,-4.2505,-4.0036,-3.7683,-3.5429,-3.2392,-2.9214,-2.6037,-2.2283,-1.8588,0.0,0.0,0.0,0.0,0.0,0.0,0.0,0.0,0.0,0.0,0.0,-1.0155,-0.9933,-1.0319,-1.0954,-1.1792,-1.2274,-1.2645,-1.2825,-1.3083,-1.32,-1.32,-1.2723,-1.2833,-1.3812,-1.441,-1.527,-1.6774,-1.8273,-1.947,-2.0557,-2.0943,-2.1159,-2.1045,-2.1023,-2.142,-2.2672,-2.3645,-2.4788,-2.6277,-2.7252,-2.7853,-2.7745,-2.7098,-2.5955,-2.4321,-2.2387,-2.0046,-1.7208,-1.4458,-1.1567,-0.851,-0.6038,-0.339,-0.0494,0.2232,0.4668,0.7076,0.9284,1.1283,-7.1168,-7.1172,-7.2241,-7.2524,-7.2263,-7.2761,-7.304,-7.3181,-7.3002,-7.2528,-7.1763,-7.0979,-6.9001,-6.626,-6.5722,-6.5082,-6.4347,-6.4193,-6.3706,-6.2959,-6.2682,-6.2585,-6.2604,-6.2335,-6.0887,-5.8298,-5.65,-5.4982,-5.3757,-5.3285,-5.3829,-5.5322,-5.6963,-5.8019,-5.8404,-5.6757,-5.6474,-5.764,-5.7842,-5.7974,-5.8133,-5.4879,-5.266,-5.1631,-4.7035,-4.3591,-4.1624,-3.8995,-3.6442,-3.4002,-3.1688,-2.896,-2.5728,-2.2606,-1.9454,0.0,-1.5198,0.0,0.0,0.0,0.0,0.0,0.0,0.0,0.0,-1.0549,-1.0744,-1.1235,-1.2375,-1.3346,-1.371,-1.484,-1.5375,-1.5039,-1.5036,-1.4998,-1.4528,-1.4091,-1.4259,-1.5401,-1.6201,-1.7292,-1.8632,-1.9878,-2.0945,-2.1828,-2.2702,-2.3055,-2.2846,-2.2863,-2.3321,-2.4505,-2.5233,-2.6472,-2.8038,-2.8475,-2.8601,-2.8601,-2.8174,-2.7125,-2.5645,-2.4015,-2.1851,-1.8898,-1.6131,-1.3122,-0.9863,-0.7061,-0.4063,-0.0835,0.1767,0.4398,0.7205,0.944,1.1559,-7.2059,-7.2041,-7.3339,-7.3745,-7.3586,-7.5236,-7.5253,-7.4049,-7.2723,-7.1595,-7.0524,-6.734,-6.5674,-6.5121,-6.2954,-6.1502,-6.0653,-5.9958,-5.9837,-6.0195,-6.0674,-6.1106,-6.1489,-6.1867,-6.0638,-5.8015,-5.6033,-5.4537,-5.3363,-5.3023,-5.3927,-5.6018,-5.7655,-5.8652,-5.9006,0.0,0.0,0.0,-5.9327,-5.9341,-5.8682,-5.5778,-5.3318,-5.1417,-4.7116,0.0,-4.0131,-3.7923,-3.5641,-3.3369,-3.0682,0.0,0.0,0.0,0.0,0.0,0.0,0.0,0.0,0.0,0.0,0.0,-1.5039,-1.3925,-1.2453,-1.2464,-1.2966,-1.403,-1.5023,-1.5894,-1.676,-1.7314,-1.7721,-1.7627,-1.7266,-1.6816,-1.6501,-1.6035,-1.6164,-1.7274,-1.8034,-1.9089,-2.0352,-2.1465,-2.2539,-2.3536,-2.43,-2.5058,-2.5827,-2.53,-2.53,-2.6027,-2.7163,-2.8357,-2.9513,-2.9869,-2.9973,-3.0162,-2.9638,-2.858,-2.7182,-2.5607,-2.3566,-2.0695,-1.7839,-1.4836,-1.1425,-0.8087,-0.4498,-0.121,0.1633,0.4365,0.7376,0.9762,1.1776,-7.1883,-7.194,-7.368,-7.4217,0.0,-7.6008,-7.643,-7.5603,-7.3514,-7.1747,-7.0129,-6.7376,-6.5604,-6.4599,-6.2888,-6.118,-5.9524,-5.8252,-5.805,-5.8719,-5.9693,-6.0677,-6.164,-6.2523,-6.1462,-5.875,-5.6422,-5.4949,-5.4195,-5.3563,-5.4168,-5.6029,-5.7536,-5.8123,-5.7782,-5.7481,-5.7745,-5.8625,-5.9015,-5.906,-5.8689,-5.5675,-5.3275,-5.1631,-4.6877,0.0,0.0,0.0,0.0,0.0,0.0,0.0,0.0,0.0,0.0,-1.8547,-1.8075,-1.7877,-1.7841,-1.7757,-1.7689,-1.7476,-1.675,-1.5677,-1.4064,-1.4528,-1.5347,-1.646,-1.8088,-1.9279,-1.9753,-2.0661,-2.1002,-2.0434,-2.0079,-1.9698,-1.9099,-1.8535,-1.8563,-1.9399,-2.001,-2.0801,-2.1899,-2.3039,-2.4036,-2.4889,-2.5827,-2.6806,-2.7688,-2.7239,-2.7023,-2.7795,-2.8774,-2.9743,-3.0391,-3.0599,-3.0599,-3.0703,-3.0183,-2.9268,-2.8041,-2.6456,-2.4439,-2.157,-1.8438,-1.5063,-1.1184,-0.7494,-0.376,-0.0228,0.2839,0.5682,0.8594,1.0211,1.1577,-7.1436,-7.1582,-7.3486,-7.4084,-7.3859,-7.5674,-7.6355,-7.6024,0.0,0.0,0.0,-6.8256,-6.6244,-6.4128,-6.3199,-6.1527,-5.9134,-5.7428,-5.7081,-5.7898,-5.9231,-6.0615,-6.2033,-6.3181,-6.2352,-5.9775,-5.7368,-5.5953,-5.552,-5.4665,-5.4796,-5.5908,-5.7155,-5.7278,-5.6319,-5.615,-5.6738,-5.8102,-5.8074,-5.8117,-5.822,-5.5076,-5.2937,-5.1882,-4.6675,-4.2815,-4.0671,-3.806,-3.531,-3.2579,-3.069,-2.845,-2.5761,-2.3841,-2.2179,-2.0777,-2.0523,-2.0643,-2.0848,-2.0442,-1.9865,-1.9439,-1.854,-1.7344,-1.5993,-1.6713,-1.7811,-1.8819,-2.1156,-2.2565,-2.2565,-2.3699,-2.4126,-2.3206,-2.2849,-2.2442,-2.1645,-2.1094,-2.0958,-2.1593,-2.1881,-2.2405,-2.3353,-2.4428,-2.544,-2.6154,-2.7257,-2.8522,-2.9282,-2.8986,-2.8774,-2.9618,-3.037,-3.0909,-3.1219,-3.1219,-3.1013,-3.1116,-3.0495,-2.962,-2.8401,-2.6835,-2.4773,-2.21,-1.8588,-1.4643,-1.0301,-0.6341,-0.2353,0.1887,0.4822,0.7564,1.0254,1.1212,1.1974,-7.1292,-7.1957,-7.2495,-7.2812,-7.3029,-7.4219,-7.3902,-7.2549,-7.216,-7.1301,-7.0033,-6.7464,-6.5308,-6.3438,-6.1747,-5.9971,-5.8119,-5.6433,-5.632,-5.7612,-5.8987,-6.0337,-6.1689,-6.2873,-6.241,-6.0471,-5.904,-5.7862,-5.6985,-5.6536,-5.6348,-5.6349,-5.7005,-5.6905,-5.6082,-5.5623,-5.5992,-5.7191,-5.7329,-5.7123,-5.6704,-5.441,-5.2455,-5.0895,-4.6678,-4.3183,-4.0591,-3.7982,-3.5264,-3.2467,-3.0637,-2.8329,-2.5516,-2.4998,-2.3927,-2.2108,-2.263,-2.3143,-2.3311,-2.2909,-2.233,-2.165,-2.1278,-2.0182,-1.8468,-1.9177,-2.0361,-2.1741,-2.3277,-2.4482,-2.5102,-2.5597,-2.5824,-2.5609,-2.4846,-2.4122,-2.3538,-2.3134,-2.2903,-2.2937,-2.3462,-2.4228,-2.4987,-2.5684,-2.6609,-2.7941,-2.8946,-2.9932,-3.1278,-3.1197,-3.0888,-3.1219,-3.1607,-3.1913,-3.2015,-3.2015,-3.171,-3.1834,-3.0909,-2.9953,-2.8899,-2.7275,-2.5195,-2.2561,-1.8717,-1.4356,-0.9353,-0.5108,-0.0605,0.4111,0.708,0.96,1.2533,1.3586,1.4261,-7.0904,-7.157,-7.2313,-7.2746,-7.2988,-7.3984,-7.393,-7.2998,-7.1969,-7.0174,-6.7968,-6.6985,-6.5139,-6.2631,-6.1134,-5.9507,-5.769,-5.6038,-5.596,-5.7365,-5.8716,-6.004,-6.1284,-6.2475,-6.2512,-6.1519,-6.0514,-5.988,-5.96,-5.8934,-5.8407,-5.8067,-5.7469,-5.676,-5.6085,-5.5345,-5.5077,-5.537,-5.6078,-5.6365,-5.6079,-5.394,-5.2032,-5.0596,-4.6917,-4.4013,-4.1943,-3.946,-3.7037,-3.4506,-3.2698,-3.0236,-2.7186,-2.6525,-2.5551,-2.3937,-2.4428,-2.492,-2.5394,-2.482,-2.4226,-2.3751,-2.3718,-2.3395,-2.2568,-2.2553,-2.3047,-2.3996,-2.5274,-2.6134,-2.6333,-2.707,-2.7334,-2.6641,-2.6606,-2.6448,-2.5857,-2.5778,-2.5637,-2.5465,-2.5666,-2.6039,-2.6248,-2.7005,-2.7806,-2.8935,-3.0366,-3.1971,-3.33,-3.34,-3.3101,-3.2645,-3.2443,-3.2443,-3.242,-3.2015,-3.1629,-3.1197,-3.0599,-2.9786,-2.885,-2.7182,-2.4641,-2.1519,-1.7456,-1.2539,-0.6967,-0.2812,0.1465,0.5738,0.8877,1.1438,1.3983,1.5841,1.6769,-7.0706,-7.1257,-7.2152,-7.2653,-7.2817,-7.3491,-7.3691,-7.3401,-7.1881,-6.9546,-6.7078,-6.6962,-6.5421,-6.2842,-6.1506,-5.9998,-5.8327,-5.6814,-5.6746,-5.782,-5.899,-6.0091,-6.1024,-6.1985,-6.2324,-6.2112,-6.1425,-6.1281,-6.1415,-6.0554,-5.9716,-5.8994,-5.7538,-5.6471,-5.5996,-5.5277,-5.4653,-5.4362,-5.5156,-5.5324,-5.4742,-5.3115,-5.1645,-5.0018,-4.7548,-4.5525,-4.4195,-4.1784,-3.9492,-3.7342,-3.5142,-3.2362,-2.906,-2.8199,-2.7236,-2.5876,-2.6136,-2.6617,-2.6993,-2.6388,-2.5909,-2.5722,-2.602,-2.6318,-2.6442,-2.6037,-2.5724,-2.6068,-2.6874,-2.7598,-2.7657,-2.8411,-2.8695,-2.7758,-2.8297,-2.8396,-2.7693,-2.786,-2.7884,-2.7482,-2.7475,-2.7408,-2.7495,-2.7974,-2.8981,-3.0189,-3.2084,-3.3674,-3.4483,-3.4969,-3.4702,-3.4017,-3.3446,-3.3147,-3.27,-3.2015,-3.13,-3.037,-2.9869,-2.9343,-2.8349,-2.659,-2.3468,-1.9835,-1.5438,-1.001,-0.4252,-0.0244,0.3547,0.7591,1.0499,1.2967,1.5896,1.7974,1.8933,-7.0892,-7.1358,-7.1728,-7.1893,-7.2032,-7.1994,-7.1909,-7.1649,-7.1139,-7.0298,-6.9036,-6.7582,-6.6279,-6.4955,-6.32,-6.1825,-6.0719,-5.9711,-5.9472,-5.9806,-6.0333,-6.0729,-6.1098,-6.1444,-6.16,-6.1544,-6.1358,-6.1091,-6.0843,-6.0468,-5.9324,-5.7637,-5.6508,-5.5892,-5.5505,-5.5576,-5.5505,-5.516,-5.4939,-5.3661,-5.1484,-5.1568,-5.1015,-4.9433,-4.8533,-4.7965,-4.7546,-4.5108,-4.2625,-4.0562,-3.759,-3.4131,-3.06,-2.9872,-2.8901,-2.7207,-2.7795,-2.8287,-2.8089,-2.7559,-2.7446,-2.7976,-2.8277,-2.8668,-2.9075,-2.9055,-2.8506,-2.7891,-2.8199,-2.8705,-2.929,-2.9838,-3.0006,-2.9492,-2.9786,-2.9602,-2.86,-2.8613,-2.8541,-2.7557,-2.7622,-2.7804,-2.8023,-2.8466,-2.9636,-3.1939,-3.3375,-3.4606,-3.5283,-3.5379,-3.5404,-3.5235,-3.4945,-3.4115,-3.33,-3.2275,-3.103,-2.9807,-2.9112,-2.8688,-2.7814,-2.5501,-2.2227,-1.8033,-1.3419,-0.7867,-0.1824,0.2569,0.5388,0.929,1.22,1.4657,1.8008,1.9928,2.0393,-7.124,-7.1549,-7.1747,-7.1827,-7.1817,-7.1679,-7.143,-7.1214,-7.0889,-7.0489,-6.9896,-6.8591,-6.7235,-6.5906,-6.4524,-6.36,-6.3048,-6.2485,-6.2092,-6.1879,-6.1544,-6.1324,-6.1115,-6.0749,-6.059,-6.0626,-6.0626,-6.0503,-6.0129,-5.9613,-5.8565,-5.7229,-5.678,-5.6224,-5.5414,-5.5345,-5.4897,-5.4117,-5.397,-5.2859,-5.1153,-5.1398,-5.1097,-4.9791,-4.8887,-4.8437,-4.8235,-4.6285,-4.4085,-4.2056,-3.9574,-3.6205,-3.1796,-3.1121,-2.9932,-2.7912,-2.8439,-2.905,-2.9107,-2.9183,-2.9507,-3.0312,-3.0863,-3.1103,-3.1066,-3.1326,-3.1174,-3.0488,-2.9843,-2.9559,-2.9949,-3.0668,-3.0935,-3.0673,-3.1072,-3.1185,-3.0259,-3.0154,-2.9732,-2.8445,-2.7809,-2.7473,-2.7776,-2.8849,-3.0597,-3.2865,-3.4265,-3.5178,-3.6068,-3.6143,-3.6073,-3.5978,-3.5596,-3.4726,-3.3476,-3.2029,-3.0713,-2.9431,-2.8581,-2.8048,-2.6933,-2.4437,-2.0812,-1.6506,-1.1761,-0.6301,0.0489,0.3674,0.6499,1.0514,1.4806,1.7732,2.0074,2.1167,2.1569,-7.1757,-7.169,-7.1796,-7.1792,-7.1699,-7.1525,-7.128,-7.1053,-7.07,-7.047,-7.0205,-6.9053,-6.7846,-6.6709,-6.569,-6.4972,-6.4507,-6.422,-6.3631,-6.2831,-6.2073,-6.1476,-6.0891,-6.0254,-5.9873,-5.9838,-5.9966,-5.9838,-5.9482,-5.8841,-5.792,-5.6996,-5.6829,-5.6236,-5.5127,-5.4894,-5.4352,-5.3423,-5.335,-5.2681,-5.132,-5.1344,-5.0938,-5.0056,-4.9387,-4.891,-4.8859,-4.7317,-4.5459,-4.346,-4.109,-3.7791,-3.3458,-3.2245,-3.0698,-2.8816,-2.9334,-3.0007,-3.0215,-3.0721,-3.1421,-3.2227,-3.2799,-3.3106,-3.3035,-3.3286,-3.3378,-3.3116,-3.2017,-3.1343,-3.1108,-3.1841,-3.2121,-3.1898,-3.2555,-3.2572,-3.144,-3.1083,-3.0274,-2.8746,-2.7537,-2.7153,-2.7518,-2.9173,-3.1274,-3.3092,-3.4255,-3.5263,-3.5899,-3.5928,-3.5642,-3.5547,-3.4872,-3.4243,-3.3429,-3.2174,-3.0547,-2.8805,-2.7833,-2.6899,-2.5827,-2.2863,-1.9179,-1.4603,-1.022,-0.5218,0.11,0.4661,0.7834,1.2055,1.6234,1.9523,2.0787,2.1856,2.2384,-7.2412,-7.1807,-7.1708,-7.1641,-7.1503,-7.1319,-7.1124,-7.0914,-7.0439,-7.0175,-6.9923,-6.8675,-6.7814,-6.7359,-6.6581,-6.5702,-6.4716,-6.4288,-6.3392,-6.2185,-6.164,-6.0974,-6.0325,-5.9849,-5.9551,-5.9482,-5.9482,-5.9317,-5.9012,-5.8314,-5.748,-5.6581,-5.6051,-5.5347,-5.477,-5.455,-5.4213,-5.3757,-5.3724,-5.3065,-5.1801,-5.1128,-5.0647,-5.0208,-4.9907,-4.9609,-4.9433,-4.8499,-4.708,-4.5259,-4.2219,-3.8683,-3.5055,-3.3073,-3.1381,-3.0359,-3.0718,-3.1341,-3.1667,-3.2187,-3.2799,-3.3459,-3.4022,-3.4558,-3.4913,-3.4776,-3.4854,-3.5215,-3.4735,-3.4084,-3.3652,-3.3784,-3.3923,-3.3552,-3.3947,-3.3277,-3.136,-3.089,-2.9818,-2.812,-2.6955,-2.6896,-2.7894,-2.9759,-3.1368,-3.2745,-3.3504,-3.3911,-3.4292,-3.4166,-3.3552,-3.3063,-3.256,-3.2233,-3.336,-3.185,-3.0118,-2.8357,-2.6645,-2.5529,-2.3343,-2.0798,-1.6712,-1.2714,-0.8546,-0.3767,0.1834,0.6246,0.9754,1.348,1.7055,1.9897,2.106,2.1987,2.2514,-7.2553,-7.1724,-7.1599,-7.1481,-7.1319,-7.1163,-7.0914,-7.057,-7.0171,-6.9853,-6.9468,-6.8747,-6.797,-6.7303,-6.6606,-6.5657,-6.4469,-6.3403,-6.2501,-6.1688,-6.0803,-6.0093,-5.9617,-5.9183,-5.8909,-5.8875,-5.8702,-5.8597,-5.8456,-5.7954,-5.7072,-5.6159,-5.5949,-5.5502,-5.4891,-5.5063,-5.5037,-5.4559,-5.47,-5.4324,-5.3162,-5.2395,-5.1812,-5.1452,-5.0087,-4.9367,-4.9583,-4.8693,-4.727,-4.5128,-4.3098,-4.0209,-3.6087,-3.279,-3.1052,-3.0833,-3.1216,-3.1686,-3.2179,-3.2746,-3.3367,-3.4043,-3.4692,-3.5245,-3.5772,-3.6071,-3.6279,-3.647,-3.6377,-3.6144,-3.6051,-3.5451,-3.4745,-3.4249,-3.424,-3.3752,-3.2171,-3.0807,-2.9387,-2.7856,-2.6679,-2.6448,-2.7406,-2.8832,-3.0373,-3.1619,-3.1979,-3.2022,-3.1884,-3.1411,-3.0675,-3.0036,-2.9601,-2.9436,-2.9642,-2.9518,-2.8441,-2.698,-2.5406,-2.3615,-2.1624,-1.8698,-1.4876,-1.062,-0.6644,-0.2068,0.3554,0.8314,1.1695,1.4569,1.8144,1.9897,2.1303,2.2002,2.256,-7.2245,-7.1626,-7.1442,-7.1319,-7.1101,-7.0875,-7.0601,-7.0247,-6.9815,-6.9426,-6.9003,-6.8405,-6.7626,-6.6728,-6.5859,-6.492,-6.3974,-6.2951,-6.2132,-6.1319,-6.0403,-5.9725,-5.9251,-5.884,-5.8561,-5.849,-5.8205,-5.8133,-5.8099,-5.7588,-5.6691,-5.5603,-5.5701,-5.5457,-5.5016,-5.5293,-5.5439,-5.5165,-5.5187,-5.4823,-5.4043,-5.3161,-5.2611,-5.2092,-5.0211,-4.8952,-4.8805,-4.8027,-4.6502,-4.4466,-4.3284,-4.0856,-3.6726,-3.3523,-3.1696,-3.1836,-3.2288,-3.2679,-3.2923,-3.3289,-3.3931,-3.4736,-3.5245,-3.5881,-3.6796,-3.7441,-3.7761,-3.7761,-3.7679,-3.7679,-3.7488,-3.6701,-3.5876,-3.5385,-3.497,-3.4291,-3.2836,-3.113,-2.9306,-2.7473,-2.6711,-2.6626,-2.7083,-2.8244,-2.9379,-3.0325,-3.0175,-2.9859,-2.9435,-2.8689,-2.793,-2.7245,-2.6811,-2.6505,-2.6328,-2.5952,-2.5971,-2.4792,-2.3181,-2.1549,-1.9287,-1.6272,-1.2794,-0.854,-0.4219,0.0243,0.5,0.9995,1.3269,1.5795,1.7793,1.955,2.0831,2.1888,2.2464,-7.1433,-7.1387,-7.126,-7.1101,-7.0914,-7.0494,-7.0243,-6.9963,-6.9385,-6.8915,-6.8405,-6.7557,-6.6743,-6.5806,-6.4494,-6.3508,-6.3121,-6.2997,-6.2263,-6.1011,-6.0563,-6.001,-5.9287,-5.8875,-5.8561,-5.8419,-5.8133,-5.8027,-5.8027,-5.7181,-5.6257,-5.5393,-5.5131,-5.5069,-5.5051,-5.5146,-5.5228,-5.5189,-5.5008,-5.4602,-5.404,-5.3398,-5.2884,-5.2277,-5.0397,-4.8774,-4.7398,-4.6512,-4.516,-4.3199,-4.2502,-4.0442,-3.7192,-3.5037,-3.3976,-3.3706,-3.4112,-3.4224,-3.409,-3.4224,-3.4602,-3.529,-3.5795,-3.6534,-3.7548,-3.8526,-3.905,-3.8945,-3.8736,-3.8526,-3.808,-3.7829,-3.7416,-3.7096,-3.6133,-3.4916,-3.3429,-3.1905,-2.9818,-2.7239,-2.6806,-2.7274,-2.7619,-2.8001,-2.852,-2.8566,-2.8228,-2.7525,-2.6836,-2.6175,-2.572,-2.4981,-2.42,-2.3552,-2.3035,-2.253,-2.2609,-2.2336,-2.0725,-1.9098,-1.6495,-1.3613,-0.9884,-0.567,-0.133,0.3054,0.6719,1.1246,1.3159,1.5558,1.743,1.9305,2.0486,2.1631,2.2542,-7.1242,-7.118,-7.1053,-7.0766,-7.0439,-7.0137,-6.9778,-6.934,-6.8908,-6.8357,-6.7663,-6.6915,-6.593,-6.4767,-6.3577,-6.2719,-6.2167,-6.1863,-6.1409,-6.0796,-6.0027,-5.959,-5.9245,-5.8624,-5.8243,-5.8133,-5.8162,-5.7944,-5.7406,-5.6768,-5.5796,-5.4819,-5.4633,-5.4591,-5.4611,-5.5023,-5.5345,-5.5315,-5.5647,-5.5633,-5.5085,-5.4546,-5.4092,-5.3693,-5.1623,-4.9799,-4.8557,-4.6586,-4.476,-4.3091,-4.2683,-4.1076,-3.8271,-3.5998,-3.5032,-3.4971,-3.4867,-3.4825,-3.4736,-3.4758,-3.498,-3.54,-3.5927,-3.6688,-3.7572,-3.8526,-3.8945,-3.8945,-3.8841,-3.8631,-3.8315,-3.7892,-3.7465,-3.6928,-3.6254,-3.5414,-3.3994,-3.2016,-2.9642,-2.7757,-2.7365,-2.7431,-2.7341,-2.7441,-2.7035,-2.657,-2.5778,-2.4807,-2.3751,-2.3228,-2.2213,-2.1163,-2.0729,-2.0424,-1.9849,-1.9458,-1.9553,-1.9439,-1.821,-1.6471,-1.3869,-1.068,-0.6865,-0.2661,0.1582,0.5251,0.8927,1.1495,1.3416,1.5203,1.7091,1.8855,2.0371,2.1586,2.2526,-7.094,-7.081,-7.0652,-7.0375,-6.9925,-6.9548,-6.9096,-6.8642,-6.821,-6.7647,-6.6837,-6.6053,-6.5101,-6.39,-6.2829,-6.2043,-6.1465,-6.102,-6.0788,-6.0631,-6.0189,-5.9573,-5.8998,-5.8146,-5.7775,-5.7769,-5.7722,-5.7465,-5.6996,-5.6224,-5.5231,-5.4264,-5.4206,-5.4204,-5.4259,-5.4977,-5.5315,-5.514,-5.5652,-5.5849,-5.5491,-5.5129,-5.4827,-5.4179,-5.2323,-5.0669,-4.9357,-4.6611,-4.447,-4.3072,-4.1846,-4.0257,-3.8385,-3.6906,-3.6117,-3.6072,-3.5871,-3.5669,-3.558,-3.5491,-3.5469,-3.5578,-3.5927,-3.658,-3.7358,-3.821,-3.8631,-3.8631,-3.8736,-3.8631,-3.8315,-3.7998,-3.7465,-3.6796,-3.6059,-3.5196,-3.394,-3.1992,-2.9905,-2.8462,-2.7723,-2.7419,-2.6807,-2.6172,-2.5385,-2.4463,-2.322,-2.1989,-2.0922,-2.0134,-1.9198,-1.8428,-1.8176,-1.7623,-1.6685,-1.6428,-1.6379,-1.6115,-1.5588,-1.3655,-1.15,-0.7784,-0.409,0.0606,0.5018,0.685,1.0179,1.1623,1.3306,1.5084,1.6868,1.8389,1.9897,2.1744,2.2927,-7.0547,-7.0353,-7.0144,-6.9853,-6.9388,-6.8713,-6.8246,-6.7885,-6.7341,-6.67,-6.594,-6.5101,-6.4218,-6.324,-6.2043,-6.1417,-6.1002,-6.0633,-6.043,-6.0538,-6.0484,-6.0024,-5.8614,-5.7506,-5.7172,-5.7364,-5.6911,-5.6569,-5.6381,-5.5507,-5.4517,-5.364,-5.373,-5.3773,-5.3653,-5.4663,-5.4709,-5.4285,-5.4978,-5.521,-5.497,-5.5059,-5.479,-5.4092,-5.2497,-5.1121,-4.9861,-4.701,-4.4283,-4.2515,-4.0315,-3.8851,-3.8147,-3.7722,-3.7146,-3.6992,-3.7081,-3.6655,-3.6566,-3.605,-3.5871,-3.5578,-3.5817,-3.634,-3.6904,-3.7548,-3.808,-3.8185,-3.8421,-3.8421,-3.7974,-3.7761,-3.7334,-3.658,-3.573,-3.4669,-3.2922,-3.1741,-3.0325,-2.885,-2.8008,-2.7188,-2.573,-2.4733,-2.3547,-2.2232,-2.0915,-1.9683,-1.8671,-1.7784,-1.7016,-1.6511,-1.6102,-1.5655,-1.5021,-1.477,-1.4549,-1.3742,-1.2947,-1.0934,-0.8491,-0.4794,-0.1079,0.3635,0.6948,0.8793,1.0514,1.1927,1.3269,1.4857,1.6385,1.791,1.9768,2.1616,2.3279,-7.0038,-6.989,-6.9623,-6.9139,-6.8614,-6.8012,-6.743,-6.6837,-6.6368,-6.5752,-6.4972,-6.4253,-6.3466,-6.2591,-6.1628,-6.1002,-6.0802,-6.0548,-6.0463,-6.06,-6.072,-5.9595,-5.7893,-5.6942,-5.6546,-5.6569,-5.6113,-5.5603,-5.5393,-5.4717,-5.3782,-5.2726,-5.2762,-5.2612,-5.2366,-5.3061,-5.2984,-5.2718,-5.3384,-5.3773,-5.3665,-5.3982,-5.3971,-5.3592,-5.2704,-5.2107,-5.1337,-4.8048,-4.4385,-4.1362,-3.9472,-3.8523,-3.8319,-3.7664,-3.7284,-3.7448,-3.7265,-3.6835,-3.641,-3.6072,-3.5601,-3.4935,-3.498,-3.5245,-3.5817,-3.6472,-3.7012,-3.7334,-3.7655,-3.7655,-3.7334,-3.6904,-3.6013,-3.4803,-3.4692,-3.4361,-3.3179,-3.1933,-3.052,-2.8972,-2.7469,-2.5954,-2.4263,-2.279,-2.1334,-1.9853,-1.8525,-1.7461,-1.6534,-1.5906,-1.5327,-1.4662,-1.4277,-1.3899,-1.3595,-1.3317,-1.2687,-1.1684,-1.0191,-0.8083,-0.5141,-0.1682,0.2162,0.6399,0.766,0.9453,1.0806,1.2242,1.3504,1.4872,1.6423,1.8147,1.9842,2.1714,2.3231,-6.9265,-6.9139,-6.887,-6.8368,-6.7768,-6.7158,-6.6474,-6.5815,-6.5237,-6.4634,-6.397,-6.3353,-6.2711,-6.1997,-6.1417,-6.1002,-6.0802,-6.075,-6.075,-6.0633,-6.06,-5.9547,-5.7904,-5.689,-5.6286,-5.6132,-5.5636,-5.5312,-5.5017,-5.4412,-5.3465,-5.2667,-5.2215,-5.1941,-5.1755,-5.2141,-5.2217,-5.2048,-5.2718,-5.2979,-5.2744,-5.3436,-5.3532,-5.3288,-5.2748,-5.2191,-5.036,-4.7513,-4.4379,-4.1443,-3.9515,-3.8422,-3.7903,-3.746,-3.7376,-3.7724,-3.7701,-3.7474,-3.6882,-3.6515,-3.5725,-3.4858,-3.4437,-3.4441,-3.4646,-3.5024,-3.5466,-3.5904,-3.6449,-3.6557,-3.6122,-3.5576,-3.4558,-3.3529,-3.3064,-3.2917,-3.2475,-3.1231,-2.9794,-2.8087,-2.6453,-2.4631,-2.247,-2.0773,-1.9314,-1.7809,-1.6434,-1.5531,-1.471,-1.4227,-1.372,-1.3169,-1.2869,-1.2711,-1.2177,-1.1725,-1.0679,-0.9625,-0.6874,-0.4862,-0.2287,0.109,0.3973,0.6961,0.8401,0.9866,1.1354,1.2696,1.4069,1.5412,1.6887,1.8224,1.9749,2.1783,2.3294,-6.8342,-6.8173,-6.7959,-6.754,-6.6931,-6.6125,-6.5497,-6.4838,-6.4112,-6.357,-6.3124,-6.2513,-6.2076,-6.1628,-6.1252,-6.1119,-6.1119,-6.1035,-6.0919,-6.0717,-6.045,-5.961,-5.815,-5.7314,-5.6597,-5.6105,-5.5685,-5.5295,-5.4966,-5.4412,-5.3552,-5.2788,-5.2246,-5.197,-5.1813,-5.1952,-5.1972,-5.1958,-5.242,-5.2435,-5.229,-5.2793,-5.2989,-5.2573,-5.2278,-5.0889,-4.8678,-4.6508,-4.4428,-4.1713,-4.0013,-3.8508,-3.7123,-3.7223,-3.7488,-3.7883,-3.8183,-3.8204,-3.7551,-3.6949,-3.6195,-3.4876,-3.4222,-3.3895,-3.3713,-3.3721,-3.3904,-3.4112,-3.4891,-3.4781,-3.4202,-3.3551,-3.2478,-3.1425,-3.0443,-3.0159,-3.0103,-2.983,-2.867,-2.6423,-2.4959,-2.2895,-2.062,-1.8651,-1.719,-1.5654,-1.448,-1.3898,-1.3236,-1.2782,-1.2266,-1.18,-1.1595,-1.1577,-1.0838,-1.0183,-0.8812,-0.7243,-0.3799,-0.138,0.0368,0.3178,0.5324,0.7557,0.9359,1.0825,1.2125,1.3394,1.4749,1.5943,1.7481,1.835,1.9417,2.1699,2.35,-6.7557,-6.7504,-6.7249,-6.6758,-6.61,-6.5368,-6.4738,-6.4076,-6.3422,-6.2897,-6.2503,-6.203,-6.1709,-6.1465,-6.1252,-6.1119,-6.1119,-6.1086,-6.0919,-6.0717,-6.0633,-5.9727,-5.8527,-5.7904,-5.7184,-5.6301,-5.5572,-5.5328,-5.4998,-5.4412,-5.364,-5.2757,-5.2337,-5.2214,-5.2017,-5.1558,-5.1708,-5.1942,-5.1792,-5.1482,-5.1149,-5.1582,-5.1766,-5.141,-5.1043,-5.0159,-4.8825,-4.734,-4.536,-4.3049,-4.0619,-3.8745,-3.7434,-3.7356,-3.7646,-3.7883,-3.8275,-3.8225,-3.7384,-3.6653,-3.5682,-3.4365,-3.3628,-3.3109,-3.2702,-3.2347,-3.2281,-3.2404,-3.2509,-3.2125,-3.1281,-3.0374,-2.91,-2.7864,-2.6734,-2.5634,-2.499,-2.6093,-2.6082,-2.4412,-2.2682,-2.054,-1.7822,-1.6373,-1.5024,-1.3599,-1.283,-1.2211,-1.1891,-1.1449,-1.1075,-1.072,-1.0256,-1.0116,-0.9001,-0.7932,-0.6166,-0.4668,-0.1556,0.1424,0.3169,0.495,0.6996,0.8821,1.045,1.182,1.3308,1.4384,1.5772,1.6934,1.8081,1.9145,2.0472,2.2317,2.3661,-6.6582,-6.6559,-6.644,-6.5914,-6.5308,-6.4532,-6.3933,-6.3383,-6.2779,-6.2391,-6.2189,-6.179,-6.1465,-6.1383,-6.1334,-6.1252,-6.1252,-6.1252,-6.1086,-6.0919,-6.0853,-6.001,-5.8807,-5.833,-5.7738,-5.6283,-5.5766,-5.5442,-5.5031,-5.4444,-5.364,-5.2757,-5.2337,-5.1908,-5.1772,-5.1314,-5.122,-5.1304,-5.0935,-5.0471,-5.0077,-5.0697,-5.1091,-5.0654,-5.0126,-4.9331,-4.8479,-4.7272,-4.559,-4.3573,-4.1499,-3.9386,-3.7872,-3.7879,-3.7943,-3.7906,-3.8275,-3.8105,-3.7369,-3.6458,-3.5323,-3.3821,-3.293,-3.2187,-3.1595,-3.1003,-3.0515,-3.013,-2.9804,-2.9146,-2.7855,-2.6523,-2.5159,-2.363,-2.236,-2.1038,-2.0341,-2.2063,-2.3278,-2.1538,-2.0032,-1.8144,-1.6103,-1.4522,-1.3434,-1.2346,-1.1882,-1.1338,-1.1232,-1.0802,-1.0296,-0.9889,-0.9287,-0.8553,-0.7247,-0.5605,-0.3273,-0.1715,0.0396,0.3037,0.4975,0.6764,0.8594,1.0151,1.1753,1.3249,1.4615,1.5713,1.6633,1.7749,1.8855,2.0238,2.155,2.3183,2.4273,-6.5604,-6.5675,-6.5604,-6.5176,-6.4533,-6.375,-6.3233,-6.2889,-6.2234,-6.1997,-6.1837,-6.1547,-6.1301,-6.1301,-6.1219,-6.1301,-6.1219,-6.1136,-6.1002,-6.0919,-6.0604,-5.9812,-5.8855,-5.836,-5.7573,-5.6184,-5.5846,-5.5556,-5.5191,-5.4518,-5.3871,-5.2975,-5.2429,-5.2118,-5.1683,-5.0976,-5.0935,-5.1039,-5.0359,-4.9658,-4.9209,-4.9819,-5.0101,-4.9803,-4.8926,-4.8252,-4.7612,-4.6595,-4.5316,-4.3856,-4.2541,-4.0548,-3.893,-3.819,-3.8222,-3.7565,-3.7838,-3.7479,-3.6741,-3.5903,-3.48,-3.3243,-3.2267,-3.1308,-3.0544,-2.9523,-2.8763,-2.7765,-2.702,-2.5594,-2.4146,-2.281,-2.1216,-1.976,-1.8148,-1.6845,-1.6272,-1.8059,-1.8281,-1.8104,-1.7067,-1.5521,-1.4371,-1.3018,-1.2131,-1.1282,-1.0799,-1.0524,-1.0242,-1.0002,-0.9499,-0.8741,-0.8144,-0.6319,-0.4852,-0.3201,-0.0923,0.0665,0.2405,0.4533,0.6784,0.8799,1.0564,1.1484,1.2985,1.4611,1.5848,1.6785,1.772,1.8635,2.0027,2.1598,2.279,2.4022,2.5042,-6.4876,-6.4843,-6.4876,-6.4498,-6.3861,-6.3343,-6.3,-6.2693,-6.2234,-6.1917,-6.1709,-6.1301,-6.1002,-6.0886,-6.0802,-6.0802,-6.0685,-6.06,-6.0515,-6.0299,-5.9905,-5.9085,-5.8265,-5.7626,-5.6857,-5.6042,-5.5685,-5.5554,-5.5441,-5.5011,-5.401,-5.3806,-5.3006,-5.2476,-5.2127,-5.1601,-5.0787,-5.065,-4.9849,-4.8924,-4.8378,-4.8298,-4.8377,-4.8104,-4.7039,-4.6578,-4.6566,-4.5834,-4.4903,-4.4347,-4.3554,-4.1686,-3.9383,-3.8068,-3.7291,-3.6831,-3.6711,-3.6457,-3.5749,-3.4635,-3.3793,-3.2952,-3.187,-3.0665,-2.9524,-2.8346,-2.6952,-2.5094,-2.3429,-2.1714,-2.081,-1.9187,-1.7765,-1.6351,-1.5257,-1.4168,-1.3128,-1.3029,-1.3578,-1.3789,-1.3487,-1.3262,-1.2365,-1.1435,-1.0514,-0.987,-0.9587,-0.9156,-0.8971,-0.8783,-0.8476,-0.7728,-0.6902,-0.4616,-0.2351,-0.0392,0.1585,0.2528,0.4273,0.6253,0.8585,1.0884,1.2566,1.3364,1.441,1.5946,1.702,1.7917,1.9207,2.0397,2.1665,2.3065,2.4424,2.5642,2.6598,-6.4111,-6.4145,-6.4111,-6.3823,-6.3308,-6.2889,-6.2615,-6.2537,-6.2302,-6.211,-6.1676,-6.1185,-6.0685,-6.043,-6.0054,-5.9968,-5.9881,-5.9881,-5.9512,-5.9101,-5.8713,-5.7968,-5.7093,-5.6575,-5.6118,-5.5448,-5.5024,-5.4761,-5.4825,-5.4047,-5.3497,-5.2793,-5.2175,-5.1858,-5.1595,-5.0573,-5.0086,-4.9839,-4.8894,-4.7857,-4.6992,-4.665,-4.6405,-4.6678,-4.5857,-4.5536,-4.5897,-4.5472,-4.4878,-4.4326,-4.3482,-4.1707,-3.9579,-3.7629,-3.6282,-3.6069,-3.579,-3.541,-3.4697,-3.3669,-3.2535,-3.1561,-3.0437,-2.9327,-2.8127,-2.681,-2.4879,-2.2115,-2.0017,-1.8093,-1.6657,-1.5473,-1.4088,-1.2734,-1.1963,-1.1037,-1.0044,-0.9449,-0.9603,-1.0009,-1.0545,-1.07,-1.064,-0.9738,-0.901,-0.8441,-0.8187,-0.7886,-0.7571,-0.7277,-0.7098,-0.6031,-0.5022,-0.3058,-0.078,0.1048,0.2905,0.4264,0.6,0.7974,1.0019,1.2187,1.3978,1.5206,1.6265,1.7387,1.8175,1.9086,2.0629,2.2011,2.3518,2.493,2.6133,2.7277,2.7961,-6.3308,-6.3452,-6.3383,-6.3193,-6.2847,-6.2459,-6.2302,-6.2302,-6.2223,-6.203,-6.1676,-6.087,-6.0397,-5.9968,-5.9531,-5.9234,-5.9234,-5.9234,-5.8703,-5.8101,-5.766,-5.6925,-5.5975,-5.5442,-5.5197,-5.4804,-5.4206,-5.3852,-5.4085,-5.3279,-5.2306,-5.1832,-5.1113,-5.0522,-5.0126,-4.9421,-4.8909,-4.8263,-4.7568,-4.6692,-4.5848,-4.5118,-4.5115,-4.6154,-4.5016,-4.4523,-4.5102,-4.4761,-4.4294,-4.3793,-4.2832,-4.1395,-3.925,-3.6703,-3.5286,-3.5181,-3.4914,-3.433,-3.344,-3.2283,-3.0865,-2.9622,-2.846,-2.7403,-2.6065,-2.4305,-2.2078,-1.8724,-1.6925,-1.5463,-1.3822,-1.2274,-1.1128,-1.0129,-0.9274,-0.8462,-0.8094,-0.75,-0.7013,-0.7426,-0.8002,-0.8219,-0.8187,-0.7878,-0.7079,-0.6781,-0.6497,-0.6252,-0.591,-0.5627,-0.5199,-0.4128,-0.2872,-0.1263,0.0513,0.182,0.3684,0.5208,0.7322,0.9539,1.1431,1.3396,1.4915,1.6371,1.7565,1.8504,1.9417,2.0361,2.1683,2.3233,2.506,2.6423,2.721,2.7896,2.8545,-6.2702,-6.2847,-6.3,-6.2847,-6.2459,-6.2189,-6.1951,-6.179,-6.1709,-6.1383,-6.0703,-5.95,-5.83,-5.5952,-5.5991,-5.7322,-5.7195,-5.6581,-5.5283,-5.4049,-5.5758,-5.6081,-5.5138,-5.4537,-5.4246,-5.3953,-5.359,-5.3948,-5.3898,-5.3099,-5.2217,-5.1425,-5.0522,-4.9896,-4.9064,-4.832,-4.7688,-4.7366,-4.654,-4.5927,-4.5426,-4.4546,-4.4409,-4.4382,-4.3815,-4.3237,-4.3796,-4.3597,-4.3252,-4.3046,-4.2568,-4.0912,-3.8486,-3.629,-3.408,-3.2768,-3.1827,-3.1256,-3.0664,-2.9771,-2.8584,-2.7455,-2.6321,-2.5128,-2.3486,-2.1513,-1.9236,-1.7346,-1.5423,-1.3742,-1.2157,-1.1214,-1.0082,-0.9154,-0.8459,-0.7801,-0.7153,-0.6537,-0.5877,-0.5335,-0.6039,-0.5953,-0.5874,-0.5526,-0.5182,-0.4976,-0.4756,-0.4628,-0.4371,-0.4095,-0.3577,-0.2525,-0.1627,-0.0126,0.1526,0.2836,0.4686,0.6241,0.875,1.1069,1.2789,1.4477,1.5732,1.7108,1.8395,1.9636,2.0543,2.1598,2.2931,2.4369,2.6027,2.7005,2.7727,2.8379,2.8975,-6.1803,-6.2144,-6.2537,-6.2425,-6.211,-6.1676,-6.1317,-6.1069,-6.0652,-6.0496,-5.7988,-4.9005,-4.0271,-3.3954,-3.0284,-2.9891,-3.2339,-4.0702,-4.3476,-4.6747,-5.0693,-5.4871,-5.3881,-5.3508,-5.3268,-5.3396,-5.3186,-5.3346,-5.3434,-5.2661,-5.1416,-5.0493,-4.9624,-4.8764,-4.7985,-4.7267,-4.6878,-4.6328,-4.5473,-4.5019,-4.4914,-4.4143,-4.3651,-4.4311,-4.3084,-4.2846,-4.2938,-4.3124,-4.2632,-4.2209,-4.1539,-3.9733,-3.6784,-3.4021,-3.1598,-2.9587,-2.7997,-2.7784,-2.8454,-2.7392,-2.6284,-2.4891,-2.3596,-2.2043,-2.04,-1.8776,-1.6899,-1.511,-1.3746,-1.2335,-1.0884,-0.9864,-0.9027,-0.837,-0.7785,-0.7137,-0.6503,-0.5862,-0.5175,-0.4591,-0.3984,-0.4109,-0.4237,-0.4115,-0.4085,-0.392,-0.3697,-0.3456,-0.3077,-0.2819,-0.2049,-0.0895,-0.0254,0.0634,0.229,0.384,0.5886,0.7791,1.0377,1.2523,1.397,1.5503,1.673,1.7877,1.8959,2.0164,2.1441,2.2707,2.3935,2.5381,2.6779,2.7401,2.802,2.8498,2.8975,-6.0953,-6.1547,-6.2144,-6.2189,-6.1837,-6.1152,-6.0736,-6.0365,-5.9968,-5.9716,-5.5093,-4.2135,-2.4948,-1.1775,-1.0659,-1.2552,-1.1114,-2.5448,-3.0512,-3.6453,-4.524,-5.3131,-5.3279,-5.276,-5.2854,-5.2887,-5.2611,-5.2734,-5.2637,-5.1922,-5.056,-4.9519,-4.8651,-4.7596,-4.661,-4.598,-4.5635,-4.5314,-4.452,-4.4418,-4.4637,-4.374,-4.3572,-4.3441,-4.3054,-4.2445,-4.2641,-4.2608,-4.2254,-4.0948,-3.9909,-3.7805,-3.4568,-3.1322,-2.8719,-2.6479,-2.4401,-2.3254,-2.4061,-2.4046,-2.3486,-2.2017,-2.0581,-1.8871,-1.7781,-1.6322,-1.5247,-1.3551,-1.2581,-1.1247,-0.9881,-0.9035,-0.8371,-0.7737,-0.7015,-0.6426,-0.587,-0.5276,-0.4658,-0.3896,-0.3395,-0.2886,-0.3017,-0.3017,-0.298,-0.2908,-0.2651,-0.229,-0.1918,-0.154,-0.0903,0.0,0.0775,0.1538,0.3058,0.4849,0.7,0.928,1.1845,1.3816,1.5117,1.6247,1.7329,1.8426,1.9492,2.0911,2.2246,2.3567,2.494,2.603,2.6918,2.7659,2.8259,2.8737,2.8975,-6.0417,-6.1152,-6.1782,-6.1173,-6.0208,-6.0853,-5.95,-5.55,-5.7324,-5.5709,-5.0194,-3.8414,-1.7983,-0.9335,-0.3186,-0.3972,-0.7768,-2.5063,-2.8228,-3.4327,-4.5665,-5.2579,-5.3004,-5.2639,-5.1698,-5.0305,-4.844,-4.8916,-4.9571,-4.2658,-4.5874,-4.9222,-4.6127,-4.5525,-4.5235,-4.4938,-4.4531,-4.4281,-4.3762,-4.3979,-4.4011,-4.3491,-4.3069,-4.3174,-4.2403,-4.1735,-4.187,-4.1425,-4.0333,-3.8851,-3.7385,-3.494,-3.141,-2.7914,-2.5158,-2.2781,-2.0275,-1.8947,-1.8653,-1.9899,-2.0083,-1.865,-1.7096,-1.5953,-1.5502,-1.4699,-1.3617,-1.2579,-1.1545,-1.0612,-0.9519,-0.8736,-0.7968,-0.7322,-0.6592,-0.5885,-0.5346,-0.4601,-0.396,-0.3303,-0.2777,-0.2512,-0.2247,-0.2371,-0.2343,-0.2288,-0.1884,-0.1518,-0.0897,-0.0516,0.0,0.0654,0.1571,0.2598,0.3976,0.5851,0.8138,1.0411,1.294,1.4749,1.6102,1.7207,1.7829,1.8839,1.9843,2.1423,2.2894,2.4086,2.5103,2.6164,2.7056,2.7659,2.8259,2.8737,2.8975,-5.9903,-5.9618,-5.0574,-4.6401,-4.5167,-3.4054,-2.9095,-2.8736,-2.8184,-2.3823,-1.7733,0.2479,1.4929,1.8949,2.0794,2.0725,1.6499,-0.7351,-1.4601,-2.5857,-3.853,-5.1334,-5.3004,-5.0578,-4.7665,-3.9999,-3.7201,-3.0314,-2.1935,-2.483,-2.1312,-2.3613,-3.674,-4.4889,-4.5287,-4.2377,-4.3237,-4.3346,-4.315,-4.3233,-4.3339,-4.2525,-4.1987,-4.2353,-4.0952,-3.9966,-3.9419,-3.873,-3.7227,-3.5437,-3.3677,-3.0647,-2.7276,-2.3694,-2.0914,-1.8541,-1.5929,-1.4328,-1.3617,-1.5183,-1.6186,-1.4692,-1.3528,-1.3051,-1.3143,-1.2459,-1.1952,-1.1153,-1.0542,-0.9608,-0.8793,-0.8183,-0.757,-0.6896,-0.6281,-0.5447,-0.4772,-0.4134,-0.3464,-0.2787,-0.2514,-0.2114,-0.198,-0.1714,-0.1688,-0.1534,-0.1139,-0.063,-0.0128,0.0516,0.1041,0.1832,0.275,0.3906,0.5397,0.7291,0.9214,1.1516,1.3892,1.5248,1.6497,1.7369,1.8093,1.8998,1.9986,2.1365,2.2833,2.415,2.5386,2.6419,2.7039,2.7539,2.814,2.8737,2.8856,-4.7492,-4.9283,-3.0179,-2.7593,-3.2959,-1.7108,-0.9516,-0.9265,-0.9705,-0.1161,1.1073,2.6796,3.6037,3.8102,3.8871,3.7847,2.7522,0.6729,-0.5025,-2.0086,-3.7505,-5.1304,-5.1759,-4.6408,-3.8382,-2.8241,-2.0695,-1.3854,-0.7254,-0.329,-0.4867,-1.1383,-2.0892,-2.8265,-3.0739,-3.5836,-3.8674,-4.2004,-4.2386,-4.2364,-4.2466,-4.1585,-4.081,-4.0898,-3.9368,-3.8043,-3.6896,-3.5832,-3.3776,-3.1392,-2.8991,-2.5872,-2.2408,-1.8932,-1.6037,-1.3687,-1.1558,-0.9763,-0.9656,-1.077,-1.219,-1.1114,-1.0786,-1.0457,-1.0407,-1.0449,-1.0114,-0.9781,-0.9177,-0.8703,-0.8183,-0.7599,-0.7126,-0.6598,-0.5858,-0.5008,-0.442,-0.3749,-0.307,-0.2395,-0.2131,-0.1874,-0.1601,-0.1334,-0.1053,-0.1035,-0.0635,-0.0127,0.0512,0.1161,0.2071,0.2992,0.4174,0.544,0.6928,0.8594,1.0208,1.1889,1.3956,1.5262,1.6362,1.7267,1.7995,1.866,1.9829,2.1293,2.2746,2.4325,2.5551,2.6624,2.7159,2.7779,2.8379,2.8856,2.8975,-2.0671,-2.9261,-0.227,-0.7799,-3.175,-1.6318,-0.7337,-0.383,-0.4189,0.3498,1.6652,2.074,2.7655,3.7086,3.9406,3.91,3.25,0.8243,-0.5669,-1.2162,-3.0877,-4.7969,-4.5174,-3.5928,-2.4948,-2.2979,-1.1805,-0.1689,0.2099,0.6305,0.4708,0.4428,0.1869,-0.5067,-0.2152,-1.4647,-2.7995,-4.0146,-4.1395,-4.1393,-4.107,-4.0247,-3.9607,-3.8841,-3.7414,-3.5892,-3.4239,-3.226,-2.9924,-2.71,-2.4218,-2.104,-1.7113,-1.378,-1.1254,-0.9382,-0.6979,-0.557,-0.5355,-0.726,-0.7859,-0.7965,-0.7907,-0.8002,-0.8246,-0.828,-0.8569,-0.8098,-0.8112,-0.8079,-0.7598,-0.7132,-0.6645,-0.6148,-0.5401,-0.4649,-0.3922,-0.3356,-0.2677,-0.2132,-0.1892,-0.1503,-0.136,-0.1082,-0.0668,-0.0394,-0.0256,0.0383,0.1034,0.2078,0.3002,0.4308,0.5501,0.673,0.8176,0.9585,1.1082,1.2636,1.4023,1.5322,1.6335,1.7173,1.7848,1.8453,1.9856,2.1584,2.3047,2.4595,2.5957,2.7159,2.7659,2.814,2.8618,2.8975,2.8975,-1.8105,-3.0931,-1.1277,-1.4985,-2.7422,0.7696,2.338,2.3593,2.41,2.6727,3.1046,3.1978,3.3253,3.825,3.8969,3.8472,3.3437,2.0461,0.7359,0.3918,-1.6352,-1.9139,-1.9482,-1.6941,-0.7119,0.3128,1.2364,1.9713,3.0955,2.6607,2.896,3.06,2.3965,1.2615,-0.7214,-2.1139,-2.8267,-3.9569,-4.1239,-4.0247,-3.9408,-3.8208,-3.6975,-3.614,-3.4485,-3.2652,-3.061,-2.8295,-2.5426,-2.2125,-1.9113,-1.5766,-1.2383,-0.9332,-0.7314,-0.558,-0.3435,-0.2348,-0.1916,-0.2728,-0.383,-0.458,-0.5334,-0.5399,-0.5496,-0.5812,-0.6105,-0.6532,-0.6665,-0.6793,-0.7378,-0.6797,-0.6312,-0.5778,-0.515,-0.4247,-0.3656,-0.3102,-0.2551,-0.2,-0.161,-0.1231,-0.0824,-0.0413,0.0,0.0409,0.0803,0.1321,0.1993,0.3185,0.4256,0.5558,0.6863,0.807,0.9311,1.0393,1.1423,1.2715,1.3984,1.528,1.62,1.7221,1.8277,1.9233,2.062,2.2052,2.396,2.572,2.6884,2.79,2.814,2.8379,2.8737,2.8975,2.8975,-0.3792,-2.1226,-0.844,-1.1223,-1.7742,1.5698,3.427,3.9217,4.0279,4.0279,3.9996,3.9866,3.9409,3.8629,3.8429,3.8204,3.5685,2.1671,1.4604,1.2859,-0.0547,-0.7587,-0.6647,0.1892,0.8176,2.0343,2.8441,3.5841,4.2182,4.5102,4.4335,4.3599,4.5498,2.1941,0.0213,-0.9399,-1.3477,-2.4862,-3.0547,-3.2514,-3.437,-3.5356,-3.3681,-3.2432,-3.0831,-2.8873,-2.6223,-2.3419,-2.0476,-1.7025,-1.3722,-1.0772,-0.8035,-0.5748,-0.3754,-0.2157,-0.0947,0.0136,0.0679,0.0542,-0.0681,-0.1662,-0.2501,-0.309,-0.3284,-0.372,-0.4154,-0.4586,-0.4887,-0.5603,-0.6324,-0.5904,-0.5438,-0.4917,-0.4313,-0.3561,-0.2997,-0.2441,-0.2169,-0.175,-0.1222,-0.0826,-0.0279,0.0279,0.0699,0.1261,0.1682,0.2489,0.3265,0.4459,0.5665,0.6996,0.8132,0.9205,1.0062,1.0805,1.1898,1.2942,1.4232,1.546,1.6457,1.7517,1.8826,2.0169,2.1685,2.334,2.532,2.6867,2.7727,2.8259,2.8618,2.8737,2.8975,2.8975,2.9094,2.248,-0.2084,0.7726,0.2983,-0.5779,0.8527,2.5135,3.9758,4.0192,4.017,4.017,3.9539,3.906,3.8647,3.8211,3.7754,3.604,2.2315,1.905,1.4415,0.7343,0.1969,0.4982,1.3567,2.1522,2.7612,3.4185,4.0764,4.5502,4.5742,4.606,4.635,4.6455,2.7449,1.4158,0.8655,0.011,-1.859,-2.5965,-2.8581,-3.2114,-3.1616,-2.9699,-2.8154,-2.6618,-2.4553,-2.1932,-1.9204,-1.5915,-1.2557,-0.9411,-0.6669,-0.4182,-0.215,-0.0807,0.0404,0.1482,0.2022,0.2428,0.2155,0.1759,0.0685,-0.0137,-0.0968,-0.1538,-0.1552,-0.1978,-0.2541,-0.2966,-0.3942,-0.4639,-0.4361,-0.408,-0.3625,-0.319,-0.2614,-0.2056,-0.178,-0.1646,-0.1241,-0.0839,-0.0283,0.0428,0.1002,0.1843,0.2845,0.3556,0.4529,0.5289,0.6122,0.7346,0.8465,0.9594,1.0511,1.1206,1.1705,1.2395,1.3601,1.4697,1.5982,1.7009,1.8252,1.9733,2.1228,2.2868,2.465,2.6577,2.7674,2.8361,2.8755,2.8975,2.8975,2.9112,2.9094,2.9213,2.2797,-0.5174,-0.4478,-1.2615,-2.1444,0.2225,2.3127,3.7763,3.8871,3.8722,3.8594,3.8487,3.8143,3.7545,3.7395,3.7053,3.5331,3.3134,3.1847,2.7537,2.3349,2.6041,2.8671,3.1605,3.6223,3.8058,4.1731,4.4422,4.4448,4.4909,4.5528,4.5822,4.635,3.3131,2.5092,2.3811,-0.0565,-1.9166,-2.5189,-2.6438,-2.7582,-2.6877,-2.5018,-2.3453,-2.2443,-2.032,-1.7812,-1.536,-1.2395,-0.928,-0.643,-0.3964,-0.2047,-0.0812,0.0269,0.1884,0.2556,0.3096,0.3365,0.3094,0.2697,0.2572,0.1896,0.1511,0.0973,0.042,0.014,-0.0557,-0.1114,-0.1946,-0.2918,-0.292,-0.2635,-0.2345,-0.1787,-0.1374,-0.0959,-0.0825,-0.0689,-0.0557,-0.0141,0.0428,0.1153,0.2159,0.2998,0.431,0.547,0.6312,0.7115,0.7931,0.8697,0.9847,1.0839,1.1636,1.2271,1.275,1.3364,1.4242,1.5472,1.6704,1.7811,1.9179,2.0822,2.2616,2.4531,2.6202,2.7776,2.8517,2.8874,2.9213,2.9331,2.9213,2.9094,2.945,2.9667,2.6354,0.3843,-0.0204,-0.7053,-1.1152,0.4841,2.2275,3.5604,3.7888,3.8081,3.7932,3.774,3.7359,3.7103,3.6891,3.6801,3.6545,3.6194,3.5928,3.6918,3.9575,3.867,4.1232,4.2741,4.2476,4.3891,4.3764,4.333,4.327,4.4094,4.483,4.5822,4.6455,3.4235,2.2873,1.5456,0.0352,-1.6994,-2.6177,-2.4154,-2.2896,-2.1881,-1.9758,-1.8651,-1.7862,-1.625,-1.4189,-1.1844,-0.9465,-0.6755,-0.3949,-0.2198,-0.0548,0.0407,0.1346,0.2825,0.3362,0.3633,0.3902,0.3768,0.3497,0.3228,0.3228,0.2848,0.2596,0.206,0.1649,0.1099,0.0688,0.0275,-0.0689,-0.1514,-0.1232,-0.0954,-0.0546,0.0,0.0274,0.0275,0.0416,0.042,0.0849,0.143,0.2155,0.3158,0.4313,0.5774,0.709,0.8241,0.8918,0.9372,1.004,1.0786,1.1753,1.2663,1.3277,1.4116,1.4883,1.5597,1.6738,1.7861,1.884,2.0585,2.2493,2.4467,2.6474,2.7674,2.8672,2.8874,2.9213,2.9587,3.0058,3.0138,3.0138,3.0138,3.047,3.1581,1.6033,1.4341,1.1414,1.2762,1.4668,2.3689,3.5313,3.7295,3.7678,3.7571,3.7106,3.6894,3.6497,3.641,3.6508,3.6667,3.7019,3.7658,3.8642,3.9294,4.0434,4.1441,4.2332,4.3075,4.3498,4.3174,4.2301,4.1952,4.2785,4.4344,4.5874,4.695,3.5571,1.5423,1.5369,0.2533,-1.6904,-1.6681,-1.1792,-1.7254,-1.6875,-1.4148,-1.3877,-1.317,-1.2264,-1.0451,-0.8639,-0.6965,-0.4384,-0.2293,-0.0697,0.0551,0.1769,0.2841,0.3367,0.4044,0.4305,0.4305,0.4305,0.4037,0.3902,0.3768,0.364,0.3386,0.3121,0.2716,0.2445,0.204,0.1495,0.068,0.0408,0.0542,0.0677,0.0948,0.149,0.1765,0.1921,0.2092,0.2114,0.2429,0.3031,0.3902,0.5057,0.618,0.7526,0.8668,0.9821,1.0519,1.087,1.147,1.1931,1.281,1.3838,1.4745,1.5583,1.6382,1.7234,1.8077,1.8918,1.9704,2.184,2.448,2.6118,2.7656,2.8259,2.8966,2.9287,2.9761,3.0428,3.0859,3.1208,3.1285,3.1305,3.1401,3.2724,1.7595,1.4702,1.3427,1.4768,2.5578,3.2334,3.6624,3.6635,3.6537,3.6102,3.5894,3.5728,3.5583,3.5892,3.6034,3.6646,3.7275,3.7923,3.8754,3.9567,4.0153,4.1201,4.1842,4.2524,4.2637,4.2224,4.1004,4.1028,4.2026,4.35,4.5182,4.5552,3.3744,1.4531,1.6194,0.6006,-1.4513,-1.1111,-0.7798,-1.2795,-1.2529,-1.0384,-0.9787,-0.9174,-0.8379,-0.6892,-0.5826,-0.4112,-0.2122,-0.0593,0.0869,0.227,0.3322,0.3966,0.4226,0.4738,0.4858,0.4708,0.4574,0.444,0.4305,0.4171,0.4171,0.4039,0.3768,0.3631,0.3497,0.3228,0.2689,0.2286,0.2286,0.2286,0.242,0.242,0.2957,0.3362,0.3568,0.3641,0.3973,0.4176,0.4924,0.5801,0.6805,0.8083,0.9045,1.0125,1.11,1.1691,1.2226,1.2997,1.3617,1.4115,1.5041,1.5934,1.6702,1.7551,1.8153,1.8813,1.9679,2.0714,2.3304,2.5829,2.7204,2.8397,2.9057,2.961,3.0073,3.0565,3.1446,3.1933,3.2275,3.2518,3.2633,3.2706,3.7887,2.8789,2.5639,2.3989,2.4911,3.2855,3.6646,3.6989,3.6889,3.6524,3.6013,3.5788,3.5418,3.5294,3.5665,3.6279,3.6868,3.7473,3.8335,3.9285,3.9755,4.0106,4.0803,4.1263,4.1915,4.1915,3.9686,3.8615,3.9639,3.9966,4.1046,4.2413,4.1873,3.4311,1.8261,1.6102,0.9509,-0.8377,-0.6129,-0.6753,-0.8929,-0.7828,-0.7019,-0.6518,-0.5849,-0.5013,-0.429,-0.3387,-0.2156,-0.0306,0.1349,0.2778,0.4009,0.4929,0.5137,0.5224,0.5451,0.5552,0.5121,0.4973,0.4708,0.444,0.4305,0.4305,0.4171,0.4037,0.4037,0.3902,0.4168,0.3763,0.3495,0.3497,0.3495,0.3629,0.39,0.4303,0.4606,0.4675,0.4993,0.5289,0.5648,0.6286,0.714,0.795,0.9068,0.9771,1.0835,1.1379,1.2102,1.3245,1.4178,1.5122,1.5756,1.6341,1.7183,1.7795,1.8371,1.906,1.9679,2.1494,2.3149,2.5208,2.731,2.8253,2.9167,2.9851,3.0351,3.0892,3.1939,3.3008,3.3231,3.3382,3.3621,3.3785,3.3806,4.3482,4.1874,3.8889,3.7045,3.6279,3.6746,3.721,3.7429,3.7594,3.7352,3.6824,3.6401,3.5911,3.5788,3.6156,3.6889,3.7616,3.8313,3.9144,3.9849,3.9989,4.0083,4.0199,4.0571,4.0946,4.0106,3.805,3.7666,3.7887,3.7777,3.774,3.8195,3.4129,2.8179,1.9224,1.4271,0.8828,-0.0421,-0.2584,-0.2174,-0.3054,-0.3932,-0.4397,-0.4149,-0.3448,-0.2883,-0.214,-0.1382,-0.0461,0.1219,0.3007,0.458,0.5512,0.6151,0.6196,0.626,0.6183,0.599,0.5669,0.5242,0.4977,0.4574,0.444,0.444,0.444,0.444,0.444,0.4574,0.4705,0.4705,0.4571,0.4571,0.4705,0.4836,0.5242,0.5647,0.5844,0.5909,0.6461,0.6868,0.7364,0.7893,0.8578,0.9226,0.9896,1.0586,1.098,1.1537,1.2368,1.3634,1.48,1.6196,1.7302,1.7949,1.8373,1.8886,1.948,2.0034,2.0948,2.3268,2.5264,2.6434,2.7768,2.8974,2.9841,3.0354,3.129,3.2074,3.3274,3.4331,3.4466,3.4474,3.4511,3.4674,3.4788,4.383,4.0894,3.9285,3.8216,3.7637,3.7834,3.8194,3.8432,3.8574,3.8194,3.7714,3.7473,3.7011,3.5869,3.6502,3.7352,3.8648,3.9121,4.0199,4.1009,4.0339,4.0083,3.9826,3.9615,3.9426,3.8439,3.7308,3.685,3.5886,3.5128,3.4391,3.4247,3.3376,2.8078,2.1397,1.6995,1.2717,0.454,0.0865,0.1017,-0.0728,-0.1749,-0.2771,-0.2645,-0.2073,-0.1341,-0.06,0.0,0.1061,0.2568,0.4504,0.5965,0.6786,0.7263,0.7278,0.7165,0.7078,0.6681,0.6349,0.5919,0.5513,0.5245,0.5111,0.5245,0.5245,0.5248,0.5111,0.5111,0.5245,0.5242,0.5108,0.551,0.5644,0.6046,0.6451,0.6987,0.7291,0.7767,0.836,0.8654,0.9125,0.9469,0.9751,1.0247,1.0327,1.0846,1.0766,1.1447,1.2323,1.3857,1.5413,1.6943,1.8505,1.9151,1.9649,2.0219,2.0709,2.119,2.2231,2.4301,2.5926,2.6839,2.8002,2.9397,3.0129,3.0747,3.1828,3.3234,3.4204,3.5184,3.5478,3.5642,3.5539,3.5386,3.543]}]]